GEFSNE_prec_meanprecacc_132.txt.gz
Total_Precipitation_Accumulation
0.24 0.26 0.29 0.28 0.27 0.27 0.31 0.42 0.58 0.42 0.11 0.03 0.05 0.08 0.12 0.15 0.21 0.27 0.27 0.32 0.37 0.42 0.51 0.58 0.60 0.62 0.75 1.07 1.78 2.63 3.25 3.33 3.00 2.50 2.21 2.33 2.58 3.00
0.27 0.31 0.33 0.33 0.32 0.31 0.33 0.35 0.47 0.58 0.36 0.07 0.06 0.09 0.14 0.16 0.21 0.25 0.24 0.30 0.34 0.38 0.41 0.44 0.52 0.60 0.67 0.80 1.08 1.74 2.50 3.09 3.30 3.15 2.85 2.73 2.84 3.15
0.32 0.36 0.35 0.36 0.40 0.40 0.40 0.40 0.40 0.48 0.48 0.13 0.05 0.08 0.16 0.22 0.22 0.23 0.23 0.24 0.27 0.34 0.38 0.38 0.42 0.49 0.58 0.67 0.80 1.14 1.80 2.45 3.03 3.36 3.46 3.31 3.22 3.21
0.43 0.43 0.42 0.42 0.44 0.45 0.49 0.49 0.44 0.42 0.49 0.31 0.09 0.08 0.14 0.23 0.27 0.26 0.24 0.23 0.23 0.29 0.34 0.39 0.41 0.46 0.52 0.59 0.68 0.81 1.18 1.73 2.32 2.85 3.19 3.23 3.19 3.35
0.49 0.53 0.53 0.53 0.53 0.52 0.55 0.57 0.53 0.47 0.48 0.46 0.24 0.14 0.18 0.24 0.30 0.30 0.29 0.27 0.26 0.29 0.31 0.37 0.43 0.48 0.50 0.54 0.60 0.69 0.79 1.06 1.49 2.13 2.74 2.99 2.99 3.02
0.53 0.58 0.62 0.67 0.68 0.69 0.73 0.72 0.68 0.65 0.57 0.53 0.41 0.29 0.28 0.29 0.37 0.38 0.34 0.32 0.35 0.35 0.34 0.34 0.39 0.45 0.48 0.47 0.46 0.51 0.64 0.90 1.21 1.60 2.14 2.55 2.67 2.69
0.55 0.59 0.63 0.72 0.88 1.03 1.14 1.06 0.91 0.89 0.81 0.75 0.62 0.47 0.40 0.43 0.51 0.47 0.47 0.39 0.41 0.45 0.42 0.35 0.33 0.32 0.36 0.44 0.48 0.50 0.54 0.66 0.87 1.21 1.64 2.11 2.42 2.48
0.51 0.49 0.51 0.57 0.68 0.81 0.99 1.00 0.96 1.07 1.10 1.01 0.87 0.73 0.56 0.50 0.58 0.66 0.69 0.66 0.56 0.48 0.48 0.46 0.41 0.40 0.38 0.37 0.47 0.50 0.56 0.63 0.73 0.93 1.27 1.65 2.05 2.36
0.37 0.37 0.37 0.41 0.48 0.49 0.58 0.62 0.68 0.78 0.95 1.08 1.12 0.91 0.73 0.64 0.74 0.86 0.87 0.85 0.67 0.58 0.65 0.71 0.62 0.55 0.49 0.50 0.56 0.52 0.55 0.62 0.72 0.84 0.99 1.28 1.65 2.04
0.30 0.34 0.34 0.36 0.42 0.52 0.58 0.52 0.47 0.49 0.66 0.86 1.05 0.98 0.88 0.88 1.03 1.20 1.25 1.23 1.02 0.82 0.79 0.91 0.83 0.76 0.69 0.63 0.60 0.54 0.53 0.54 0.60 0.73 0.89 1.07 1.30 1.63
0.26 0.33 0.36 0.34 0.40 0.55 0.62 0.56 0.43 0.40 0.44 0.64 0.86 0.98 1.03 1.15 1.34 1.57 1.65 1.65 1.53 1.26 1.05 1.04 0.98 0.91 0.88 0.84 0.76 0.66 0.58 0.53 0.52 0.59 0.75 0.93 1.15 1.40
0.21 0.29 0.43 0.46 0.47 0.52 0.56 0.57 0.55 0.43 0.35 0.35 0.40 0.51 0.65 0.78 1.04 1.33 1.47 1.56 1.56 1.54 1.31 1.18 1.16 1.10 1.16 1.01 0.81 0.68 0.59 0.58 0.54 0.52 0.59 0.75 0.96 1.17
0.28 0.32 0.38 0.44 0.43 0.45 0.51 0.55 0.60 0.51 0.43 0.42 0.39 0.37 0.43 0.56 0.74 1.03 1.27 1.41 1.48 1.48 1.29 1.26 1.36 1.26 1.19 1.08 0.88 0.74 0.63 0.54 0.47 0.48 0.52 0.62 0.80 0.97
0.34 0.27 0.32 0.37 0.38 0.42 0.42 0.45 0.46 0.48 0.47 0.42 0.36 0.31 0.33 0.44 0.56 0.75 1.01 1.15 1.21 1.24 1.14 1.23 1.39 1.22 1.13 1.01 0.91 0.85 0.74 0.65 0.53 0.44 0.42 0.56 0.72 0.88
0.38 0.43 0.37 0.33 0.31 0.26 0.25 0.30 0.33 0.34 0.42 0.39 0.30 0.24 0.25 0.34 0.42 0.53 0.71 0.92 1.01 1.04 1.07 1.11 1.26 1.23 1.20 1.06 0.84 0.79 0.82 0.82 0.69 0.56 0.48 0.45 0.50 0.63
0.34 0.38 0.37 0.27 0.20 0.16 0.14 0.16 0.20 0.27 0.33 0.33 0.25 0.19 0.19 0.26 0.37 0.47 0.62 0.80 0.97 1.00 1.01 1.08 1.24 1.43 1.41 1.09 0.92 0.84 0.75 0.83 0.79 0.66 0.55 0.49 0.46 0.48
0.48 0.45 0.38 0.29 0.24 0.19 0.14 0.12 0.14 0.19 0.26 0.27 0.25 0.24 0.24 0.27 0.31 0.39 0.56 0.72 0.88 0.90 0.97 1.12 1.27 1.41 1.55 1.47 1.29 1.01 0.81 0.73 0.73 0.70 0.63 0.57 0.56 0.54
0.49 0.46 0.33 0.25 0.21 0.19 0.18 0.15 0.13 0.15 0.17 0.22 0.26 0.25 0.26 0.28 0.31 0.35 0.48 0.63 0.74 0.77 0.86 1.03 1.24 1.45 1.66 1.82 1.60 1.21 0.93 0.81 0.79 0.77 0.69 0.62 0.63 0.65
0.37 0.29 0.20 0.18 0.18 0.17 0.17 0.16 0.14 0.12 0.15 0.20 0.23 0.23 0.24 0.27 0.32 0.36 0.42 0.52 0.62 0.68 0.78 0.93 1.13 1.33 1.43 1.54 1.68 1.42 1.10 0.94 0.88 0.91 0.84 0.67 0.60 0.62
0.21 0.20 0.18 0.17 0.17 0.17 0.16 0.15 0.14 0.14 0.16 0.19 0.20 0.21 0.23 0.28 0.31 0.31 0.36 0.46 0.55 0.62 0.71 0.84 1.02 1.20 1.26 1.18 1.28 1.39 1.35 1.10 0.94 0.94 0.95 0.85 0.77 0.81
0.16 0.16 0.16 0.18 0.18 0.17 0.16 0.16 0.16 0.16 0.15 0.16 0.18 0.19 0.21 0.27 0.29 0.27 0.31 0.38 0.50 0.59 0.64 0.68 0.82 1.01 1.26 1.32 1.27 1.22 1.31 1.39 1.15 0.96 0.93 0.95 0.97 0.98
0.16 0.17 0.16 0.16 0.18 0.18 0.18 0.17 0.18 0.16 0.15 0.17 0.16 0.17 0.19 0.24 0.27 0.27 0.31 0.38 0.44 0.50 0.57 0.61 0.70 0.93 1.26 1.42 1.34 1.20 1.22 1.38 1.50 1.34 1.10 0.93 0.90 0.91
0.20 0.20 0.19 0.18 0.18 0.19 0.20 0.20 0.19 0.16 0.15 0.16 0.17 0.16 0.18 0.22 0.22 0.26 0.29 0.34 0.40 0.46 0.53 0.62 0.69 0.86 1.13 1.29 1.37 1.31 1.22 1.22 1.30 1.38 1.45 1.23 0.92 0.79

GEFSNE_prec_meanprecacc_138.txt.gz
Total_Precipitation_Accumulation
0.24 0.26 0.29 0.28 0.27 0.27 0.31 0.42 0.58 0.42 0.11 0.03 0.05 0.08 0.12 0.15 0.21 0.27 0.27 0.32 0.37 0.42 0.51 0.58 0.60 0.62 0.76 1.08 1.80 2.64 3.27 3.35 3.02 2.52 2.24 2.36 2.62 3.03
0.27 0.31 0.33 0.33 0.32 0.31 0.33 0.35 0.47 0.58 0.36 0.07 0.06 0.09 0.14 0.16 0.21 0.25 0.24 0.30 0.34 0.39 0.41 0.44 0.52 0.60 0.68 0.81 1.10 1.76 2.52 3.12 3.32 3.18 2.89 2.77 2.88 3.19
0.32 0.36 0.35 0.36 0.40 0.40 0.40 0.40 0.40 0.48 0.48 0.13 0.05 0.08 0.16 0.22 0.22 0.23 0.23 0.24 0.27 0.34 0.38 0.38 0.43 0.50 0.59 0.68 0.82 1.16 1.82 2.48 3.06 3.40 3.50 3.35 3.26 3.25
0.43 0.43 0.42 0.42 0.44 0.45 0.50 0.49 0.44 0.42 0.49 0.31 0.09 0.08 0.14 0.23 0.27 0.26 0.24 0.23 0.23 0.29 0.34 0.39 0.42 0.46 0.53 0.61 0.70 0.82 1.20 1.75 2.34 2.87 3.22 3.26 3.22 3.39
0.49 0.53 0.53 0.53 0.53 0.52 0.55 0.57 0.54 0.47 0.48 0.46 0.24 0.14 0.18 0.24 0.30 0.30 0.29 0.27 0.26 0.29 0.31 0.37 0.44 0.48 0.51 0.55 0.62 0.70 0.81 1.07 1.51 2.15 2.76 3.02 3.02 3.06
0.53 0.58 0.62 0.67 0.68 0.69 0.73 0.72 0.68 0.65 0.57 0.53 0.41 0.29 0.28 0.29 0.37 0.38 0.34 0.32 0.35 0.35 0.34 0.34 0.39 0.46 0.49 0.48 0.47 0.52 0.65 0.91 1.23 1.63 2.17 2.58 2.70 2.72
0.55 0.59 0.63 0.72 0.88 1.03 1.14 1.06 0.92 0.89 0.82 0.75 0.62 0.47 0.40 0.43 0.51 0.47 0.47 0.39 0.41 0.45 0.42 0.35 0.33 0.32 0.36 0.44 0.49 0.50 0.55 0.67 0.90 1.24 1.67 2.14 2.45 2.51
0.51 0.49 0.51 0.57 0.68 0.81 0.99 1.01 0.97 1.07 1.11 1.01 0.87 0.74 0.56 0.50 0.58 0.67 0.70 0.67 0.57 0.48 0.48 0.46 0.41 0.40 0.38 0.37 0.47 0.51 0.57 0.66 0.77 0.96 1.31 1.69 2.08 2.39
0.37 0.37 0.37 0.41 0.48 0.49 0.58 0.62 0.68 0.78 0.96 1.09 1.12 0.91 0.73 0.64 0.76 0.88 0.90 0.87 0.68 0.59 0.67 0.73 0.62 0.55 0.49 0.50 0.56 0.53 0.57 0.65 0.75 0.87 1.02 1.32 1.69 2.08
0.30 0.34 0.34 0.36 0.42 0.53 0.58 0.52 0.47 0.49 0.66 0.87 1.06 0.99 0.89 0.89 1.05 1.23 1.28 1.27 1.05 0.83 0.80 0.94 0.84 0.76 0.69 0.63 0.60 0.54 0.54 0.56 0.62 0.76 0.92 1.10 1.34 1.67
0.26 0.33 0.36 0.34 0.40 0.56 0.63 0.56 0.44 0.40 0.45 0.65 0.87 0.99 1.05 1.18 1.37 1.61 1.69 1.70 1.57 1.27 1.06 1.06 0.99 0.91 0.88 0.84 0.76 0.66 0.59 0.53 0.52 0.61 0.77 0.96 1.18 1.43
0.21 0.29 0.43 0.47 0.47 0.53 0.57 0.58 0.56 0.43 0.35 0.36 0.41 0.52 0.66 0.79 1.05 1.35 1.50 1.60 1.60 1.57 1.32 1.20 1.18 1.12 1.17 1.01 0.81 0.68 0.59 0.58 0.54 0.53 0.60 0.76 0.99 1.19
0.28 0.32 0.38 0.44 0.44 0.46 0.53 0.56 0.61 0.53 0.45 0.44 0.40 0.38 0.43 0.56 0.75 1.03 1.28 1.44 1.53 1.52 1.31 1.29 1.39 1.28 1.21 1.09 0.88 0.74 0.63 0.54 0.47 0.48 0.52 0.63 0.82 0.99
0.34 0.27 0.32 0.37 0.38 0.43 0.43 0.46 0.48 0.50 0.48 0.43 0.37 0.32 0.33 0.45 0.56 0.75 1.01 1.16 1.23 1.26 1.16 1.25 1.43 1.25 1.16 1.03 0.92 0.85 0.74 0.65 0.53 0.44 0.42 0.57 0.72 0.89
0.38 0.43 0.38 0.34 0.32 0.27 0.25 0.31 0.34 0.35 0.42 0.39 0.31 0.25 0.26 0.35 0.43 0.54 0.72 0.93 1.02 1.04 1.07 1.12 1.27 1.25 1.23 1.10 0.86 0.79 0.82 0.83 0.69 0.56 0.48 0.45 0.50 0.64
0.34 0.38 0.37 0.27 0.20 0.16 0.14 0.16 0.20 0.27 0.33 0.34 0.26 0.20 0.20 0.27 0.38 0.48 0.64 0.81 0.99 1.01 1.02 1.09 1.25 1.45 1.44 1.11 0.94 0.86 0.76 0.84 0.80 0.66 0.56 0.49 0.47 0.49
0.49 0.46 0.38 0.29 0.24 0.19 0.14 0.12 0.14 0.20 0.27 0.27 0.26 0.25 0.25 0.28 0.33 0.40 0.58 0.73 0.90 0.91 0.98 1.13 1.28 1.42 1.56 1.49 1.30 1.02 0.82 0.74 0.74 0.71 0.64 0.58 0.57 0.55
0.50 0.47 0.33 0.25 0.21 0.19 0.18 0.16 0.14 0.16 0.18 0.23 0.27 0.27 0.28 0.30 0.32 0.36 0.49 0.65 0.76 0.78 0.86 1.03 1.25 1.46 1.67 1.83 1.61 1.22 0.94 0.82 0.80 0.78 0.70 0.63 0.64 0.65
0.37 0.29 0.20 0.18 0.18 0.18 0.18 0.17 0.15 0.12 0.15 0.22 0.24 0.24 0.25 0.28 0.32 0.37 0.43 0.54 0.63 0.69 0.78 0.94 1.14 1.35 1.44 1.54 1.68 1.42 1.11 0.94 0.89 0.91 0.85 0.68 0.61 0.63
0.21 0.20 0.18 0.17 0.17 0.18 0.16 0.16 0.15 0.14 0.17 0.19 0.21 0.21 0.24 0.29 0.32 0.33 0.37 0.47 0.56 0.63 0.71 0.84 1.03 1.21 1.29 1.21 1.30 1.40 1.36 1.11 0.95 0.95 0.96 0.86 0.77 0.81
0.16 0.16 0.16 0.18 0.18 0.17 0.16 0.16 0.17 0.17 0.15 0.17 0.18 0.20 0.22 0.28 0.30 0.28 0.31 0.39 0.52 0.60 0.65 0.69 0.83 1.02 1.27 1.34 1.28 1.22 1.31 1.39 1.15 0.97 0.94 0.96 0.98 0.99
0.16 0.17 0.16 0.16 0.18 0.19 0.18 0.18 0.18 0.16 0.15 0.17 0.17 0.18 0.20 0.25 0.28 0.27 0.32 0.39 0.45 0.51 0.58 0.62 0.71 0.93 1.27 1.44 1.35 1.21 1.22 1.38 1.50 1.35 1.11 0.94 0.92 0.94
0.20 0.20 0.19 0.18 0.19 0.19 0.20 0.20 0.19 0.17 0.15 0.16 0.17 0.17 0.19 0.23 0.23 0.27 0.30 0.35 0.41 0.46 0.54 0.63 0.70 0.87 1.13 1.30 1.37 1.31 1.22 1.23 1.30 1.38 1.46 1.24 0.93 0.80

GEFSNE_prec_meanprecacc_144.txt.gz
Total_Precipitation_Accumulation
0.24 0.26 0.29 0.28 0.27 0.27 0.31 0.42 0.58 0.42 0.11 0.03 0.05 0.08 0.12 0.15 0.21 0.27 0.27 0.32 0.37 0.42 0.51 0.58 0.61 0.63 0.76 1.09 1.81 2.65 3.28 3.36 3.04 2.54 2.26 2.39 2.65 3.07
0.28 0.32 0.33 0.33 0.32 0.31 0.33 0.35 0.47 0.58 0.36 0.07 0.06 0.09 0.14 0.16 0.21 0.25 0.24 0.30 0.34 0.39 0.41 0.44 0.53 0.61 0.69 0.82 1.11 1.77 2.53 3.14 3.34 3.21 2.92 2.81 2.93 3.24
0.33 0.37 0.36 0.36 0.40 0.40 0.40 0.40 0.40 0.49 0.49 0.13 0.05 0.08 0.16 0.22 0.22 0.23 0.23 0.24 0.27 0.34 0.38 0.39 0.43 0.50 0.60 0.69 0.83 1.18 1.84 2.50 3.09 3.42 3.53 3.38 3.30 3.30
0.43 0.43 0.42 0.42 0.44 0.45 0.50 0.49 0.44 0.42 0.49 0.32 0.10 0.08 0.14 0.23 0.27 0.26 0.24 0.23 0.23 0.29 0.34 0.39 0.42 0.47 0.54 0.62 0.71 0.84 1.22 1.77 2.37 2.90 3.25 3.30 3.26 3.43
0.49 0.53 0.53 0.54 0.53 0.52 0.56 0.57 0.54 0.47 0.48 0.47 0.24 0.14 0.18 0.24 0.30 0.30 0.29 0.28 0.26 0.29 0.31 0.37 0.44 0.48 0.51 0.56 0.63 0.72 0.82 1.09 1.53 2.17 2.79 3.05 3.05 3.10
0.53 0.58 0.62 0.67 0.68 0.69 0.74 0.72 0.69 0.65 0.57 0.53 0.41 0.29 0.28 0.29 0.37 0.38 0.34 0.32 0.35 0.35 0.34 0.34 0.39 0.46 0.49 0.48 0.47 0.52 0.66 0.92 1.25 1.65 2.20 2.62 2.74 2.76
0.56 0.59 0.63 0.73 0.88 1.04 1.14 1.06 0.92 0.89 0.82 0.76 0.63 0.48 0.41 0.43 0.51 0.47 0.48 0.39 0.41 0.45 0.42 0.35 0.33 0.32 0.36 0.44 0.49 0.51 0.55 0.69 0.92 1.26 1.71 2.18 2.49 2.55
0.51 0.49 0.51 0.58 0.68 0.82 0.99 1.01 0.97 1.08 1.12 1.02 0.88 0.74 0.56 0.51 0.59 0.67 0.71 0.68 0.58 0.48 0.49 0.46 0.41 0.40 0.38 0.37 0.47 0.51 0.58 0.68 0.79 1.00 1.35 1.73 2.12 2.43
0.37 0.38 0.38 0.41 0.49 0.49 0.59 0.63 0.69 0.79 0.96 1.09 1.13 0.92 0.74 0.65 0.77 0.90 0.91 0.89 0.70 0.60 0.68 0.74 0.62 0.55 0.49 0.50 0.56 0.53 0.58 0.67 0.78 0.90 1.05 1.34 1.72 2.12
0.31 0.34 0.35 0.37 0.42 0.53 0.59 0.53 0.47 0.49 0.66 0.87 1.06 0.99 0.89 0.90 1.07 1.25 1.31 1.29 1.07 0.84 0.81 0.96 0.84 0.76 0.69 0.63 0.60 0.55 0.55 0.57 0.63 0.77 0.94 1.12 1.36 1.70
0.27 0.34 0.37 0.34 0.41 0.57 0.64 0.57 0.44 0.40 0.45 0.66 0.88 1.00 1.06 1.19 1.39 1.62 1.71 1.73 1.59 1.28 1.07 1.07 1.00 0.91 0.88 0.84 0.76 0.66 0.59 0.54 0.53 0.62 0.78 0.97 1.20 1.46
0.21 0.29 0.43 0.47 0.47 0.53 0.58 0.59 0.56 0.44 0.36 0.36 0.41 0.53 0.66 0.79 1.06 1.36 1.51 1.63 1.62 1.58 1.33 1.21 1.19 1.13 1.19 1.01 0.81 0.68 0.60 0.58 0.54 0.53 0.61 0.77 1.01 1.21
0.28 0.32 0.38 0.45 0.44 0.47 0.53 0.57 0.62 0.54 0.45 0.44 0.41 0.38 0.43 0.56 0.75 1.03 1.28 1.45 1.55 1.54 1.32 1.32 1.41 1.29 1.23 1.10 0.88 0.74 0.63 0.54 0.47 0.48 0.52 0.63 0.83 1.01
0.34 0.28 0.32 0.38 0.39 0.43 0.43 0.46 0.48 0.50 0.49 0.43 0.37 0.32 0.34 0.45 0.56 0.75 1.02 1.16 1.24 1.27 1.17 1.28 1.47 1.28 1.19 1.05 0.92 0.85 0.74 0.65 0.53 0.44 0.42 0.57 0.73 0.90
0.38 0.43 0.38 0.34 0.32 0.27 0.25 0.31 0.34 0.35 0.42 0.40 0.31 0.25 0.26 0.35 0.44 0.55 0.73 0.93 1.03 1.05 1.08 1.13 1.30 1.28 1.26 1.12 0.87 0.80 0.82 0.83 0.69 0.56 0.49 0.46 0.50 0.65
0.34 0.38 0.38 0.28 0.20 0.16 0.14 0.17 0.20 0.27 0.34 0.34 0.26 0.20 0.20 0.28 0.38 0.49 0.64 0.82 1.00 1.01 1.03 1.09 1.26 1.47 1.46 1.13 0.96 0.86 0.77 0.85 0.80 0.67 0.56 0.50 0.47 0.50
0.49 0.46 0.38 0.30 0.24 0.19 0.14 0.12 0.14 0.20 0.27 0.27 0.26 0.26 0.26 0.29 0.33 0.41 0.58 0.74 0.91 0.92 0.99 1.14 1.29 1.43 1.58 1.50 1.31 1.03 0.83 0.74 0.74 0.72 0.65 0.59 0.58 0.55
0.50 0.47 0.33 0.25 0.22 0.20 0.19 0.16 0.14 0.16 0.19 0.24 0.27 0.27 0.28 0.30 0.33 0.37 0.50 0.66 0.77 0.79 0.87 1.04 1.26 1.46 1.68 1.83 1.61 1.22 0.95 0.82 0.80 0.79 0.71 0.65 0.65 0.66
0.37 0.29 0.21 0.19 0.19 0.18 0.18 0.17 0.15 0.13 0.16 0.22 0.25 0.25 0.26 0.29 0.33 0.37 0.43 0.55 0.64 0.70 0.79 0.94 1.15 1.36 1.45 1.55 1.68 1.42 1.12 0.95 0.89 0.92 0.86 0.69 0.62 0.64
0.22 0.20 0.19 0.17 0.18 0.18 0.17 0.16 0.15 0.15 0.17 0.20 0.21 0.22 0.25 0.30 0.33 0.33 0.37 0.48 0.56 0.63 0.72 0.85 1.04 1.23 1.31 1.22 1.30 1.40 1.36 1.11 0.95 0.96 0.96 0.86 0.78 0.82
0.16 0.16 0.17 0.18 0.18 0.17 0.16 0.16 0.17 0.17 0.16 0.18 0.19 0.20 0.23 0.29 0.31 0.28 0.32 0.39 0.52 0.61 0.66 0.69 0.83 1.03 1.28 1.35 1.29 1.22 1.31 1.39 1.16 0.98 0.95 0.97 0.99 0.99
0.16 0.17 0.16 0.17 0.18 0.19 0.18 0.18 0.19 0.17 0.16 0.18 0.18 0.18 0.21 0.26 0.29 0.28 0.32 0.39 0.45 0.52 0.58 0.62 0.71 0.94 1.28 1.44 1.36 1.21 1.22 1.38 1.51 1.35 1.11 0.96 0.95 0.97
0.21 0.21 0.19 0.18 0.19 0.20 0.21 0.21 0.20 0.17 0.16 0.17 0.18 0.18 0.20 0.24 0.24 0.28 0.31 0.36 0.42 0.47 0.54 0.63 0.71 0.87 1.13 1.30 1.37 1.31 1.23 1.23 1.31 1.38 1.46 1.24 0.94 0.83

GEFSNE_prec_meanprecacc_150.txt.gz
Total_Precipitation_Accumulation
0.24 0.26 0.30 0.28 0.27 0.27 0.31 0.42 0.58 0.42 0.11 0.03 0.05 0.08 0.12 0.15 0.21 0.27 0.27 0.32 0.37 0.43 0.51 0.58 0.61 0.63 0.77 1.10 1.81 2.66 3.30 3.38 3.05 2.56 2.28 2.41 2.68 3.11
0.28 0.32 0.34 0.34 0.33 0.32 0.33 0.36 0.47 0.58 0.36 0.07 0.06 0.09 0.14 0.16 0.21 0.25 0.24 0.30 0.34 0.39 0.41 0.45 0.53 0.61 0.69 0.83 1.12 1.79 2.55 3.15 3.36 3.23 2.95 2.84 2.97 3.28
0.34 0.38 0.37 0.37 0.41 0.40 0.40 0.40 0.40 0.49 0.49 0.13 0.05 0.08 0.16 0.22 0.22 0.23 0.23 0.24 0.28 0.34 0.38 0.39 0.43 0.51 0.60 0.70 0.84 1.19 1.85 2.52 3.11 3.45 3.56 3.42 3.34 3.34
0.44 0.44 0.43 0.43 0.44 0.45 0.50 0.49 0.44 0.42 0.50 0.32 0.10 0.08 0.14 0.23 0.27 0.26 0.24 0.23 0.23 0.29 0.34 0.40 0.43 0.48 0.54 0.62 0.72 0.85 1.23 1.79 2.39 2.93 3.28 3.33 3.29 3.47
0.50 0.54 0.54 0.54 0.53 0.52 0.56 0.57 0.54 0.47 0.48 0.47 0.25 0.14 0.18 0.24 0.30 0.30 0.29 0.28 0.26 0.29 0.31 0.37 0.44 0.49 0.52 0.57 0.64 0.73 0.84 1.10 1.54 2.19 2.81 3.07 3.08 3.13
0.54 0.58 0.62 0.67 0.68 0.69 0.74 0.72 0.69 0.65 0.57 0.54 0.42 0.30 0.28 0.30 0.37 0.38 0.34 0.32 0.35 0.35 0.34 0.34 0.40 0.46 0.49 0.49 0.48 0.53 0.67 0.93 1.27 1.67 2.22 2.64 2.76 2.78
0.56 0.60 0.64 0.73 0.88 1.04 1.14 1.06 0.92 0.90 0.82 0.76 0.63 0.48 0.41 0.44 0.51 0.48 0.48 0.39 0.41 0.45 0.42 0.35 0.33 0.32 0.37 0.44 0.49 0.51 0.56 0.70 0.94 1.29 1.73 2.21 2.52 2.58
0.52 0.49 0.51 0.58 0.69 0.82 1.00 1.01 0.97 1.08 1.12 1.03 0.89 0.75 0.57 0.51 0.59 0.68 0.71 0.69 0.59 0.49 0.49 0.47 0.41 0.40 0.38 0.37 0.47 0.51 0.59 0.69 0.82 1.02 1.37 1.75 2.14 2.45
0.37 0.38 0.38 0.41 0.49 0.50 0.60 0.64 0.70 0.80 0.97 1.10 1.13 0.92 0.74 0.65 0.78 0.91 0.93 0.91 0.72 0.61 0.69 0.75 0.63 0.56 0.50 0.50 0.56 0.54 0.60 0.68 0.80 0.91 1.06 1.36 1.74 2.14
0.31 0.34 0.35 0.37 0.42 0.53 0.59 0.53 0.48 0.50 0.67 0.87 1.07 1.00 0.90 0.91 1.08 1.27 1.33 1.31 1.08 0.85 0.82 0.97 0.85 0.76 0.69 0.64 0.61 0.55 0.55 0.58 0.65 0.78 0.95 1.14 1.38 1.72
0.27 0.34 0.37 0.34 0.41 0.57 0.64 0.57 0.44 0.41 0.45 0.66 0.89 1.01 1.07 1.20 1.40 1.64 1.72 1.74 1.60 1.29 1.07 1.08 1.01 0.92 0.88 0.85 0.76 0.66 0.59 0.54 0.54 0.63 0.79 0.99 1.21 1.48
0.21 0.29 0.44 0.47 0.48 0.54 0.59 0.60 0.57 0.45 0.37 0.37 0.42 0.53 0.67 0.80 1.06 1.36 1.52 1.64 1.64 1.59 1.33 1.22 1.20 1.14 1.20 1.01 0.81 0.68 0.60 0.58 0.54 0.53 0.61 0.78 1.01 1.22
0.29 0.32 0.39 0.45 0.45 0.48 0.54 0.57 0.62 0.55 0.46 0.45 0.42 0.38 0.44 0.57 0.75 1.04 1.29 1.46 1.57 1.56 1.33 1.34 1.43 1.31 1.26 1.11 0.88 0.74 0.63 0.54 0.47 0.48 0.52 0.63 0.83 1.02
0.34 0.28 0.32 0.38 0.40 0.44 0.44 0.47 0.49 0.51 0.49 0.44 0.37 0.32 0.34 0.45 0.57 0.75 1.02 1.17 1.24 1.28 1.18 1.30 1.50 1.31 1.22 1.07 0.93 0.85 0.74 0.65 0.53 0.44 0.42 0.57 0.73 0.90
0.38 0.43 0.38 0.34 0.32 0.27 0.26 0.32 0.35 0.36 0.43 0.40 0.32 0.25 0.27 0.36 0.44 0.55 0.73 0.94 1.03 1.05 1.09 1.14 1.31 1.30 1.28 1.15 0.89 0.80 0.82 0.83 0.69 0.56 0.49 0.46 0.51 0.65
0.34 0.39 0.38 0.28 0.20 0.16 0.14 0.17 0.21 0.27 0.34 0.35 0.27 0.21 0.21 0.28 0.38 0.49 0.65 0.83 1.00 1.02 1.03 1.10 1.27 1.48 1.48 1.14 0.97 0.87 0.77 0.86 0.80 0.67 0.56 0.50 0.48 0.50
0.50 0.46 0.39 0.30 0.24 0.19 0.14 0.12 0.14 0.20 0.27 0.28 0.27 0.26 0.26 0.29 0.33 0.41 0.59 0.75 0.92 0.93 0.99 1.14 1.29 1.44 1.58 1.50 1.32 1.03 0.83 0.75 0.75 0.72 0.65 0.59 0.58 0.56
0.50 0.47 0.33 0.25 0.22 0.20 0.19 0.16 0.15 0.16 0.19 0.25 0.28 0.28 0.29 0.31 0.33 0.37 0.50 0.67 0.78 0.79 0.88 1.05 1.26 1.47 1.68 1.84 1.62 1.23 0.95 0.83 0.80 0.79 0.71 0.65 0.66 0.67
0.37 0.29 0.21 0.19 0.19 0.18 0.18 0.18 0.16 0.13 0.16 0.22 0.25 0.25 0.27 0.30 0.34 0.38 0.44 0.55 0.65 0.70 0.80 0.95 1.16 1.37 1.46 1.55 1.68 1.42 1.12 0.95 0.89 0.92 0.86 0.70 0.64 0.65
0.22 0.20 0.19 0.17 0.18 0.18 0.17 0.17 0.16 0.15 0.18 0.20 0.22 0.23 0.26 0.31 0.33 0.34 0.38 0.49 0.57 0.64 0.73 0.85 1.05 1.24 1.33 1.24 1.31 1.40 1.36 1.12 0.96 0.96 0.97 0.87 0.78 0.82
0.16 0.17 0.17 0.18 0.18 0.18 0.17 0.17 0.18 0.18 0.16 0.18 0.19 0.21 0.23 0.30 0.32 0.29 0.33 0.40 0.53 0.62 0.67 0.70 0.84 1.04 1.29 1.36 1.30 1.22 1.31 1.39 1.17 1.00 0.97 0.98 0.99 0.99
0.16 0.17 0.16 0.17 0.19 0.19 0.18 0.19 0.19 0.17 0.16 0.18 0.18 0.19 0.21 0.27 0.30 0.29 0.34 0.41 0.47 0.53 0.59 0.63 0.72 0.95 1.29 1.45 1.36 1.21 1.23 1.38 1.51 1.35 1.12 0.97 0.97 1.00
0.21 0.21 0.20 0.19 0.19 0.20 0.21 0.21 0.20 0.18 0.16 0.18 0.19 0.19 0.21 0.25 0.25 0.29 0.33 0.37 0.43 0.48 0.55 0.64 0.71 0.88 1.14 1.31 1.38 1.32 1.23 1.23 1.31 1.39 1.46 1.25 0.96 0.85

GEFSNE_prec_meanprecacc_156.txt.gz
Total_Precipitation_Accumulation
0.25 0.27 0.30 0.29 0.28 0.28 0.31 0.42 0.59 0.42 0.11 0.03 0.05 0.08 0.12 0.15 0.21 0.27 0.27 0.32 0.37 0.43 0.51 0.58 0.61 0.64 0.77 1.11 1.83 2.68 3.31 3.40 3.07 2.58 2.31 2.45 2.73 3.16
0.28 0.32 0.35 0.34 0.33 0.32 0.33 0.36 0.48 0.59 0.36 0.07 0.06 0.09 0.14 0.16 0.21 0.25 0.24 0.30 0.34 0.39 0.41 0.45 0.53 0.62 0.70 0.84 1.13 1.80 2.57 3.18 3.39 3.26 2.99 2.89 3.02 3.33
0.34 0.38 0.37 0.37 0.41 0.40 0.40 0.41 0.41 0.50 0.50 0.14 0.06 0.09 0.16 0.23 0.22 0.23 0.23 0.24 0.28 0.34 0.38 0.39 0.44 0.52 0.61 0.71 0.85 1.21 1.87 2.54 3.13 3.48 3.60 3.46 3.39 3.39
0.44 0.44 0.44 0.44 0.45 0.46 0.51 0.50 0.45 0.44 0.51 0.33 0.10 0.09 0.14 0.23 0.27 0.26 0.24 0.23 0.23 0.29 0.35 0.40 0.43 0.48 0.55 0.63 0.73 0.87 1.25 1.81 2.41 2.95 3.32 3.37 3.34 3.52
0.50 0.55 0.55 0.55 0.54 0.53 0.57 0.59 0.55 0.48 0.49 0.47 0.25 0.14 0.18 0.24 0.30 0.30 0.29 0.28 0.27 0.30 0.32 0.38 0.45 0.49 0.53 0.58 0.65 0.74 0.85 1.12 1.56 2.22 2.84 3.11 3.12 3.17
0.54 0.59 0.63 0.68 0.69 0.70 0.75 0.73 0.69 0.65 0.57 0.54 0.42 0.30 0.28 0.30 0.37 0.39 0.34 0.32 0.36 0.35 0.35 0.34 0.40 0.46 0.50 0.49 0.49 0.54 0.68 0.95 1.28 1.70 2.25 2.67 2.79 2.81
0.57 0.61 0.64 0.74 0.89 1.04 1.15 1.07 0.92 0.90 0.83 0.77 0.63 0.48 0.41 0.44 0.52 0.48 0.49 0.40 0.41 0.46 0.42 0.35 0.33 0.32 0.37 0.45 0.50 0.52 0.57 0.71 0.96 1.31 1.76 2.24 2.55 2.61
0.52 0.50 0.51 0.58 0.69 0.82 1.00 1.02 0.98 1.08 1.13 1.03 0.89 0.76 0.58 0.52 0.60 0.69 0.73 0.70 0.60 0.49 0.50 0.47 0.42 0.41 0.38 0.38 0.48 0.52 0.60 0.71 0.83 1.04 1.39 1.77 2.17 2.48
0.37 0.38 0.38 0.42 0.49 0.50 0.60 0.65 0.70 0.81 0.98 1.11 1.15 0.94 0.76 0.67 0.79 0.93 0.94 0.93 0.73 0.61 0.70 0.75 0.63 0.56 0.50 0.50 0.57 0.55 0.60 0.69 0.81 0.93 1.08 1.38 1.75 2.15
0.31 0.34 0.35 0.37 0.43 0.54 0.59 0.53 0.48 0.50 0.68 0.88 1.08 1.01 0.91 0.92 1.09 1.29 1.34 1.32 1.08 0.85 0.83 0.98 0.85 0.77 0.70 0.64 0.61 0.55 0.56 0.59 0.65 0.80 0.97 1.16 1.39 1.73
0.27 0.34 0.38 0.35 0.42 0.58 0.64 0.58 0.44 0.41 0.46 0.67 0.90 1.02 1.08 1.21 1.40 1.65 1.73 1.75 1.61 1.29 1.08 1.09 1.01 0.92 0.89 0.85 0.76 0.67 0.59 0.55 0.54 0.64 0.81 1.00 1.23 1.49
0.22 0.30 0.44 0.48 0.48 0.55 0.59 0.60 0.58 0.45 0.37 0.38 0.43 0.54 0.68 0.80 1.07 1.37 1.54 1.66 1.65 1.61 1.33 1.23 1.21 1.15 1.22 1.02 0.82 0.68 0.60 0.59 0.54 0.54 0.62 0.79 1.03 1.23
0.29 0.32 0.39 0.45 0.45 0.48 0.54 0.57 0.62 0.55 0.47 0.46 0.42 0.39 0.44 0.57 0.76 1.04 1.30 1.48 1.59 1.58 1.35 1.37 1.46 1.33 1.28 1.13 0.89 0.74 0.63 0.55 0.47 0.48 0.52 0.63 0.84 1.03
0.35 0.28 0.32 0.38 0.40 0.44 0.44 0.47 0.50 0.51 0.50 0.44 0.38 0.33 0.34 0.46 0.57 0.76 1.03 1.18 1.26 1.30 1.19 1.32 1.53 1.33 1.25 1.09 0.93 0.85 0.74 0.66 0.53 0.45 0.42 0.57 0.73 0.91
0.38 0.43 0.38 0.34 0.32 0.27 0.26 0.32 0.35 0.36 0.43 0.40 0.32 0.26 0.27 0.36 0.45 0.56 0.73 0.94 1.04 1.06 1.10 1.15 1.33 1.32 1.31 1.18 0.90 0.81 0.83 0.83 0.69 0.57 0.49 0.46 0.51 0.65
0.34 0.39 0.38 0.28 0.21 0.16 0.15 0.17 0.21 0.28 0.35 0.36 0.27 0.21 0.21 0.29 0.39 0.50 0.65 0.83 1.01 1.02 1.03 1.10 1.28 1.49 1.49 1.15 0.98 0.88 0.78 0.86 0.81 0.67 0.56 0.50 0.48 0.51
0.50 0.46 0.39 0.30 0.25 0.19 0.15 0.13 0.14 0.21 0.28 0.29 0.28 0.27 0.27 0.30 0.34 0.42 0.59 0.76 0.93 0.94 1.00 1.15 1.30 1.44 1.59 1.51 1.33 1.04 0.83 0.75 0.75 0.73 0.66 0.60 0.58 0.56
0.51 0.47 0.33 0.25 0.22 0.20 0.19 0.17 0.15 0.17 0.20 0.25 0.28 0.28 0.29 0.31 0.34 0.38 0.51 0.67 0.79 0.80 0.89 1.06 1.27 1.48 1.69 1.84 1.62 1.23 0.96 0.83 0.80 0.79 0.72 0.66 0.66 0.67
0.38 0.29 0.21 0.19 0.19 0.18 0.18 0.18 0.16 0.13 0.16 0.23 0.26 0.26 0.27 0.30 0.34 0.38 0.45 0.56 0.66 0.72 0.81 0.96 1.17 1.39 1.48 1.57 1.69 1.43 1.13 0.96 0.90 0.92 0.87 0.71 0.65 0.66
0.22 0.20 0.19 0.18 0.18 0.18 0.17 0.17 0.16 0.15 0.18 0.21 0.22 0.23 0.27 0.32 0.35 0.35 0.39 0.50 0.59 0.66 0.74 0.86 1.06 1.27 1.37 1.27 1.34 1.40 1.36 1.14 0.98 0.98 0.97 0.87 0.79 0.82
0.17 0.17 0.17 0.19 0.19 0.18 0.17 0.17 0.18 0.18 0.17 0.19 0.20 0.21 0.24 0.31 0.33 0.30 0.34 0.41 0.55 0.64 0.68 0.72 0.85 1.06 1.31 1.38 1.32 1.23 1.31 1.40 1.19 1.02 0.99 1.00 1.00 0.99
0.16 0.17 0.17 0.17 0.19 0.19 0.19 0.19 0.19 0.17 0.17 0.18 0.19 0.19 0.22 0.28 0.31 0.31 0.35 0.43 0.49 0.55 0.61 0.64 0.73 0.96 1.30 1.47 1.38 1.22 1.23 1.39 1.51 1.36 1.14 1.00 1.01 1.04
0.21 0.21 0.20 0.19 0.19 0.20 0.21 0.21 0.21 0.18 0.16 0.18 0.19 0.20 0.22 0.27 0.27 0.31 0.34 0.38 0.45 0.49 0.56 0.65 0.72 0.89 1.15 1.32 1.39 1.33 1.24 1.24 1.31 1.39 1.47 1.26 0.97 0.88

GEFSNE_prec_meanprecacc_162.txt.gz
Total_Precipitation_Accumulation
0.25 0.27 0.30 0.29 0.28 0.28 0.32 0.43 0.59 0.43 0.12 0.03 0.05 0.08 0.12 0.15 0.22 0.27 0.27 0.32 0.37 0.43 0.51 0.59 0.61 0.64 0.78 1.12 1.84 2.70 3.33 3.42 3.10 2.60 2.34 2.48 2.77 3.20
0.28 0.32 0.35 0.34 0.33 0.32 0.34 0.36 0.48 0.59 0.37 0.07 0.06 0.09 0.14 0.16 0.22 0.25 0.24 0.30 0.34 0.39 0.41 0.45 0.54 0.63 0.71 0.85 1.15 1.82 2.59 3.20 3.42 3.29 3.02 2.92 3.06 3.38
0.34 0.38 0.37 0.37 0.41 0.41 0.41 0.41 0.41 0.50 0.51 0.15 0.06 0.09 0.17 0.23 0.22 0.23 0.23 0.24 0.28 0.34 0.38 0.40 0.44 0.52 0.62 0.72 0.86 1.22 1.90 2.56 3.15 3.50 3.62 3.50 3.43 3.44
0.44 0.44 0.44 0.44 0.45 0.46 0.51 0.51 0.46 0.45 0.52 0.33 0.11 0.09 0.15 0.23 0.27 0.26 0.24 0.23 0.24 0.29 0.35 0.40 0.44 0.49 0.56 0.64 0.75 0.88 1.26 1.82 2.43 2.97 3.34 3.40 3.38 3.56
0.50 0.55 0.55 0.55 0.55 0.54 0.58 0.59 0.55 0.48 0.49 0.48 0.25 0.15 0.18 0.24 0.30 0.31 0.29 0.28 0.27 0.30 0.32 0.38 0.45 0.50 0.53 0.58 0.67 0.76 0.86 1.13 1.58 2.24 2.87 3.14 3.15 3.20
0.54 0.59 0.63 0.69 0.70 0.71 0.76 0.74 0.70 0.66 0.58 0.55 0.42 0.30 0.29 0.30 0.38 0.39 0.35 0.33 0.36 0.36 0.35 0.35 0.40 0.47 0.50 0.50 0.49 0.55 0.69 0.96 1.30 1.72 2.28 2.70 2.82 2.84
0.57 0.61 0.65 0.75 0.90 1.06 1.16 1.07 0.93 0.91 0.83 0.77 0.64 0.49 0.42 0.44 0.52 0.49 0.49 0.40 0.42 0.46 0.43 0.35 0.33 0.33 0.37 0.45 0.50 0.53 0.58 0.73 0.98 1.33 1.78 2.26 2.57 2.63
0.53 0.50 0.52 0.59 0.71 0.83 1.01 1.02 0.98 1.09 1.14 1.04 0.90 0.77 0.58 0.52 0.61 0.70 0.74 0.71 0.61 0.49 0.50 0.47 0.42 0.41 0.39 0.39 0.48 0.53 0.61 0.72 0.85 1.06 1.42 1.80 2.20 2.51
0.38 0.38 0.39 0.42 0.50 0.51 0.61 0.65 0.71 0.82 0.99 1.12 1.16 0.94 0.77 0.68 0.81 0.94 0.95 0.94 0.73 0.61 0.70 0.75 0.63 0.56 0.50 0.51 0.57 0.55 0.61 0.70 0.82 0.95 1.11 1.41 1.79 2.19
0.32 0.35 0.35 0.37 0.43 0.55 0.60 0.55 0.49 0.51 0.68 0.89 1.08 1.01 0.91 0.93 1.10 1.30 1.35 1.32 1.08 0.85 0.83 0.98 0.85 0.77 0.70 0.64 0.61 0.55 0.56 0.59 0.66 0.81 0.99 1.19 1.42 1.76
0.27 0.35 0.38 0.35 0.42 0.59 0.65 0.58 0.45 0.41 0.46 0.67 0.90 1.03 1.09 1.21 1.41 1.65 1.73 1.76 1.62 1.29 1.08 1.10 1.01 0.92 0.89 0.85 0.76 0.67 0.59 0.55 0.55 0.65 0.82 1.02 1.25 1.51
0.23 0.30 0.45 0.48 0.49 0.55 0.59 0.60 0.58 0.45 0.37 0.38 0.43 0.54 0.68 0.80 1.08 1.38 1.54 1.67 1.66 1.61 1.34 1.23 1.22 1.16 1.23 1.02 0.82 0.68 0.60 0.59 0.54 0.54 0.62 0.80 1.04 1.24
0.30 0.33 0.39 0.46 0.45 0.48 0.54 0.57 0.62 0.55 0.47 0.46 0.42 0.39 0.44 0.57 0.76 1.05 1.31 1.49 1.60 1.59 1.35 1.38 1.47 1.35 1.30 1.14 0.89 0.74 0.63 0.55 0.47 0.48 0.53 0.64 0.85 1.04
0.36 0.28 0.33 0.39 0.40 0.44 0.44 0.47 0.50 0.51 0.50 0.44 0.38 0.33 0.35 0.46 0.57 0.76 1.03 1.18 1.27 1.31 1.20 1.33 1.55 1.35 1.27 1.11 0.94 0.85 0.74 0.66 0.53 0.45 0.42 0.58 0.74 0.91
0.39 0.44 0.39 0.35 0.32 0.27 0.26 0.32 0.35 0.36 0.43 0.40 0.32 0.26 0.27 0.37 0.45 0.56 0.74 0.95 1.04 1.07 1.10 1.16 1.34 1.33 1.32 1.19 0.91 0.81 0.83 0.83 0.70 0.57 0.49 0.47 0.52 0.66
0.35 0.39 0.38 0.28 0.21 0.16 0.15 0.18 0.21 0.28 0.35 0.36 0.27 0.21 0.22 0.29 0.40 0.51 0.67 0.85 1.02 1.04 1.04 1.11 1.29 1.50 1.51 1.17 0.99 0.89 0.79 0.87 0.82 0.68 0.58 0.51 0.48 0.51
0.51 0.47 0.39 0.30 0.25 0.19 0.15 0.13 0.15 0.21 0.28 0.29 0.28 0.27 0.27 0.30 0.35 0.43 0.61 0.77 0.94 0.95 1.01 1.16 1.31 1.46 1.60 1.52 1.34 1.04 0.84 0.76 0.76 0.74 0.67 0.61 0.58 0.57
0.52 0.49 0.34 0.26 0.22 0.20 0.19 0.17 0.15 0.17 0.20 0.25 0.28 0.29 0.30 0.31 0.34 0.38 0.51 0.68 0.79 0.81 0.90 1.06 1.28 1.49 1.70 1.85 1.63 1.24 0.97 0.85 0.82 0.80 0.73 0.67 0.67 0.67
0.38 0.30 0.21 0.19 0.19 0.19 0.18 0.18 0.16 0.13 0.16 0.23 0.26 0.26 0.28 0.31 0.35 0.39 0.46 0.57 0.67 0.73 0.82 0.97 1.18 1.41 1.50 1.58 1.70 1.44 1.15 0.98 0.91 0.93 0.87 0.72 0.66 0.67
0.22 0.20 0.19 0.18 0.18 0.18 0.17 0.17 0.16 0.15 0.18 0.21 0.22 0.24 0.27 0.33 0.35 0.36 0.40 0.52 0.60 0.67 0.75 0.87 1.07 1.29 1.40 1.31 1.36 1.41 1.37 1.15 0.99 0.99 0.98 0.87 0.79 0.82
0.17 0.17 0.17 0.19 0.19 0.18 0.17 0.17 0.18 0.18 0.17 0.19 0.20 0.22 0.25 0.32 0.33 0.31 0.35 0.42 0.56 0.65 0.69 0.72 0.86 1.07 1.33 1.39 1.33 1.23 1.32 1.40 1.20 1.05 1.01 1.01 1.01 1.00
0.17 0.18 0.17 0.17 0.19 0.19 0.19 0.19 0.19 0.18 0.17 0.19 0.19 0.20 0.22 0.29 0.32 0.32 0.37 0.44 0.50 0.56 0.62 0.65 0.73 0.96 1.31 1.48 1.39 1.23 1.23 1.39 1.51 1.36 1.15 1.03 1.06 1.08
0.21 0.21 0.20 0.19 0.19 0.20 0.21 0.21 0.21 0.18 0.16 0.18 0.20 0.20 0.23 0.28 0.28 0.32 0.35 0.39 0.45 0.50 0.57 0.65 0.72 0.89 1.15 1.33 1.40 1.33 1.24 1.24 1.32 1.39 1.48 1.27 0.99 0.90

GEFSNE_prec_meanprecacc_168.txt.gz
Total_Precipitation_Accumulation
0.25 0.27 0.30 0.29 0.28 0.28 0.32 0.43 0.60 0.44 0.12 0.03 0.05 0.08 0.12 0.15 0.22 0.27 0.27 0.32 0.38 0.43 0.51 0.59 0.62 0.65 0.79 1.13 1.85 2.71 3.35 3.44 3.12 2.63 2.37 2.52 2.82 3.26
0.29 0.33 0.35 0.35 0.33 0.33 0.34 0.36 0.48 0.60 0.38 0.08 0.07 0.10 0.14 0.16 0.22 0.25 0.25 0.30 0.34 0.39 0.41 0.45 0.54 0.63 0.72 0.86 1.16 1.83 2.61 3.22 3.44 3.32 3.05 2.96 3.10 3.42
0.34 0.38 0.37 0.38 0.42 0.41 0.41 0.41 0.42 0.51 0.52 0.15 0.07 0.09 0.17 0.23 0.23 0.23 0.24 0.24 0.28 0.34 0.38 0.40 0.45 0.53 0.63 0.73 0.87 1.24 1.91 2.58 3.17 3.53 3.65 3.53 3.47 3.48
0.45 0.45 0.44 0.44 0.46 0.47 0.52 0.51 0.47 0.45 0.53 0.34 0.11 0.10 0.15 0.24 0.27 0.26 0.25 0.23 0.24 0.29 0.35 0.40 0.44 0.49 0.56 0.65 0.76 0.90 1.28 1.84 2.44 3.00 3.37 3.43 3.41 3.60
0.51 0.55 0.56 0.56 0.56 0.55 0.59 0.60 0.57 0.49 0.50 0.49 0.27 0.16 0.19 0.25 0.30 0.31 0.29 0.28 0.27 0.30 0.32 0.38 0.45 0.50 0.53 0.59 0.67 0.77 0.87 1.15 1.60 2.26 2.90 3.17 3.18 3.23
0.55 0.59 0.64 0.69 0.71 0.72 0.77 0.75 0.72 0.68 0.60 0.56 0.44 0.31 0.29 0.30 0.38 0.39 0.35 0.33 0.36 0.36 0.35 0.35 0.40 0.47 0.50 0.50 0.50 0.56 0.70 0.97 1.32 1.74 2.31 2.73 2.84 2.86
0.58 0.62 0.66 0.75 0.91 1.06 1.17 1.09 0.95 0.93 0.85 0.78 0.65 0.49 0.42 0.45 0.52 0.49 0.49 0.40 0.42 0.46 0.43 0.35 0.33 0.33 0.37 0.45 0.51 0.53 0.59 0.74 0.99 1.35 1.81 2.29 2.60 2.66
0.54 0.51 0.53 0.60 0.71 0.84 1.02 1.03 0.99 1.10 1.15 1.05 0.92 0.78 0.59 0.53 0.62 0.71 0.74 0.72 0.61 0.49 0.50 0.47 0.42 0.41 0.39 0.39 0.49 0.54 0.62 0.73 0.86 1.08 1.44 1.83 2.22 2.55
0.39 0.39 0.39 0.43 0.51 0.51 0.62 0.67 0.72 0.82 1.00 1.13 1.17 0.95 0.77 0.69 0.82 0.95 0.96 0.94 0.74 0.62 0.70 0.75 0.63 0.56 0.50 0.51 0.57 0.55 0.62 0.71 0.83 0.96 1.12 1.43 1.81 2.21
0.33 0.36 0.36 0.38 0.44 0.56 0.61 0.55 0.49 0.52 0.69 0.90 1.09 1.02 0.92 0.93 1.11 1.30 1.35 1.33 1.09 0.85 0.83 0.98 0.85 0.77 0.70 0.64 0.61 0.55 0.56 0.60 0.67 0.82 1.00 1.20 1.44 1.78
0.31 0.37 0.39 0.36 0.43 0.59 0.66 0.59 0.46 0.42 0.47 0.68 0.91 1.03 1.09 1.22 1.41 1.65 1.73 1.76 1.62 1.29 1.08 1.10 1.01 0.92 0.89 0.85 0.76 0.67 0.59 0.55 0.55 0.65 0.83 1.03 1.26 1.52
0.27 0.33 0.47 0.50 0.50 0.56 0.60 0.61 0.59 0.46 0.38 0.39 0.44 0.55 0.68 0.81 1.08 1.38 1.54 1.67 1.67 1.61 1.34 1.24 1.22 1.16 1.23 1.02 0.82 0.68 0.60 0.59 0.54 0.54 0.63 0.80 1.05 1.25
0.33 0.36 0.42 0.48 0.47 0.49 0.55 0.58 0.63 0.55 0.47 0.46 0.43 0.40 0.45 0.58 0.76 1.05 1.31 1.49 1.61 1.60 1.36 1.39 1.49 1.35 1.31 1.14 0.89 0.74 0.63 0.55 0.48 0.48 0.53 0.64 0.86 1.06
0.37 0.30 0.34 0.41 0.42 0.46 0.46 0.48 0.51 0.52 0.51 0.45 0.39 0.33 0.35 0.46 0.57 0.76 1.03 1.19 1.27 1.32 1.21 1.34 1.57 1.36 1.29 1.12 0.94 0.85 0.74 0.66 0.54 0.45 0.43 0.58 0.74 0.92
0.40 0.45 0.40 0.37 0.35 0.30 0.29 0.35 0.38 0.38 0.44 0.41 0.33 0.26 0.27 0.37 0.45 0.56 0.74 0.95 1.04 1.07 1.11 1.17 1.35 1.34 1.34 1.21 0.93 0.82 0.84 0.84 0.70 0.57 0.50 0.47 0.52 0.67
0.36 0.40 0.39 0.30 0.23 0.19 0.17 0.21 0.25 0.30 0.36 0.36 0.28 0.22 0.22 0.30 0.40 0.51 0.67 0.85 1.03 1.04 1.05 1.11 1.29 1.51 1.52 1.18 1.00 0.90 0.79 0.88 0.82 0.68 0.58 0.51 0.49 0.52
0.51 0.48 0.40 0.31 0.27 0.22 0.17 0.15 0.16 0.22 0.29 0.30 0.28 0.28 0.28 0.30 0.35 0.43 0.61 0.77 0.95 0.95 1.01 1.16 1.31 1.46 1.61 1.53 1.34 1.05 0.85 0.77 0.77 0.75 0.68 0.61 0.59 0.58
0.53 0.49 0.35 0.27 0.23 0.22 0.21 0.19 0.16 0.18 0.20 0.26 0.29 0.29 0.30 0.32 0.34 0.38 0.51 0.68 0.80 0.81 0.90 1.07 1.29 1.50 1.71 1.86 1.63 1.25 0.98 0.85 0.82 0.81 0.74 0.68 0.67 0.68
0.39 0.30 0.22 0.20 0.20 0.20 0.20 0.19 0.17 0.14 0.17 0.23 0.27 0.27 0.28 0.31 0.35 0.39 0.46 0.58 0.68 0.73 0.82 0.98 1.19 1.42 1.52 1.59 1.70 1.44 1.16 0.99 0.91 0.93 0.87 0.73 0.67 0.68
0.23 0.21 0.20 0.19 0.19 0.20 0.18 0.18 0.17 0.16 0.19 0.21 0.23 0.24 0.27 0.33 0.36 0.36 0.41 0.52 0.61 0.67 0.75 0.87 1.07 1.30 1.43 1.33 1.37 1.41 1.37 1.16 1.00 0.99 0.98 0.88 0.79 0.83
0.18 0.18 0.18 0.20 0.20 0.18 0.18 0.18 0.19 0.19 0.17 0.19 0.20 0.22 0.25 0.32 0.34 0.31 0.35 0.43 0.56 0.66 0.70 0.73 0.87 1.08 1.34 1.40 1.34 1.23 1.32 1.41 1.21 1.06 1.02 1.02 1.02 1.01
0.18 0.19 0.18 0.18 0.20 0.20 0.19 0.19 0.20 0.18 0.17 0.19 0.19 0.20 0.23 0.29 0.33 0.32 0.37 0.44 0.50 0.57 0.63 0.65 0.74 0.97 1.31 1.49 1.40 1.23 1.23 1.39 1.51 1.37 1.16 1.05 1.09 1.12
0.22 0.22 0.21 0.20 0.20 0.21 0.22 0.22 0.21 0.19 0.17 0.19 0.20 0.20 0.23 0.28 0.28 0.32 0.35 0.39 0.46 0.51 0.58 0.66 0.73 0.90 1.16 1.34 1.41 1.34 1.24 1.24 1.32 1.40 1.48 1.27 1.00 0.92

GEFSNE_prec_meanprecacc_174.txt.gz
Total_Precipitation_Accumulation
0.25 0.27 0.30 0.29 0.28 0.28 0.32 0.43 0.60 0.44 0.12 0.03 0.05 0.08 0.12 0.16 0.22 0.27 0.27 0.32 0.38 0.43 0.51 0.59 0.62 0.65 0.79 1.13 1.86 2.72 3.36 3.46 3.14 2.65 2.40 2.57 2.88 3.32
0.29 0.33 0.35 0.35 0.33 0.33 0.34 0.36 0.49 0.61 0.38 0.08 0.07 0.10 0.14 0.16 0.22 0.26 0.25 0.30 0.35 0.39 0.41 0.45 0.54 0.63 0.72 0.86 1.16 1.85 2.62 3.24 3.46 3.34 3.08 3.00 3.16 3.47
0.35 0.39 0.38 0.38 0.42 0.41 0.41 0.41 0.42 0.51 0.53 0.16 0.07 0.10 0.18 0.24 0.24 0.24 0.24 0.25 0.28 0.34 0.39 0.40 0.45 0.53 0.63 0.73 0.88 1.25 1.93 2.59 3.19 3.54 3.68 3.58 3.52 3.52
0.45 0.46 0.45 0.45 0.46 0.47 0.52 0.52 0.48 0.47 0.54 0.35 0.12 0.11 0.17 0.25 0.28 0.26 0.25 0.23 0.24 0.29 0.35 0.41 0.44 0.49 0.57 0.66 0.76 0.91 1.28 1.84 2.46 3.01 3.39 3.47 3.45 3.63
0.51 0.56 0.57 0.57 0.57 0.56 0.59 0.61 0.58 0.51 0.51 0.50 0.28 0.17 0.19 0.25 0.31 0.31 0.29 0.29 0.27 0.30 0.32 0.38 0.45 0.50 0.53 0.59 0.68 0.77 0.88 1.15 1.61 2.27 2.92 3.19 3.21 3.26
0.55 0.60 0.65 0.70 0.72 0.73 0.77 0.76 0.73 0.69 0.61 0.57 0.45 0.32 0.30 0.31 0.38 0.39 0.35 0.33 0.36 0.36 0.35 0.35 0.40 0.47 0.50 0.50 0.50 0.56 0.71 0.98 1.33 1.75 2.32 2.75 2.86 2.88
0.58 0.62 0.66 0.76 0.92 1.07 1.18 1.10 0.96 0.93 0.86 0.79 0.66 0.50 0.43 0.45 0.53 0.49 0.50 0.41 0.42 0.46 0.43 0.36 0.33 0.33 0.37 0.45 0.51 0.54 0.60 0.75 1.00 1.36 1.82 2.31 2.62 2.68
0.54 0.51 0.53 0.61 0.72 0.85 1.02 1.04 1.00 1.11 1.16 1.07 0.93 0.79 0.60 0.54 0.62 0.71 0.74 0.72 0.61 0.50 0.50 0.47 0.42 0.41 0.39 0.39 0.49 0.54 0.62 0.74 0.87 1.09 1.45 1.84 2.24 2.57
0.39 0.39 0.40 0.43 0.51 0.52 0.63 0.68 0.74 0.84 1.01 1.14 1.17 0.96 0.78 0.69 0.82 0.95 0.96 0.94 0.74 0.62 0.70 0.75 0.63 0.56 0.51 0.51 0.57 0.55 0.62 0.71 0.83 0.96 1.13 1.44 1.83 2.23
0.33 0.36 0.36 0.38 0.44 0.56 0.62 0.56 0.50 0.52 0.70 0.90 1.09 1.02 0.92 0.93 1.11 1.30 1.35 1.33 1.09 0.85 0.83 0.98 0.85 0.77 0.70 0.64 0.61 0.55 0.56 0.60 0.67 0.82 1.01 1.21 1.46 1.80
0.32 0.38 0.40 0.36 0.44 0.60 0.66 0.59 0.46 0.42 0.47 0.69 0.91 1.04 1.10 1.22 1.42 1.65 1.73 1.76 1.62 1.29 1.08 1.10 1.01 0.92 0.89 0.85 0.76 0.67 0.59 0.55 0.55 0.65 0.83 1.04 1.28 1.54
0.28 0.34 0.48 0.50 0.51 0.56 0.60 0.61 0.59 0.46 0.38 0.39 0.44 0.55 0.69 0.81 1.08 1.38 1.55 1.68 1.67 1.62 1.34 1.24 1.22 1.16 1.23 1.02 0.82 0.68 0.60 0.59 0.54 0.54 0.63 0.81 1.06 1.26
0.33 0.36 0.42 0.49 0.47 0.49 0.55 0.58 0.63 0.56 0.47 0.47 0.44 0.41 0.45 0.58 0.76 1.05 1.31 1.50 1.62 1.60 1.36 1.39 1.49 1.36 1.31 1.14 0.89 0.74 0.63 0.55 0.48 0.48 0.53 0.64 0.86 1.06
0.38 0.30 0.35 0.42 0.43 0.47 0.46 0.49 0.51 0.53 0.51 0.46 0.40 0.34 0.35 0.46 0.58 0.77 1.03 1.19 1.28 1.32 1.21 1.34 1.58 1.37 1.30 1.13 0.94 0.85 0.74 0.66 0.54 0.45 0.43 0.58 0.74 0.93
0.40 0.46 0.41 0.38 0.35 0.30 0.29 0.35 0.38 0.38 0.45 0.42 0.33 0.27 0.28 0.37 0.45 0.57 0.74 0.95 1.05 1.08 1.11 1.17 1.35 1.35 1.35 1.23 0.93 0.82 0.84 0.84 0.70 0.58 0.51 0.48 0.53 0.67
0.36 0.41 0.40 0.30 0.24 0.20 0.18 0.21 0.25 0.31 0.37 0.37 0.29 0.23 0.23 0.30 0.41 0.52 0.68 0.86 1.03 1.04 1.05 1.12 1.30 1.53 1.53 1.18 1.01 0.90 0.79 0.88 0.82 0.69 0.58 0.52 0.50 0.52
0.52 0.49 0.41 0.32 0.28 0.23 0.18 0.15 0.17 0.23 0.30 0.30 0.29 0.29 0.29 0.31 0.36 0.43 0.62 0.78 0.96 0.96 1.02 1.17 1.33 1.48 1.61 1.53 1.35 1.05 0.85 0.77 0.77 0.75 0.68 0.62 0.59 0.58
0.54 0.50 0.36 0.27 0.24 0.22 0.21 0.19 0.17 0.18 0.21 0.26 0.30 0.30 0.31 0.32 0.35 0.39 0.52 0.69 0.81 0.82 0.91 1.08 1.30 1.51 1.72 1.86 1.63 1.25 0.98 0.86 0.83 0.81 0.74 0.68 0.68 0.68
0.40 0.31 0.23 0.21 0.21 0.20 0.20 0.20 0.18 0.15 0.18 0.24 0.27 0.28 0.29 0.32 0.36 0.40 0.46 0.58 0.69 0.74 0.84 0.99 1.20 1.44 1.53 1.59 1.70 1.44 1.16 0.99 0.92 0.94 0.88 0.73 0.68 0.68
0.24 0.22 0.21 0.19 0.20 0.21 0.20 0.19 0.18 0.18 0.20 0.22 0.24 0.25 0.28 0.34 0.36 0.37 0.42 0.53 0.62 0.69 0.76 0.89 1.09 1.31 1.44 1.34 1.38 1.42 1.38 1.16 1.01 1.00 0.99 0.88 0.80 0.83
0.19 0.19 0.19 0.21 0.21 0.20 0.19 0.20 0.20 0.21 0.19 0.20 0.21 0.23 0.26 0.33 0.35 0.32 0.36 0.44 0.58 0.67 0.71 0.74 0.88 1.09 1.35 1.41 1.34 1.24 1.32 1.41 1.21 1.07 1.03 1.03 1.02 1.01
0.19 0.20 0.19 0.20 0.21 0.21 0.21 0.21 0.22 0.20 0.18 0.20 0.20 0.21 0.24 0.30 0.34 0.33 0.38 0.46 0.52 0.58 0.64 0.66 0.74 0.97 1.32 1.50 1.41 1.24 1.24 1.39 1.52 1.37 1.16 1.05 1.11 1.15
0.23 0.24 0.22 0.22 0.22 0.22 0.23 0.23 0.22 0.20 0.18 0.20 0.21 0.22 0.24 0.29 0.30 0.34 0.37 0.41 0.48 0.52 0.59 0.67 0.73 0.90 1.16 1.34 1.42 1.34 1.25 1.25 1.32 1.40 1.49 1.28 1.00 0.93

GEFSNE_prec_meanprecacc_180.txt.gz
Total_Precipitation_Accumulation
0.25 0.27 0.30 0.29 0.28 0.28 0.32 0.44 0.61 0.45 0.12 0.03 0.05 0.08 0.12 0.16 0.22 0.27 0.27 0.32 0.38 0.43 0.51 0.59 0.62 0.65 0.80 1.14 1.86 2.73 3.38 3.47 3.15 2.67 2.42 2.60 2.93 3.37
0.29 0.33 0.35 0.35 0.33 0.33 0.34 0.36 0.49 0.61 0.39 0.08 0.07 0.10 0.14 0.16 0.22 0.26 0.25 0.31 0.35 0.39 0.41 0.45 0.54 0.63 0.72 0.87 1.17 1.85 2.63 3.25 3.47 3.35 3.10 3.03 3.20 3.51
0.35 0.39 0.38 0.38 0.42 0.41 0.41 0.42 0.42 0.52 0.53 0.16 0.07 0.10 0.18 0.25 0.24 0.24 0.24 0.25 0.28 0.35 0.39 0.40 0.45 0.53 0.63 0.73 0.89 1.26 1.93 2.60 3.20 3.55 3.69 3.60 3.54 3.55
0.46 0.46 0.45 0.45 0.46 0.48 0.53 0.52 0.48 0.47 0.54 0.36 0.13 0.11 0.17 0.25 0.28 0.27 0.25 0.23 0.24 0.30 0.35 0.41 0.44 0.49 0.57 0.66 0.77 0.91 1.29 1.85 2.46 3.02 3.40 3.48 3.47 3.65
0.52 0.56 0.57 0.57 0.57 0.56 0.60 0.62 0.58 0.51 0.52 0.51 0.29 0.18 0.20 0.26 0.32 0.32 0.30 0.29 0.27 0.30 0.32 0.38 0.45 0.50 0.53 0.59 0.68 0.77 0.88 1.16 1.61 2.28 2.93 3.20 3.22 3.27
0.56 0.60 0.65 0.70 0.72 0.73 0.78 0.77 0.74 0.70 0.62 0.58 0.46 0.33 0.31 0.32 0.39 0.39 0.35 0.33 0.36 0.36 0.35 0.35 0.40 0.47 0.50 0.50 0.50 0.56 0.71 0.99 1.33 1.76 2.33 2.76 2.87 2.89
0.58 0.62 0.66 0.76 0.92 1.07 1.18 1.11 0.96 0.94 0.86 0.80 0.67 0.52 0.44 0.46 0.53 0.49 0.50 0.41 0.42 0.46 0.43 0.36 0.33 0.33 0.37 0.45 0.51 0.54 0.60 0.75 1.00 1.37 1.83 2.32 2.63 2.69
0.54 0.52 0.54 0.61 0.72 0.85 1.03 1.04 1.00 1.12 1.17 1.08 0.94 0.80 0.60 0.54 0.62 0.71 0.75 0.72 0.61 0.50 0.50 0.47 0.42 0.41 0.39 0.39 0.49 0.54 0.62 0.74 0.87 1.09 1.46 1.85 2.25 2.58
0.39 0.40 0.40 0.44 0.52 0.52 0.63 0.69 0.75 0.85 1.02 1.14 1.17 0.96 0.78 0.69 0.82 0.95 0.96 0.94 0.74 0.62 0.70 0.76 0.63 0.56 0.51 0.51 0.57 0.55 0.62 0.71 0.84 0.97 1.14 1.45 1.83 2.24
0.33 0.36 0.37 0.39 0.45 0.57 0.62 0.57 0.50 0.52 0.70 0.91 1.10 1.02 0.92 0.94 1.12 1.31 1.36 1.33 1.09 0.85 0.83 0.98 0.85 0.77 0.70 0.64 0.61 0.55 0.56 0.60 0.67 0.83 1.02 1.22 1.46 1.80
0.33 0.38 0.41 0.37 0.45 0.61 0.67 0.60 0.46 0.43 0.48 0.69 0.92 1.04 1.10 1.22 1.42 1.66 1.74 1.77 1.62 1.29 1.08 1.10 1.01 0.92 0.89 0.85 0.76 0.67 0.60 0.55 0.55 0.66 0.84 1.05 1.28 1.54
0.29 0.35 0.50 0.51 0.52 0.57 0.60 0.62 0.59 0.47 0.38 0.39 0.45 0.56 0.69 0.82 1.09 1.39 1.55 1.68 1.68 1.62 1.34 1.24 1.22 1.16 1.23 1.02 0.82 0.68 0.60 0.59 0.55 0.54 0.63 0.81 1.07 1.27
0.35 0.37 0.43 0.50 0.48 0.51 0.56 0.59 0.64 0.56 0.48 0.47 0.44 0.41 0.46 0.59 0.77 1.06 1.32 1.51 1.62 1.61 1.36 1.40 1.50 1.36 1.32 1.15 0.89 0.74 0.63 0.55 0.48 0.49 0.53 0.65 0.87 1.07
0.39 0.32 0.36 0.44 0.45 0.49 0.48 0.50 0.53 0.54 0.52 0.47 0.41 0.36 0.37 0.48 0.59 0.78 1.05 1.20 1.29 1.33 1.21 1.35 1.59 1.38 1.31 1.14 0.95 0.86 0.75 0.66 0.55 0.46 0.43 0.58 0.75 0.93
0.43 0.49 0.44 0.41 0.39 0.33 0.32 0.38 0.40 0.40 0.46 0.44 0.35 0.28 0.29 0.38 0.47 0.58 0.76 0.96 1.06 1.08 1.11 1.18 1.36 1.36 1.37 1.24 0.95 0.83 0.85 0.85 0.71 0.58 0.51 0.48 0.53 0.68
0.41 0.45 0.45 0.35 0.28 0.23 0.22 0.25 0.27 0.33 0.38 0.38 0.30 0.24 0.25 0.32 0.43 0.53 0.69 0.87 1.04 1.05 1.06 1.13 1.31 1.54 1.55 1.20 1.02 0.92 0.80 0.89 0.83 0.69 0.59 0.52 0.50 0.53
0.58 0.53 0.45 0.36 0.32 0.26 0.21 0.19 0.20 0.27 0.33 0.33 0.31 0.31 0.31 0.34 0.38 0.45 0.63 0.79 0.96 0.96 1.03 1.18 1.34 1.49 1.63 1.55 1.36 1.06 0.86 0.78 0.78 0.75 0.68 0.62 0.60 0.59
0.60 0.56 0.41 0.31 0.27 0.25 0.24 0.23 0.21 0.22 0.24 0.29 0.32 0.32 0.33 0.34 0.37 0.40 0.53 0.70 0.81 0.83 0.92 1.09 1.31 1.52 1.73 1.87 1.64 1.26 0.99 0.86 0.83 0.81 0.74 0.69 0.68 0.68
0.46 0.36 0.27 0.24 0.24 0.23 0.23 0.23 0.22 0.18 0.21 0.27 0.30 0.30 0.31 0.34 0.38 0.42 0.48 0.59 0.69 0.75 0.85 1.00 1.21 1.45 1.55 1.61 1.71 1.45 1.17 1.00 0.92 0.94 0.88 0.74 0.68 0.69
0.29 0.25 0.24 0.23 0.23 0.23 0.22 0.21 0.21 0.21 0.23 0.25 0.26 0.27 0.31 0.36 0.38 0.38 0.43 0.54 0.63 0.69 0.77 0.90 1.10 1.33 1.47 1.36 1.39 1.43 1.38 1.17 1.01 1.00 0.99 0.88 0.80 0.83
0.22 0.22 0.22 0.24 0.24 0.23 0.22 0.22 0.23 0.24 0.22 0.23 0.25 0.26 0.28 0.35 0.36 0.33 0.37 0.46 0.59 0.68 0.72 0.75 0.89 1.11 1.37 1.43 1.36 1.25 1.33 1.41 1.21 1.07 1.03 1.04 1.03 1.02
0.21 0.22 0.22 0.23 0.25 0.25 0.24 0.24 0.25 0.23 0.23 0.24 0.24 0.24 0.26 0.32 0.35 0.35 0.40 0.47 0.53 0.59 0.65 0.68 0.76 0.99 1.33 1.51 1.42 1.24 1.25 1.40 1.52 1.37 1.16 1.06 1.13 1.17
0.26 0.26 0.25 0.24 0.25 0.26 0.27 0.27 0.26 0.24 0.22 0.24 0.24 0.24 0.27 0.31 0.32 0.35 0.39 0.43 0.49 0.53 0.60 0.68 0.75 0.92 1.18 1.35 1.43 1.35 1.26 1.25 1.32 1.40 1.49 1.28 1.01 0.93

GEFSNE_prec_meanprecacc_186.txt.gz
Total_Precipitation_Accumulation
0.25 0.27 0.31 0.29 0.28 0.29 0.32 0.44 0.61 0.45 0.12 0.03 0.05 0.08 0.12 0.16 0.22 0.27 0.27 0.33 0.38 0.43 0.51 0.59 0.62 0.65 0.80 1.14 1.87 2.74 3.38 3.48 3.16 2.68 2.44 2.62 2.95 3.40
0.29 0.33 0.35 0.35 0.33 0.33 0.34 0.37 0.49 0.61 0.39 0.08 0.07 0.10 0.14 0.16 0.22 0.26 0.25 0.31 0.35 0.39 0.41 0.45 0.54 0.63 0.72 0.87 1.17 1.86 2.64 3.25 3.48 3.36 3.11 3.05 3.22 3.53
0.35 0.39 0.38 0.39 0.42 0.42 0.42 0.42 0.43 0.52 0.53 0.16 0.07 0.10 0.18 0.25 0.24 0.24 0.24 0.25 0.28 0.35 0.39 0.40 0.45 0.53 0.63 0.73 0.89 1.26 1.93 2.60 3.20 3.56 3.70 3.61 3.56 3.57
0.46 0.46 0.46 0.46 0.47 0.48 0.53 0.53 0.48 0.47 0.54 0.36 0.13 0.12 0.18 0.25 0.28 0.27 0.25 0.23 0.24 0.30 0.35 0.41 0.44 0.49 0.57 0.66 0.77 0.91 1.29 1.85 2.47 3.03 3.42 3.50 3.48 3.67
0.52 0.57 0.58 0.58 0.58 0.56 0.60 0.62 0.59 0.51 0.52 0.52 0.30 0.18 0.20 0.26 0.32 0.32 0.30 0.29 0.27 0.30 0.32 0.38 0.45 0.50 0.53 0.59 0.68 0.78 0.88 1.16 1.62 2.29 2.94 3.21 3.23 3.29
0.57 0.62 0.67 0.72 0.73 0.74 0.79 0.77 0.74 0.71 0.63 0.59 0.46 0.33 0.32 0.32 0.39 0.40 0.35 0.33 0.36 0.36 0.35 0.35 0.40 0.47 0.50 0.50 0.50 0.56 0.71 0.99 1.34 1.77 2.34 2.77 2.88 2.90
0.61 0.64 0.68 0.78 0.94 1.09 1.20 1.12 0.97 0.95 0.87 0.81 0.68 0.53 0.45 0.46 0.53 0.50 0.50 0.41 0.42 0.46 0.43 0.36 0.34 0.33 0.37 0.46 0.51 0.54 0.60 0.75 1.01 1.38 1.84 2.33 2.64 2.70
0.57 0.54 0.56 0.63 0.74 0.87 1.04 1.06 1.02 1.13 1.19 1.10 0.95 0.81 0.61 0.54 0.63 0.72 0.75 0.72 0.61 0.50 0.50 0.48 0.42 0.41 0.39 0.39 0.49 0.54 0.63 0.74 0.88 1.10 1.47 1.86 2.26 2.59
0.42 0.42 0.42 0.46 0.53 0.53 0.65 0.71 0.77 0.87 1.04 1.16 1.19 0.97 0.79 0.70 0.83 0.96 0.97 0.95 0.74 0.62 0.71 0.76 0.64 0.57 0.51 0.51 0.58 0.56 0.62 0.72 0.84 0.97 1.14 1.46 1.84 2.25
0.35 0.39 0.39 0.41 0.47 0.59 0.64 0.59 0.53 0.55 0.73 0.93 1.11 1.03 0.93 0.95 1.12 1.31 1.36 1.34 1.09 0.86 0.83 0.99 0.86 0.78 0.70 0.65 0.62 0.56 0.57 0.60 0.68 0.83 1.02 1.23 1.47 1.81
0.34 0.40 0.43 0.39 0.48 0.64 0.70 0.64 0.51 0.46 0.51 0.72 0.94 1.06 1.12 1.24 1.43 1.67 1.75 1.77 1.63 1.30 1.09 1.11 1.02 0.93 0.90 0.86 0.77 0.68 0.60 0.56 0.56 0.66 0.84 1.05 1.29 1.55
0.30 0.37 0.52 0.54 0.54 0.60 0.64 0.66 0.64 0.50 0.41 0.43 0.48 0.59 0.72 0.84 1.12 1.41 1.57 1.70 1.69 1.64 1.35 1.25 1.23 1.17 1.25 1.03 0.83 0.69 0.61 0.59 0.55 0.55 0.64 0.82 1.07 1.27
0.36 0.39 0.45 0.53 0.52 0.55 0.61 0.64 0.69 0.60 0.51 0.50 0.48 0.45 0.50 0.62 0.80 1.09 1.34 1.53 1.65 1.63 1.38 1.42 1.52 1.38 1.34 1.16 0.90 0.75 0.64 0.56 0.49 0.49 0.54 0.66 0.88 1.08
0.41 0.33 0.38 0.48 0.50 0.55 0.55 0.57 0.59 0.60 0.56 0.51 0.45 0.39 0.41 0.52 0.63 0.82 1.09 1.24 1.33 1.37 1.25 1.38 1.61 1.40 1.34 1.15 0.96 0.87 0.76 0.67 0.55 0.47 0.44 0.59 0.75 0.94
0.46 0.52 0.49 0.48 0.46 0.41 0.40 0.46 0.47 0.45 0.52 0.49 0.40 0.32 0.33 0.43 0.52 0.64 0.82 1.02 1.11 1.13 1.15 1.21 1.39 1.38 1.39 1.26 0.96 0.84 0.86 0.85 0.71 0.59 0.52 0.49 0.54 0.68
0.48 0.53 0.53 0.44 0.38 0.33 0.32 0.33 0.34 0.38 0.45 0.44 0.35 0.29 0.30 0.39 0.50 0.61 0.77 0.94 1.11 1.10 1.10 1.16 1.34 1.56 1.56 1.21 1.03 0.92 0.81 0.90 0.83 0.70 0.59 0.53 0.51 0.54
0.67 0.63 0.55 0.46 0.42 0.36 0.30 0.26 0.27 0.33 0.41 0.39 0.38 0.39 0.40 0.43 0.47 0.54 0.71 0.86 1.03 1.01 1.06 1.21 1.36 1.51 1.64 1.56 1.37 1.07 0.86 0.79 0.78 0.76 0.69 0.63 0.60 0.60
0.69 0.64 0.49 0.39 0.35 0.33 0.31 0.29 0.26 0.27 0.30 0.36 0.41 0.42 0.43 0.44 0.47 0.49 0.61 0.77 0.88 0.88 0.96 1.12 1.33 1.54 1.74 1.88 1.65 1.27 1.00 0.87 0.84 0.82 0.75 0.70 0.69 0.69
0.56 0.45 0.35 0.31 0.31 0.29 0.28 0.28 0.26 0.23 0.26 0.34 0.38 0.40 0.41 0.44 0.47 0.50 0.55 0.66 0.75 0.80 0.89 1.03 1.23 1.47 1.56 1.62 1.72 1.46 1.18 1.01 0.93 0.95 0.89 0.75 0.70 0.70
0.39 0.34 0.32 0.29 0.30 0.31 0.29 0.27 0.26 0.26 0.29 0.32 0.34 0.36 0.39 0.45 0.47 0.47 0.50 0.61 0.68 0.74 0.81 0.93 1.12 1.35 1.48 1.38 1.41 1.44 1.40 1.18 1.02 1.01 1.00 0.89 0.81 0.84
0.31 0.29 0.28 0.30 0.30 0.29 0.27 0.27 0.29 0.30 0.29 0.30 0.32 0.33 0.36 0.43 0.44 0.40 0.44 0.52 0.65 0.73 0.76 0.78 0.91 1.13 1.39 1.45 1.37 1.26 1.33 1.43 1.23 1.08 1.05 1.05 1.04 1.03
0.29 0.28 0.27 0.27 0.30 0.30 0.30 0.30 0.31 0.30 0.30 0.32 0.31 0.31 0.33 0.39 0.42 0.41 0.45 0.52 0.58 0.63 0.68 0.71 0.78 1.01 1.35 1.53 1.43 1.25 1.25 1.41 1.54 1.39 1.18 1.07 1.15 1.20
0.32 0.31 0.29 0.29 0.30 0.31 0.33 0.32 0.31 0.29 0.28 0.30 0.31 0.31 0.33 0.38 0.38 0.41 0.43 0.47 0.52 0.57 0.63 0.71 0.77 0.94 1.20 1.38 1.45 1.37 1.27 1.26 1.34 1.42 1.50 1.29 1.02 0.95

GEFSNE_prec_meanprecacc_192.txt.gz
Total_Precipitation_Accumulation
0.29 0.30 0.32 0.30 0.29 0.29 0.33 0.44 0.61 0.45 0.13 0.03 0.05 0.08 0.12 0.16 0.22 0.27 0.27 0.33 0.38 0.43 0.51 0.59 0.62 0.65 0.80 1.14 1.87 2.74 3.39 3.48 3.16 2.68 2.45 2.63 2.96 3.41
0.33 0.36 0.37 0.36 0.34 0.33 0.35 0.37 0.50 0.62 0.39 0.08 0.07 0.10 0.14 0.16 0.23 0.26 0.25 0.31 0.35 0.39 0.41 0.45 0.54 0.63 0.72 0.87 1.17 1.86 2.64 3.26 3.48 3.37 3.12 3.06 3.23 3.54
0.39 0.42 0.41 0.40 0.44 0.43 0.42 0.43 0.44 0.53 0.54 0.17 0.08 0.10 0.19 0.25 0.25 0.24 0.24 0.25 0.28 0.35 0.39 0.40 0.45 0.53 0.63 0.73 0.89 1.26 1.94 2.61 3.21 3.57 3.71 3.62 3.57 3.58
0.51 0.50 0.48 0.48 0.49 0.50 0.54 0.54 0.50 0.48 0.56 0.37 0.14 0.13 0.18 0.26 0.29 0.28 0.25 0.23 0.24 0.30 0.35 0.41 0.44 0.49 0.57 0.66 0.77 0.91 1.29 1.86 2.47 3.03 3.42 3.51 3.49 3.68
0.59 0.63 0.63 0.62 0.61 0.59 0.62 0.64 0.60 0.53 0.54 0.53 0.31 0.19 0.21 0.27 0.33 0.33 0.30 0.29 0.27 0.31 0.33 0.39 0.45 0.50 0.53 0.59 0.68 0.78 0.89 1.17 1.63 2.30 2.94 3.22 3.24 3.29
0.64 0.68 0.73 0.78 0.79 0.80 0.84 0.82 0.78 0.75 0.66 0.62 0.48 0.35 0.33 0.34 0.41 0.41 0.37 0.34 0.36 0.36 0.35 0.35 0.40 0.47 0.50 0.50 0.50 0.56 0.71 1.00 1.35 1.77 2.35 2.78 2.89 2.91
0.70 0.72 0.74 0.83 0.98 1.13 1.24 1.17 1.02 1.00 0.93 0.86 0.73 0.57 0.48 0.50 0.57 0.53 0.53 0.44 0.44 0.47 0.44 0.36 0.34 0.33 0.38 0.46 0.51 0.54 0.61 0.76 1.01 1.38 1.85 2.33 2.65 2.71
0.67 0.62 0.63 0.69 0.78 0.90 1.06 1.08 1.05 1.17 1.23 1.14 1.00 0.85 0.65 0.59 0.68 0.77 0.81 0.77 0.65 0.52 0.52 0.49 0.43 0.42 0.39 0.39 0.50 0.55 0.63 0.75 0.88 1.11 1.48 1.87 2.27 2.60
0.50 0.48 0.47 0.50 0.58 0.57 0.68 0.74 0.80 0.90 1.07 1.20 1.23 1.02 0.84 0.75 0.89 1.02 1.02 0.99 0.78 0.64 0.72 0.77 0.65 0.57 0.51 0.52 0.58 0.56 0.63 0.72 0.85 0.98 1.15 1.46 1.85 2.26
0.42 0.44 0.43 0.43 0.49 0.62 0.69 0.63 0.56 0.58 0.76 0.96 1.16 1.09 0.99 1.00 1.18 1.37 1.42 1.39 1.13 0.89 0.85 1.00 0.87 0.78 0.71 0.65 0.63 0.57 0.58 0.61 0.69 0.84 1.03 1.24 1.48 1.82
0.40 0.45 0.46 0.41 0.49 0.66 0.73 0.67 0.54 0.50 0.55 0.76 0.98 1.11 1.18 1.31 1.51 1.75 1.83 1.85 1.69 1.34 1.11 1.12 1.04 0.95 0.92 0.88 0.79 0.70 0.62 0.57 0.57 0.67 0.85 1.06 1.30 1.56
0.36 0.41 0.56 0.55 0.56 0.62 0.66 0.69 0.67 0.53 0.45 0.47 0.53 0.64 0.78 0.92 1.21 1.49 1.65 1.78 1.76 1.68 1.37 1.27 1.26 1.21 1.29 1.07 0.86 0.72 0.63 0.62 0.57 0.56 0.65 0.83 1.08 1.28
0.42 0.44 0.49 0.56 0.54 0.56 0.62 0.65 0.71 0.64 0.55 0.55 0.54 0.51 0.56 0.70 0.89 1.17 1.43 1.62 1.74 1.70 1.42 1.45 1.56 1.43 1.39 1.21 0.94 0.78 0.66 0.58 0.51 0.51 0.56 0.67 0.89 1.09
0.45 0.37 0.41 0.51 0.53 0.58 0.58 0.59 0.62 0.63 0.60 0.55 0.50 0.44 0.46 0.58 0.70 0.89 1.17 1.34 1.42 1.45 1.32 1.44 1.67 1.46 1.40 1.21 1.01 0.91 0.79 0.70 0.58 0.49 0.46 0.61 0.77 0.95
0.51 0.57 0.53 0.51 0.50 0.45 0.45 0.51 0.51 0.49 0.56 0.53 0.44 0.36 0.37 0.47 0.58 0.72 0.92 1.13 1.23 1.24 1.26 1.30 1.47 1.45 1.46 1.33 1.01 0.88 0.89 0.88 0.74 0.61 0.53 0.50 0.55 0.70
0.53 0.58 0.59 0.50 0.43 0.38 0.37 0.39 0.39 0.44 0.50 0.49 0.40 0.35 0.36 0.46 0.58 0.70 0.87 1.05 1.22 1.22 1.20 1.25 1.42 1.64 1.63 1.27 1.08 0.96 0.84 0.93 0.86 0.72 0.62 0.55 0.52 0.55
0.73 0.68 0.60 0.52 0.48 0.42 0.35 0.31 0.32 0.39 0.47 0.45 0.44 0.46 0.47 0.50 0.56 0.63 0.81 0.96 1.13 1.11 1.16 1.29 1.44 1.59 1.72 1.62 1.42 1.11 0.90 0.81 0.81 0.78 0.72 0.65 0.63 0.61
0.76 0.71 0.56 0.45 0.41 0.39 0.37 0.34 0.32 0.32 0.35 0.41 0.46 0.48 0.50 0.52 0.55 0.58 0.70 0.87 0.98 0.98 1.05 1.21 1.41 1.62 1.83 1.95 1.70 1.30 1.03 0.90 0.86 0.85 0.78 0.73 0.71 0.71
0.62 0.51 0.41 0.38 0.37 0.35 0.35 0.34 0.31 0.28 0.31 0.39 0.44 0.45 0.48 0.51 0.54 0.57 0.63 0.75 0.85 0.89 0.97 1.11 1.31 1.54 1.63 1.67 1.76 1.49 1.21 1.04 0.96 0.98 0.92 0.77 0.72 0.71
0.48 0.41 0.38 0.35 0.35 0.37 0.36 0.34 0.33 0.32 0.34 0.37 0.39 0.41 0.45 0.51 0.53 0.53 0.57 0.68 0.76 0.82 0.88 0.99 1.18 1.40 1.53 1.42 1.45 1.48 1.44 1.22 1.05 1.04 1.03 0.92 0.83 0.86
0.43 0.39 0.36 0.36 0.35 0.33 0.32 0.32 0.33 0.34 0.32 0.34 0.36 0.38 0.41 0.47 0.49 0.46 0.50 0.60 0.73 0.80 0.82 0.83 0.96 1.18 1.45 1.51 1.43 1.30 1.36 1.45 1.25 1.11 1.07 1.07 1.06 1.04
0.41 0.39 0.35 0.34 0.35 0.35 0.34 0.34 0.34 0.34 0.34 0.36 0.35 0.35 0.38 0.44 0.47 0.46 0.51 0.59 0.64 0.69 0.74 0.77 0.85 1.08 1.42 1.58 1.47 1.29 1.28 1.44 1.56 1.41 1.20 1.10 1.18 1.24
0.45 0.43 0.40 0.37 0.36 0.36 0.38 0.36 0.35 0.32 0.31 0.33 0.35 0.36 0.39 0.44 0.44 0.47 0.50 0.53 0.58 0.63 0.69 0.77 0.84 1.00 1.26 1.43 1.50 1.41 1.30 1.30 1.37 1.44 1.53 1.33 1.06 0.98

GEFSNE_prec_meanprecacc_198.txt.gz
Total_Precipitation_Accumulation
0.38 0.37 0.39 0.36 0.34 0.33 0.36 0.47 0.64 0.48 0.14 0.03 0.05 0.08 0.12 0.16 0.22 0.27 0.27 0.33 0.38 0.43 0.51 0.59 0.62 0.65 0.80 1.14 1.87 2.74 3.39 3.49 3.17 2.69 2.45 2.64 2.97 3.42
0.43 0.45 0.45 0.43 0.40 0.39 0.40 0.42 0.54 0.65 0.41 0.09 0.07 0.10 0.15 0.17 0.23 0.26 0.25 0.31 0.35 0.39 0.41 0.46 0.55 0.64 0.72 0.87 1.18 1.86 2.64 3.26 3.48 3.37 3.13 3.06 3.23 3.55
0.52 0.53 0.49 0.47 0.50 0.48 0.48 0.48 0.48 0.58 0.58 0.19 0.08 0.11 0.19 0.26 0.25 0.25 0.25 0.25 0.28 0.35 0.39 0.40 0.45 0.53 0.64 0.74 0.89 1.26 1.94 2.61 3.21 3.57 3.71 3.62 3.57 3.58
0.64 0.62 0.58 0.56 0.57 0.57 0.61 0.60 0.55 0.53 0.60 0.41 0.15 0.13 0.19 0.27 0.29 0.28 0.27 0.24 0.25 0.31 0.36 0.41 0.44 0.50 0.57 0.66 0.77 0.92 1.30 1.86 2.48 3.04 3.43 3.51 3.50 3.69
0.70 0.74 0.72 0.71 0.69 0.67 0.69 0.71 0.66 0.58 0.59 0.58 0.34 0.21 0.23 0.28 0.34 0.34 0.32 0.30 0.28 0.31 0.34 0.40 0.46 0.51 0.54 0.60 0.69 0.78 0.89 1.17 1.63 2.30 2.95 3.23 3.24 3.30
0.74 0.78 0.82 0.86 0.87 0.88 0.92 0.90 0.86 0.83 0.75 0.71 0.55 0.39 0.36 0.36 0.43 0.43 0.38 0.36 0.38 0.38 0.37 0.37 0.42 0.48 0.51 0.51 0.51 0.57 0.72 1.00 1.35 1.78 2.36 2.78 2.89 2.92
0.79 0.81 0.83 0.91 1.06 1.21 1.32 1.23 1.10 1.09 1.02 0.95 0.80 0.63 0.53 0.53 0.60 0.56 0.56 0.46 0.47 0.49 0.45 0.38 0.36 0.35 0.39 0.48 0.53 0.56 0.62 0.77 1.02 1.39 1.86 2.34 2.65 2.72
0.75 0.70 0.71 0.77 0.86 0.98 1.15 1.15 1.12 1.24 1.30 1.20 1.05 0.89 0.68 0.62 0.70 0.80 0.83 0.81 0.69 0.55 0.55 0.52 0.47 0.45 0.42 0.42 0.53 0.57 0.65 0.77 0.90 1.12 1.48 1.87 2.27 2.60
0.57 0.56 0.55 0.59 0.66 0.65 0.77 0.82 0.88 0.97 1.14 1.26 1.28 1.04 0.86 0.77 0.91 1.04 1.05 1.02 0.80 0.67 0.75 0.81 0.69 0.61 0.55 0.55 0.62 0.59 0.65 0.74 0.86 0.99 1.16 1.47 1.86 2.26
0.50 0.52 0.52 0.52 0.57 0.70 0.77 0.73 0.66 0.66 0.83 1.03 1.22 1.12 1.00 1.02 1.21 1.40 1.45 1.42 1.17 0.92 0.89 1.04 0.91 0.83 0.75 0.69 0.67 0.60 0.61 0.64 0.71 0.86 1.05 1.25 1.50 1.84
0.50 0.54 0.56 0.50 0.57 0.73 0.81 0.76 0.63 0.58 0.63 0.84 1.05 1.16 1.22 1.35 1.56 1.80 1.88 1.90 1.73 1.37 1.14 1.16 1.08 0.99 0.96 0.92 0.83 0.74 0.65 0.61 0.60 0.70 0.88 1.09 1.33 1.58
0.48 0.51 0.65 0.65 0.63 0.69 0.73 0.76 0.74 0.60 0.51 0.53 0.59 0.70 0.83 0.97 1.27 1.55 1.70 1.83 1.80 1.72 1.41 1.31 1.30 1.25 1.34 1.11 0.90 0.76 0.68 0.67 0.62 0.61 0.69 0.87 1.12 1.31
0.53 0.54 0.58 0.64 0.61 0.63 0.69 0.72 0.78 0.69 0.60 0.61 0.58 0.56 0.61 0.75 0.93 1.21 1.47 1.66 1.77 1.73 1.45 1.49 1.60 1.48 1.44 1.26 1.00 0.83 0.72 0.63 0.56 0.57 0.61 0.72 0.94 1.13
0.55 0.46 0.50 0.60 0.60 0.64 0.64 0.66 0.70 0.70 0.66 0.61 0.55 0.48 0.50 0.62 0.75 0.94 1.22 1.38 1.47 1.49 1.36 1.49 1.73 1.52 1.47 1.28 1.08 0.97 0.85 0.75 0.62 0.53 0.50 0.66 0.82 1.00
0.61 0.65 0.61 0.61 0.60 0.53 0.52 0.57 0.59 0.57 0.63 0.60 0.49 0.40 0.40 0.51 0.63 0.78 0.99 1.21 1.31 1.32 1.34 1.37 1.53 1.52 1.54 1.40 1.08 0.94 0.95 0.93 0.78 0.65 0.58 0.55 0.60 0.75
0.66 0.68 0.68 0.60 0.55 0.49 0.47 0.47 0.47 0.51 0.56 0.54 0.44 0.37 0.39 0.49 0.63 0.75 0.94 1.12 1.30 1.30 1.29 1.34 1.50 1.72 1.72 1.34 1.15 1.02 0.89 0.97 0.90 0.76 0.66 0.60 0.57 0.60
0.87 0.81 0.72 0.63 0.59 0.51 0.45 0.40 0.40 0.46 0.53 0.49 0.48 0.49 0.51 0.56 0.62 0.70 0.88 1.03 1.21 1.19 1.23 1.37 1.52 1.67 1.80 1.70 1.49 1.17 0.95 0.86 0.85 0.83 0.77 0.71 0.68 0.66
0.91 0.84 0.66 0.53 0.48 0.45 0.44 0.42 0.39 0.39 0.41 0.46 0.52 0.54 0.56 0.59 0.62 0.66 0.78 0.94 1.05 1.05 1.13 1.28 1.49 1.71 1.92 2.03 1.76 1.35 1.07 0.94 0.91 0.90 0.84 0.78 0.77 0.76
0.72 0.60 0.50 0.44 0.42 0.41 0.41 0.40 0.37 0.33 0.36 0.45 0.50 0.52 0.55 0.59 0.63 0.67 0.73 0.83 0.93 0.97 1.05 1.19 1.39 1.61 1.69 1.73 1.82 1.53 1.25 1.08 1.01 1.03 0.97 0.82 0.77 0.77
0.55 0.48 0.45 0.40 0.40 0.42 0.41 0.39 0.37 0.37 0.40 0.44 0.47 0.49 0.52 0.58 0.61 0.61 0.65 0.76 0.85 0.90 0.97 1.07 1.26 1.47 1.59 1.48 1.51 1.53 1.48 1.26 1.10 1.10 1.09 0.98 0.90 0.93
0.50 0.46 0.42 0.41 0.40 0.39 0.38 0.38 0.38 0.39 0.37 0.40 0.43 0.45 0.48 0.55 0.56 0.53 0.57 0.67 0.80 0.86 0.89 0.90 1.03 1.25 1.52 1.57 1.48 1.34 1.41 1.50 1.30 1.16 1.12 1.12 1.11 1.10
0.47 0.47 0.43 0.42 0.42 0.41 0.39 0.38 0.39 0.38 0.38 0.41 0.40 0.41 0.44 0.51 0.54 0.53 0.58 0.66 0.70 0.75 0.81 0.84 0.92 1.15 1.48 1.63 1.52 1.34 1.33 1.49 1.62 1.47 1.25 1.14 1.22 1.29
0.50 0.49 0.46 0.44 0.44 0.44 0.43 0.42 0.40 0.36 0.35 0.38 0.40 0.41 0.44 0.49 0.50 0.54 0.56 0.60 0.65 0.69 0.75 0.84 0.91 1.06 1.31 1.48 1.55 1.47 1.36 1.35 1.42 1.50 1.59 1.38 1.10 1.02

GEFSNE_prec_meanprecacc_204.txt.gz
Total_Precipitation_Accumulation
0.45 0.44 0.47 0.44 0.41 0.40 0.43 0.54 0.72 0.55 0.20 0.08 0.08 0.11 0.14 0.18 0.24 0.29 0.28 0.34 0.39 0.43 0.52 0.59 0.62 0.66 0.80 1.14 1.88 2.75 3.40 3.50 3.18 2.70 2.47 2.66 2.99 3.44
0.51 0.52 0.52 0.51 0.49 0.46 0.47 0.48 0.60 0.72 0.48 0.13 0.10 0.12 0.17 0.19 0.25 0.28 0.27 0.32 0.36 0.39 0.42 0.46 0.55 0.64 0.73 0.87 1.18 1.87 2.65 3.27 3.50 3.38 3.14 3.08 3.25 3.56
0.62 0.64 0.59 0.56 0.60 0.59 0.57 0.56 0.55 0.65 0.67 0.24 0.12 0.14 0.23 0.29 0.28 0.27 0.26 0.27 0.29 0.36 0.40 0.41 0.45 0.54 0.64 0.74 0.90 1.27 1.94 2.62 3.22 3.58 3.73 3.64 3.59 3.60
0.70 0.70 0.67 0.66 0.67 0.67 0.71 0.69 0.62 0.60 0.68 0.48 0.21 0.18 0.24 0.31 0.34 0.32 0.29 0.26 0.26 0.31 0.37 0.42 0.45 0.50 0.58 0.67 0.78 0.93 1.30 1.87 2.48 3.05 3.44 3.52 3.51 3.70
0.75 0.80 0.79 0.79 0.78 0.76 0.78 0.79 0.74 0.65 0.66 0.64 0.39 0.25 0.27 0.33 0.39 0.38 0.34 0.32 0.29 0.32 0.35 0.41 0.47 0.51 0.55 0.60 0.69 0.79 0.90 1.18 1.64 2.31 2.96 3.24 3.26 3.32
0.78 0.83 0.87 0.92 0.94 0.95 1.01 0.98 0.95 0.92 0.83 0.78 0.60 0.44 0.40 0.40 0.47 0.46 0.41 0.37 0.40 0.39 0.38 0.38 0.43 0.49 0.52 0.52 0.52 0.58 0.74 1.02 1.37 1.80 2.37 2.80 2.91 2.94
0.84 0.85 0.87 0.96 1.11 1.27 1.39 1.31 1.18 1.18 1.11 1.04 0.88 0.69 0.57 0.58 0.64 0.59 0.59 0.48 0.48 0.50 0.47 0.39 0.37 0.36 0.41 0.50 0.55 0.58 0.64 0.80 1.05 1.42 1.88 2.37 2.68 2.74
0.80 0.75 0.76 0.82 0.91 1.04 1.21 1.22 1.19 1.31 1.37 1.28 1.12 0.95 0.72 0.65 0.74 0.83 0.86 0.83 0.71 0.56 0.57 0.54 0.48 0.47 0.44 0.44 0.55 0.60 0.68 0.80 0.93 1.15 1.52 1.90 2.30 2.63
0.63 0.62 0.61 0.64 0.73 0.71 0.83 0.90 0.95 1.04 1.19 1.30 1.33 1.09 0.89 0.81 0.95 1.08 1.08 1.04 0.82 0.68 0.78 0.83 0.71 0.64 0.57 0.57 0.64 0.62 0.68 0.77 0.89 1.03 1.20 1.51 1.89 2.30
0.58 0.60 0.59 0.58 0.64 0.77 0.84 0.79 0.72 0.73 0.89 1.08 1.26 1.16 1.04 1.06 1.26 1.45 1.50 1.46 1.20 0.94 0.91 1.06 0.93 0.84 0.77 0.71 0.69 0.63 0.64 0.67 0.74 0.90 1.09 1.29 1.54 1.88
0.58 0.62 0.64 0.58 0.66 0.82 0.89 0.83 0.69 0.64 0.70 0.91 1.12 1.22 1.28 1.41 1.63 1.88 1.96 1.97 1.79 1.41 1.17 1.19 1.10 1.01 0.98 0.94 0.85 0.77 0.69 0.65 0.65 0.76 0.93 1.14 1.38 1.64
0.58 0.61 0.74 0.74 0.74 0.79 0.81 0.85 0.82 0.66 0.58 0.61 0.67 0.78 0.89 1.04 1.35 1.62 1.77 1.89 1.86 1.76 1.43 1.33 1.32 1.28 1.37 1.14 0.93 0.79 0.72 0.72 0.68 0.67 0.75 0.92 1.17 1.37
0.66 0.66 0.69 0.77 0.74 0.75 0.79 0.81 0.86 0.76 0.67 0.68 0.66 0.63 0.68 0.81 1.00 1.27 1.52 1.71 1.82 1.77 1.47 1.51 1.63 1.51 1.47 1.30 1.03 0.87 0.76 0.68 0.62 0.62 0.67 0.78 0.99 1.18
0.69 0.58 0.62 0.74 0.74 0.77 0.76 0.78 0.80 0.79 0.75 0.70 0.64 0.57 0.57 0.68 0.80 0.99 1.26 1.43 1.52 1.54 1.39 1.53 1.78 1.57 1.51 1.33 1.12 1.01 0.89 0.80 0.68 0.59 0.56 0.72 0.87 1.05
0.75 0.80 0.74 0.75 0.76 0.68 0.65 0.71 0.71 0.67 0.72 0.69 0.57 0.46 0.45 0.56 0.68 0.83 1.04 1.27 1.37 1.37 1.38 1.42 1.58 1.57 1.60 1.45 1.12 0.98 1.00 0.99 0.84 0.71 0.63 0.60 0.64 0.79
0.78 0.83 0.83 0.77 0.74 0.68 0.63 0.62 0.59 0.62 0.66 0.62 0.51 0.43 0.45 0.55 0.69 0.82 1.01 1.19 1.38 1.37 1.35 1.38 1.55 1.77 1.77 1.39 1.19 1.07 0.94 1.04 0.96 0.81 0.71 0.65 0.62 0.63
1.00 0.97 0.91 0.84 0.81 0.71 0.62 0.55 0.53 0.58 0.62 0.56 0.55 0.55 0.57 0.62 0.69 0.77 0.94 1.11 1.28 1.26 1.29 1.43 1.57 1.73 1.85 1.75 1.54 1.22 1.00 0.92 0.91 0.88 0.82 0.76 0.73 0.70
1.03 0.99 0.84 0.72 0.66 0.61 0.60 0.56 0.51 0.49 0.49 0.53 0.57 0.59 0.61 0.65 0.69 0.73 0.85 1.02 1.12 1.12 1.19 1.35 1.55 1.77 1.98 2.10 1.82 1.40 1.13 1.00 0.97 0.95 0.88 0.83 0.82 0.80
0.81 0.71 0.63 0.60 0.57 0.54 0.54 0.54 0.49 0.42 0.44 0.52 0.56 0.58 0.61 0.65 0.69 0.73 0.79 0.91 1.00 1.04 1.12 1.25 1.45 1.67 1.76 1.80 1.89 1.60 1.30 1.13 1.07 1.09 1.02 0.87 0.82 0.82
0.62 0.56 0.55 0.53 0.54 0.56 0.53 0.51 0.49 0.46 0.49 0.52 0.54 0.56 0.60 0.65 0.68 0.68 0.72 0.83 0.92 0.97 1.04 1.14 1.32 1.54 1.65 1.54 1.59 1.63 1.56 1.33 1.16 1.16 1.14 1.03 0.95 0.99
0.56 0.52 0.51 0.53 0.54 0.52 0.49 0.47 0.48 0.48 0.46 0.49 0.52 0.55 0.57 0.62 0.64 0.60 0.64 0.75 0.87 0.93 0.96 0.96 1.09 1.33 1.59 1.65 1.56 1.43 1.50 1.58 1.36 1.21 1.16 1.16 1.16 1.15
0.52 0.52 0.51 0.52 0.55 0.55 0.52 0.48 0.48 0.47 0.47 0.49 0.49 0.50 0.53 0.60 0.62 0.61 0.66 0.73 0.77 0.81 0.87 0.91 1.00 1.22 1.55 1.71 1.59 1.40 1.41 1.57 1.70 1.52 1.28 1.17 1.25 1.33
0.55 0.54 0.52 0.52 0.55 0.57 0.57 0.52 0.49 0.45 0.43 0.46 0.48 0.48 0.51 0.57 0.58 0.61 0.64 0.67 0.73 0.77 0.83 0.92 0.98 1.13 1.39 1.55 1.62 1.53 1.42 1.42 1.48 1.56 1.64 1.41 1.12 1.06

GEFSNE_prec_meanprecacc_210.txt.gz
Total_Precipitation_Accumulation
0.49 0.50 0.53 0.50 0.48 0.47 0.50 0.62 0.82 0.66 0.28 0.13 0.12 0.14 0.18 0.23 0.30 0.34 0.32 0.37 0.42 0.47 0.56 0.63 0.66 0.69 0.83 1.16 1.89 2.76 3.42 3.52 3.20 2.72 2.49 2.68 3.02 3.47
0.55 0.57 0.58 0.57 0.56 0.55 0.55 0.57 0.69 0.82 0.56 0.18 0.14 0.16 0.21 0.24 0.31 0.34 0.31 0.36 0.40 0.43 0.46 0.50 0.59 0.68 0.76 0.90 1.20 1.89 2.67 3.29 3.51 3.40 3.17 3.10 3.28 3.59
0.67 0.69 0.64 0.61 0.65 0.64 0.63 0.62 0.62 0.73 0.74 0.29 0.15 0.17 0.27 0.34 0.33 0.33 0.33 0.32 0.34 0.40 0.44 0.45 0.49 0.57 0.67 0.78 0.93 1.29 1.96 2.63 3.24 3.60 3.75 3.67 3.62 3.63
0.76 0.75 0.72 0.71 0.72 0.72 0.77 0.74 0.67 0.64 0.73 0.53 0.25 0.22 0.27 0.35 0.38 0.37 0.34 0.32 0.31 0.36 0.41 0.45 0.48 0.54 0.61 0.70 0.81 0.95 1.33 1.89 2.50 3.07 3.46 3.55 3.54 3.74
0.80 0.84 0.83 0.83 0.83 0.81 0.84 0.85 0.80 0.71 0.70 0.69 0.44 0.30 0.31 0.37 0.44 0.44 0.40 0.38 0.35 0.38 0.39 0.44 0.50 0.54 0.58 0.63 0.72 0.82 0.92 1.20 1.66 2.33 2.98 3.26 3.29 3.35
0.84 0.88 0.92 0.96 0.97 0.99 1.05 1.04 1.01 0.98 0.89 0.84 0.66 0.49 0.46 0.45 0.53 0.54 0.48 0.43 0.46 0.45 0.43 0.42 0.46 0.52 0.55 0.55 0.55 0.61 0.76 1.04 1.39 1.82 2.40 2.83 2.94 2.97
0.91 0.92 0.93 1.00 1.14 1.31 1.43 1.36 1.24 1.25 1.18 1.11 0.96 0.77 0.65 0.64 0.71 0.66 0.65 0.55 0.54 0.56 0.52 0.43 0.40 0.39 0.44 0.53 0.59 0.61 0.67 0.82 1.07 1.44 1.90 2.39 2.71 2.77
0.86 0.80 0.80 0.86 0.94 1.07 1.25 1.27 1.24 1.37 1.43 1.35 1.19 1.02 0.78 0.70 0.79 0.88 0.92 0.90 0.79 0.62 0.61 0.57 0.51 0.50 0.47 0.47 0.58 0.63 0.71 0.82 0.96 1.17 1.54 1.92 2.33 2.66
0.69 0.66 0.64 0.67 0.75 0.73 0.86 0.93 0.99 1.08 1.24 1.36 1.39 1.14 0.94 0.86 1.01 1.15 1.13 1.09 0.87 0.72 0.81 0.88 0.75 0.67 0.59 0.59 0.67 0.64 0.70 0.80 0.92 1.05 1.22 1.53 1.92 2.33
0.65 0.65 0.63 0.61 0.67 0.80 0.88 0.84 0.76 0.77 0.94 1.14 1.31 1.21 1.09 1.11 1.33 1.53 1.57 1.53 1.26 0.99 0.95 1.11 0.96 0.87 0.79 0.73 0.72 0.66 0.66 0.70 0.77 0.92 1.12 1.33 1.58 1.92
0.68 0.71 0.71 0.63 0.69 0.86 0.94 0.89 0.75 0.69 0.75 0.98 1.19 1.29 1.35 1.49 1.73 2.00 2.06 2.07 1.87 1.47 1.21 1.22 1.12 1.03 1.00 0.96 0.88 0.80 0.71 0.67 0.68 0.79 0.97 1.18 1.42 1.69
0.68 0.72 0.85 0.82 0.81 0.85 0.87 0.91 0.89 0.72 0.63 0.68 0.76 0.88 0.99 1.15 1.46 1.72 1.85 1.97 1.93 1.82 1.47 1.36 1.34 1.30 1.40 1.16 0.94 0.81 0.74 0.74 0.71 0.70 0.79 0.96 1.22 1.42
0.74 0.76 0.80 0.88 0.83 0.83 0.87 0.88 0.93 0.82 0.73 0.75 0.75 0.73 0.79 0.93 1.12 1.38 1.61 1.79 1.89 1.82 1.51 1.54 1.66 1.53 1.50 1.32 1.05 0.89 0.78 0.70 0.64 0.65 0.70 0.81 1.02 1.22
0.75 0.65 0.71 0.85 0.84 0.85 0.84 0.87 0.90 0.88 0.84 0.81 0.74 0.67 0.67 0.79 0.90 1.09 1.36 1.52 1.59 1.60 1.44 1.57 1.82 1.60 1.55 1.36 1.15 1.04 0.92 0.82 0.70 0.62 0.59 0.75 0.91 1.09
0.80 0.86 0.81 0.84 0.85 0.76 0.74 0.79 0.80 0.77 0.83 0.80 0.67 0.56 0.54 0.63 0.75 0.91 1.13 1.35 1.44 1.45 1.45 1.47 1.63 1.63 1.65 1.50 1.16 1.01 1.03 1.02 0.86 0.73 0.66 0.63 0.67 0.82
0.83 0.89 0.90 0.85 0.82 0.77 0.73 0.71 0.69 0.72 0.76 0.72 0.60 0.52 0.54 0.64 0.77 0.89 1.08 1.26 1.44 1.44 1.40 1.44 1.60 1.82 1.82 1.44 1.24 1.11 0.99 1.08 1.00 0.85 0.75 0.69 0.65 0.68
1.06 1.04 0.99 0.93 0.91 0.82 0.73 0.66 0.65 0.70 0.73 0.65 0.64 0.65 0.68 0.72 0.77 0.84 1.00 1.16 1.34 1.31 1.34 1.48 1.62 1.77 1.90 1.80 1.59 1.27 1.05 0.97 0.95 0.92 0.86 0.81 0.78 0.76
1.10 1.06 0.92 0.81 0.76 0.71 0.70 0.68 0.64 0.61 0.60 0.62 0.67 0.69 0.72 0.75 0.77 0.79 0.90 1.07 1.18 1.17 1.23 1.39 1.60 1.83 2.04 2.16 1.87 1.44 1.17 1.04 1.01 1.00 0.92 0.88 0.89 0.88
0.87 0.78 0.71 0.67 0.66 0.64 0.63 0.64 0.60 0.53 0.54 0.63 0.66 0.67 0.69 0.74 0.77 0.80 0.85 0.96 1.05 1.09 1.16 1.29 1.50 1.73 1.82 1.86 1.95 1.64 1.34 1.18 1.12 1.15 1.07 0.92 0.89 0.91
0.66 0.60 0.60 0.60 0.62 0.65 0.62 0.60 0.58 0.56 0.59 0.62 0.63 0.64 0.67 0.73 0.75 0.75 0.78 0.89 0.97 1.02 1.09 1.20 1.37 1.59 1.71 1.60 1.65 1.69 1.61 1.38 1.22 1.22 1.21 1.09 1.03 1.07
0.60 0.56 0.55 0.59 0.60 0.60 0.59 0.58 0.57 0.57 0.55 0.58 0.61 0.63 0.65 0.71 0.72 0.67 0.70 0.81 0.93 0.98 1.01 1.02 1.15 1.39 1.65 1.70 1.63 1.50 1.57 1.65 1.42 1.26 1.21 1.22 1.22 1.21
0.56 0.57 0.56 0.58 0.62 0.63 0.60 0.58 0.58 0.56 0.54 0.57 0.58 0.59 0.62 0.70 0.71 0.68 0.72 0.80 0.83 0.87 0.93 0.97 1.06 1.29 1.62 1.77 1.65 1.47 1.49 1.66 1.79 1.61 1.34 1.21 1.29 1.38
0.59 0.59 0.57 0.58 0.62 0.64 0.65 0.62 0.58 0.53 0.52 0.55 0.56 0.57 0.60 0.66 0.66 0.68 0.70 0.73 0.79 0.83 0.90 0.99 1.06 1.21 1.46 1.62 1.69 1.60 1.49 1.49 1.57 1.64 1.71 1.46 1.16 1.09

GEFSNE_prec_meanprecacc_216.txt.gz
Total_Precipitation_Accumulation
0.53 0.54 0.57 0.53 0.51 0.49 0.53 0.66 0.87 0.71 0.33 0.17 0.15 0.18 0.23 0.30 0.38 0.43 0.41 0.47 0.51 0.55 0.65 0.73 0.78 0.82 0.94 1.25 1.96 2.83 3.48 3.57 3.25 2.76 2.52 2.72 3.05 3.50
0.60 0.61 0.62 0.61 0.60 0.58 0.58 0.60 0.73 0.87 0.62 0.23 0.18 0.20 0.26 0.30 0.39 0.43 0.41 0.47 0.49 0.53 0.55 0.60 0.69 0.80 0.90 1.01 1.29 1.96 2.74 3.34 3.55 3.45 3.21 3.14 3.31 3.62
0.71 0.73 0.68 0.65 0.70 0.68 0.67 0.66 0.66 0.77 0.78 0.33 0.19 0.22 0.32 0.41 0.40 0.40 0.40 0.41 0.43 0.49 0.53 0.55 0.60 0.68 0.79 0.91 1.04 1.38 2.04 2.70 3.29 3.65 3.79 3.71 3.66 3.66
0.80 0.80 0.77 0.75 0.77 0.76 0.80 0.78 0.70 0.67 0.77 0.56 0.28 0.25 0.31 0.39 0.42 0.42 0.41 0.39 0.39 0.46 0.51 0.56 0.60 0.65 0.72 0.81 0.93 1.07 1.42 1.96 2.57 3.12 3.50 3.59 3.58 3.78
0.84 0.88 0.87 0.88 0.88 0.86 0.88 0.88 0.83 0.73 0.73 0.72 0.46 0.32 0.33 0.40 0.49 0.49 0.46 0.45 0.44 0.47 0.49 0.55 0.62 0.66 0.70 0.75 0.83 0.93 1.03 1.29 1.73 2.38 3.02 3.30 3.32 3.39
0.88 0.92 0.96 1.01 1.02 1.03 1.10 1.08 1.04 1.01 0.92 0.87 0.68 0.52 0.48 0.48 0.57 0.60 0.55 0.51 0.54 0.53 0.55 0.54 0.59 0.65 0.68 0.68 0.66 0.71 0.85 1.13 1.46 1.88 2.44 2.86 2.98 3.00
0.95 0.95 0.97 1.05 1.20 1.36 1.48 1.41 1.29 1.29 1.22 1.15 0.98 0.79 0.67 0.67 0.74 0.70 0.71 0.61 0.62 0.64 0.62 0.56 0.53 0.52 0.56 0.64 0.69 0.70 0.76 0.92 1.16 1.52 1.96 2.44 2.75 2.81
0.91 0.85 0.85 0.91 0.98 1.12 1.30 1.32 1.30 1.43 1.48 1.39 1.22 1.05 0.81 0.73 0.82 0.93 0.98 0.98 0.88 0.72 0.70 0.68 0.61 0.60 0.56 0.55 0.67 0.71 0.79 0.91 1.04 1.25 1.60 1.97 2.37 2.69
0.73 0.71 0.68 0.71 0.80 0.78 0.91 0.98 1.04 1.13 1.30 1.41 1.43 1.18 0.98 0.89 1.06 1.21 1.20 1.17 0.95 0.80 0.90 0.97 0.84 0.75 0.67 0.67 0.75 0.71 0.77 0.86 0.98 1.11 1.27 1.58 1.96 2.37
0.70 0.69 0.67 0.65 0.71 0.85 0.93 0.89 0.81 0.82 0.99 1.19 1.36 1.25 1.14 1.16 1.39 1.60 1.66 1.65 1.38 1.10 1.04 1.21 1.05 0.95 0.87 0.82 0.80 0.72 0.72 0.74 0.81 0.96 1.15 1.36 1.61 1.95
0.75 0.77 0.77 0.68 0.75 0.94 1.01 0.95 0.80 0.74 0.80 1.03 1.23 1.34 1.41 1.56 1.79 2.08 2.17 2.21 2.02 1.61 1.33 1.32 1.21 1.11 1.08 1.03 0.95 0.86 0.77 0.72 0.72 0.82 1.00 1.21 1.45 1.72
0.77 0.81 0.94 0.91 0.90 0.94 0.97 1.01 0.97 0.78 0.69 0.75 0.82 0.93 1.05 1.21 1.53 1.79 1.94 2.10 2.05 1.94 1.59 1.46 1.44 1.38 1.48 1.24 1.00 0.86 0.78 0.79 0.74 0.73 0.81 0.99 1.25 1.45
0.84 0.86 0.89 0.98 0.94 0.95 0.99 0.99 1.02 0.91 0.81 0.83 0.82 0.80 0.86 0.99 1.18 1.44 1.69 1.88 1.99 1.92 1.59 1.63 1.75 1.61 1.56 1.38 1.10 0.93 0.81 0.73 0.67 0.68 0.73 0.84 1.05 1.24
0.84 0.74 0.80 0.95 0.94 0.97 0.96 0.98 1.01 0.99 0.94 0.90 0.82 0.75 0.75 0.87 0.97 1.16 1.44 1.59 1.67 1.68 1.52 1.66 1.91 1.68 1.61 1.41 1.20 1.07 0.94 0.85 0.73 0.65 0.62 0.78 0.93 1.11
0.89 0.95 0.90 0.93 0.94 0.86 0.85 0.90 0.91 0.88 0.94 0.91 0.76 0.64 0.62 0.72 0.85 1.01 1.23 1.45 1.55 1.56 1.56 1.57 1.72 1.70 1.71 1.56 1.20 1.05 1.06 1.05 0.89 0.76 0.69 0.66 0.70 0.85
0.89 0.97 0.98 0.93 0.92 0.86 0.82 0.81 0.80 0.82 0.86 0.82 0.69 0.61 0.63 0.74 0.88 1.00 1.17 1.35 1.56 1.56 1.52 1.54 1.68 1.89 1.88 1.49 1.28 1.15 1.02 1.11 1.03 0.88 0.78 0.73 0.69 0.71
1.13 1.12 1.08 1.03 1.01 0.91 0.81 0.76 0.76 0.81 0.84 0.74 0.73 0.75 0.77 0.83 0.88 0.93 1.09 1.24 1.42 1.39 1.42 1.56 1.70 1.85 1.96 1.85 1.64 1.31 1.09 1.01 0.99 0.96 0.90 0.85 0.84 0.80
1.17 1.15 1.00 0.90 0.86 0.81 0.80 0.79 0.75 0.72 0.70 0.73 0.77 0.79 0.81 0.84 0.87 0.89 1.00 1.16 1.26 1.24 1.28 1.44 1.66 1.90 2.10 2.22 1.93 1.49 1.21 1.09 1.05 1.03 0.96 0.92 0.94 0.94
0.94 0.85 0.78 0.74 0.73 0.72 0.72 0.73 0.69 0.61 0.63 0.72 0.77 0.78 0.80 0.84 0.87 0.89 0.94 1.05 1.13 1.15 1.21 1.34 1.55 1.78 1.87 1.91 2.00 1.70 1.39 1.22 1.16 1.19 1.11 0.96 0.94 0.96
0.73 0.67 0.67 0.67 0.69 0.72 0.69 0.66 0.64 0.63 0.66 0.70 0.72 0.73 0.76 0.82 0.84 0.83 0.86 0.96 1.03 1.08 1.15 1.24 1.41 1.63 1.76 1.65 1.70 1.75 1.66 1.42 1.26 1.26 1.24 1.14 1.08 1.13
0.65 0.62 0.61 0.65 0.66 0.66 0.64 0.63 0.63 0.63 0.61 0.65 0.70 0.72 0.73 0.79 0.80 0.74 0.77 0.87 0.98 1.03 1.05 1.05 1.18 1.43 1.69 1.75 1.69 1.56 1.63 1.70 1.46 1.29 1.25 1.26 1.27 1.26
0.61 0.61 0.61 0.62 0.66 0.68 0.65 0.63 0.63 0.61 0.60 0.63 0.65 0.67 0.70 0.77 0.78 0.74 0.78 0.85 0.87 0.91 0.97 1.01 1.10 1.33 1.67 1.82 1.70 1.52 1.54 1.71 1.85 1.66 1.38 1.24 1.32 1.41
0.65 0.63 0.61 0.62 0.66 0.69 0.70 0.67 0.63 0.58 0.57 0.61 0.62 0.63 0.66 0.73 0.73 0.75 0.76 0.78 0.83 0.87 0.93 1.03 1.10 1.25 1.50 1.66 1.74 1.66 1.55 1.55 1.62 1.70 1.77 1.51 1.20 1.12

GEFSNE_prec_meanprecacc_222.txt.gz
Total_Precipitation_Accumulation
0.55 0.56 0.58 0.55 0.53 0.52 0.55 0.70 0.92 0.76 0.37 0.18 0.17 0.20 0.25 0.32 0.40 0.45 0.44 0.52 0.58 0.63 0.73 0.82 0.87 0.90 1.04 1.38 2.10 2.96 3.63 3.73 3.39 2.86 2.59 2.78 3.12 3.57
0.62 0.63 0.64 0.63 0.62 0.60 0.61 0.63 0.77 0.92 0.66 0.26 0.21 0.22 0.29 0.33 0.41 0.45 0.43 0.50 0.54 0.58 0.62 0.67 0.78 0.88 0.98 1.12 1.42 2.10 2.87 3.48 3.71 3.59 3.32 3.22 3.38 3.69
0.73 0.75 0.69 0.66 0.71 0.70 0.69 0.69 0.70 0.82 0.83 0.37 0.23 0.25 0.36 0.44 0.42 0.42 0.42 0.43 0.46 0.53 0.57 0.60 0.66 0.74 0.86 1.00 1.15 1.52 2.18 2.84 3.43 3.79 3.93 3.85 3.77 3.75
0.82 0.81 0.78 0.77 0.78 0.77 0.82 0.80 0.73 0.72 0.82 0.60 0.32 0.29 0.35 0.43 0.45 0.45 0.43 0.42 0.42 0.48 0.54 0.60 0.65 0.71 0.78 0.90 1.04 1.19 1.56 2.09 2.70 3.26 3.64 3.72 3.71 3.90
0.86 0.90 0.88 0.89 0.89 0.87 0.89 0.90 0.85 0.77 0.78 0.77 0.50 0.36 0.38 0.44 0.52 0.52 0.49 0.49 0.47 0.51 0.54 0.59 0.67 0.73 0.77 0.85 0.95 1.07 1.18 1.43 1.86 2.51 3.15 3.42 3.44 3.50
0.90 0.95 0.98 1.03 1.03 1.05 1.11 1.10 1.07 1.05 0.97 0.93 0.75 0.57 0.53 0.54 0.63 0.65 0.58 0.54 0.58 0.58 0.60 0.59 0.64 0.71 0.75 0.76 0.78 0.84 1.00 1.28 1.61 2.01 2.57 2.99 3.09 3.10
0.97 0.97 0.98 1.08 1.22 1.38 1.51 1.44 1.33 1.34 1.27 1.21 1.05 0.86 0.73 0.74 0.82 0.76 0.76 0.65 0.66 0.69 0.67 0.62 0.60 0.58 0.63 0.73 0.80 0.84 0.91 1.08 1.32 1.68 2.11 2.56 2.85 2.91
0.93 0.87 0.87 0.93 1.01 1.15 1.34 1.36 1.34 1.47 1.54 1.46 1.29 1.11 0.87 0.79 0.88 1.00 1.04 1.03 0.93 0.77 0.77 0.76 0.70 0.69 0.67 0.68 0.81 0.87 0.94 1.07 1.20 1.40 1.76 2.12 2.49 2.80
0.76 0.74 0.72 0.74 0.83 0.80 0.93 1.01 1.06 1.16 1.33 1.46 1.50 1.23 1.03 0.94 1.11 1.27 1.26 1.23 0.99 0.85 0.97 1.06 0.93 0.87 0.79 0.80 0.89 0.86 0.93 1.02 1.14 1.25 1.41 1.72 2.09 2.48
0.73 0.72 0.69 0.68 0.73 0.87 0.95 0.91 0.83 0.84 1.01 1.22 1.40 1.29 1.18 1.21 1.44 1.67 1.72 1.71 1.43 1.14 1.11 1.30 1.16 1.07 0.99 0.94 0.94 0.87 0.88 0.91 0.98 1.10 1.27 1.47 1.72 2.06
0.78 0.80 0.79 0.70 0.78 0.97 1.04 0.98 0.83 0.76 0.83 1.06 1.28 1.39 1.47 1.62 1.85 2.15 2.24 2.27 2.08 1.68 1.41 1.41 1.32 1.22 1.19 1.15 1.09 1.01 0.92 0.89 0.88 0.96 1.10 1.30 1.54 1.81
0.80 0.84 0.97 0.94 0.93 0.99 1.02 1.05 1.01 0.81 0.73 0.80 0.88 1.00 1.10 1.27 1.59 1.85 2.01 2.17 2.12 2.01 1.67 1.55 1.53 1.48 1.59 1.35 1.14 1.02 0.94 0.96 0.91 0.87 0.91 1.06 1.32 1.52
0.87 0.90 0.93 1.01 0.98 1.00 1.04 1.04 1.07 0.95 0.86 0.89 0.89 0.87 0.93 1.06 1.24 1.50 1.75 1.95 2.07 2.00 1.66 1.71 1.84 1.70 1.66 1.49 1.22 1.07 0.95 0.88 0.81 0.81 0.83 0.92 1.11 1.31
0.89 0.78 0.85 0.99 0.99 1.04 1.02 1.04 1.07 1.05 1.00 0.98 0.90 0.82 0.82 0.95 1.04 1.23 1.52 1.68 1.76 1.77 1.60 1.74 2.00 1.76 1.69 1.50 1.30 1.18 1.06 0.96 0.84 0.75 0.72 0.87 1.01 1.19
0.95 1.02 0.96 0.99 1.00 0.94 0.93 0.97 0.98 0.95 1.01 0.98 0.84 0.71 0.68 0.79 0.92 1.09 1.33 1.54 1.65 1.66 1.66 1.67 1.81 1.79 1.80 1.64 1.28 1.13 1.15 1.15 0.99 0.85 0.77 0.74 0.77 0.92
0.95 1.03 1.05 0.99 0.97 0.94 0.91 0.89 0.87 0.90 0.94 0.89 0.76 0.68 0.69 0.81 0.96 1.08 1.27 1.45 1.66 1.67 1.62 1.65 1.80 2.00 1.99 1.58 1.36 1.22 1.09 1.19 1.12 0.96 0.86 0.80 0.75 0.77
1.22 1.20 1.15 1.10 1.09 0.98 0.89 0.84 0.83 0.89 0.92 0.82 0.79 0.81 0.84 0.90 0.96 1.02 1.18 1.33 1.51 1.48 1.51 1.66 1.81 1.96 2.06 1.93 1.70 1.37 1.15 1.08 1.06 1.03 0.97 0.91 0.88 0.85
1.26 1.24 1.09 0.98 0.95 0.89 0.88 0.87 0.83 0.80 0.79 0.80 0.84 0.85 0.88 0.91 0.94 0.96 1.08 1.23 1.33 1.31 1.35 1.51 1.74 1.98 2.18 2.29 2.00 1.54 1.26 1.14 1.11 1.09 1.01 0.97 0.99 0.98
1.02 0.94 0.86 0.82 0.82 0.81 0.81 0.81 0.78 0.71 0.74 0.81 0.85 0.85 0.87 0.91 0.94 0.97 1.02 1.13 1.20 1.22 1.28 1.40 1.60 1.83 1.92 1.95 2.05 1.74 1.43 1.26 1.21 1.24 1.16 1.00 0.99 1.01
0.81 0.78 0.77 0.75 0.77 0.79 0.77 0.74 0.73 0.72 0.76 0.80 0.82 0.81 0.84 0.89 0.92 0.91 0.93 1.03 1.10 1.15 1.21 1.31 1.47 1.68 1.80 1.69 1.74 1.79 1.71 1.46 1.30 1.31 1.29 1.18 1.14 1.18
0.73 0.71 0.71 0.75 0.75 0.74 0.72 0.71 0.71 0.70 0.69 0.73 0.77 0.78 0.80 0.86 0.87 0.81 0.84 0.94 1.05 1.09 1.11 1.10 1.23 1.48 1.74 1.80 1.74 1.62 1.68 1.77 1.52 1.34 1.29 1.31 1.31 1.30
0.66 0.67 0.67 0.70 0.75 0.77 0.74 0.71 0.71 0.69 0.68 0.70 0.71 0.72 0.75 0.82 0.84 0.81 0.84 0.91 0.94 0.97 1.02 1.05 1.14 1.38 1.71 1.87 1.75 1.58 1.59 1.77 1.92 1.73 1.43 1.29 1.36 1.45
0.68 0.67 0.66 0.67 0.72 0.76 0.79 0.76 0.72 0.66 0.64 0.67 0.68 0.68 0.71 0.77 0.77 0.80 0.82 0.84 0.89 0.92 0.99 1.08 1.15 1.30 1.54 1.70 1.78 1.71 1.60 1.59 1.68 1.76 1.83 1.56 1.24 1.16

GEFSNE_prec_meanprecacc_228.txt.gz
Total_Precipitation_Accumulation
0.58 0.58 0.61 0.56 0.54 0.53 0.56 0.71 0.93 0.78 0.39 0.20 0.18 0.20 0.26 0.32 0.41 0.47 0.45 0.54 0.60 0.65 0.75 0.85 0.90 0.94 1.08 1.42 2.14 3.02 3.70 3.83 3.50 2.98 2.71 2.89 3.22 3.67
0.65 0.66 0.67 0.65 0.63 0.61 0.62 0.64 0.79 0.95 0.68 0.27 0.22 0.23 0.29 0.34 0.43 0.46 0.44 0.52 0.57 0.62 0.65 0.70 0.80 0.91 1.02 1.16 1.47 2.14 2.92 3.54 3.79 3.69 3.43 3.32 3.48 3.79
0.76 0.78 0.72 0.69 0.73 0.71 0.70 0.70 0.71 0.84 0.85 0.37 0.24 0.27 0.38 0.46 0.45 0.45 0.45 0.46 0.48 0.56 0.62 0.64 0.68 0.76 0.88 1.02 1.18 1.56 2.23 2.89 3.49 3.86 4.02 3.94 3.86 3.84
0.84 0.84 0.81 0.79 0.80 0.79 0.83 0.81 0.75 0.73 0.84 0.61 0.33 0.31 0.36 0.45 0.48 0.49 0.47 0.46 0.45 0.51 0.57 0.64 0.69 0.74 0.80 0.91 1.06 1.23 1.60 2.14 2.75 3.32 3.70 3.79 3.78 3.99
0.88 0.93 0.91 0.91 0.91 0.88 0.90 0.91 0.87 0.78 0.79 0.79 0.52 0.38 0.39 0.46 0.55 0.56 0.53 0.54 0.52 0.55 0.57 0.64 0.72 0.77 0.80 0.87 0.98 1.11 1.23 1.48 1.90 2.55 3.20 3.48 3.50 3.58
0.91 0.96 1.00 1.05 1.05 1.06 1.13 1.11 1.08 1.06 0.98 0.95 0.76 0.58 0.55 0.56 0.67 0.69 0.63 0.60 0.63 0.62 0.64 0.64 0.69 0.76 0.78 0.79 0.81 0.89 1.06 1.34 1.66 2.05 2.61 3.05 3.17 3.19
0.98 0.98 0.99 1.09 1.24 1.40 1.53 1.46 1.35 1.36 1.29 1.24 1.07 0.87 0.74 0.76 0.85 0.79 0.79 0.70 0.72 0.74 0.72 0.67 0.65 0.64 0.69 0.78 0.86 0.91 0.98 1.15 1.39 1.74 2.17 2.62 2.93 3.00
0.94 0.88 0.88 0.94 1.03 1.17 1.35 1.37 1.35 1.49 1.56 1.49 1.32 1.13 0.88 0.80 0.90 1.03 1.10 1.10 0.99 0.83 0.84 0.82 0.77 0.77 0.75 0.76 0.88 0.94 1.02 1.15 1.28 1.48 1.83 2.19 2.56 2.89
0.78 0.75 0.73 0.76 0.86 0.83 0.96 1.03 1.09 1.18 1.36 1.49 1.53 1.26 1.05 0.96 1.14 1.31 1.32 1.29 1.04 0.89 1.03 1.13 1.01 0.95 0.88 0.90 0.98 0.94 1.00 1.10 1.24 1.35 1.50 1.80 2.16 2.57
0.74 0.73 0.71 0.70 0.76 0.90 0.98 0.94 0.86 0.86 1.04 1.25 1.43 1.32 1.21 1.24 1.47 1.70 1.77 1.78 1.49 1.19 1.16 1.37 1.23 1.16 1.09 1.03 1.04 0.95 0.97 1.01 1.09 1.22 1.39 1.58 1.82 2.15
0.79 0.81 0.81 0.72 0.81 1.00 1.07 1.01 0.86 0.78 0.86 1.09 1.31 1.42 1.50 1.65 1.89 2.19 2.29 2.34 2.15 1.73 1.46 1.47 1.39 1.31 1.28 1.23 1.17 1.10 1.03 1.00 0.99 1.07 1.23 1.42 1.66 1.93
0.82 0.86 0.99 0.96 0.96 1.02 1.05 1.09 1.05 0.84 0.75 0.82 0.90 1.02 1.13 1.30 1.63 1.89 2.05 2.23 2.19 2.07 1.71 1.60 1.60 1.56 1.68 1.42 1.21 1.11 1.06 1.08 1.02 0.97 1.02 1.17 1.43 1.63
0.89 0.92 0.95 1.04 1.02 1.03 1.07 1.07 1.10 0.98 0.89 0.92 0.91 0.89 0.95 1.09 1.28 1.55 1.81 2.02 2.14 2.05 1.70 1.77 1.93 1.79 1.75 1.56 1.30 1.15 1.06 1.00 0.92 0.91 0.93 1.02 1.22 1.41
0.92 0.81 0.87 1.03 1.03 1.07 1.05 1.07 1.11 1.09 1.03 1.00 0.93 0.84 0.85 0.98 1.09 1.29 1.58 1.74 1.83 1.83 1.66 1.82 2.10 1.86 1.78 1.59 1.39 1.28 1.17 1.09 0.96 0.86 0.82 0.98 1.11 1.28
1.00 1.06 1.00 1.03 1.04 0.99 0.97 1.02 1.03 1.00 1.06 1.03 0.88 0.74 0.71 0.83 0.97 1.16 1.40 1.63 1.73 1.74 1.73 1.75 1.92 1.90 1.91 1.75 1.38 1.24 1.27 1.27 1.10 0.97 0.88 0.83 0.85 1.01
0.99 1.07 1.08 1.03 1.02 0.99 0.97 0.95 0.91 0.95 0.99 0.94 0.81 0.72 0.73 0.86 1.02 1.15 1.34 1.52 1.75 1.75 1.70 1.73 1.90 2.12 2.10 1.69 1.45 1.31 1.19 1.31 1.24 1.10 0.98 0.90 0.83 0.83
1.25 1.23 1.18 1.13 1.13 1.04 0.96 0.90 0.89 0.94 0.97 0.86 0.83 0.85 0.88 0.95 1.03 1.08 1.24 1.39 1.58 1.55 1.58 1.74 1.91 2.07 2.17 2.03 1.80 1.46 1.25 1.19 1.18 1.15 1.08 1.02 0.97 0.91
1.30 1.27 1.13 1.02 0.99 0.96 0.95 0.94 0.89 0.85 0.84 0.85 0.88 0.89 0.92 0.95 0.99 1.02 1.13 1.29 1.39 1.37 1.42 1.58 1.82 2.06 2.27 2.38 2.09 1.64 1.37 1.26 1.23 1.19 1.10 1.06 1.07 1.06
1.06 0.99 0.92 0.88 0.89 0.89 0.89 0.89 0.84 0.75 0.78 0.86 0.90 0.90 0.92 0.96 1.01 1.03 1.08 1.19 1.27 1.29 1.35 1.47 1.67 1.90 1.98 2.02 2.13 1.84 1.52 1.37 1.31 1.34 1.25 1.09 1.08 1.09
0.86 0.83 0.83 0.82 0.85 0.88 0.85 0.82 0.79 0.78 0.81 0.85 0.88 0.88 0.90 0.96 0.99 0.97 1.00 1.09 1.17 1.22 1.29 1.39 1.55 1.75 1.86 1.74 1.82 1.88 1.80 1.55 1.38 1.39 1.38 1.28 1.23 1.27
0.76 0.76 0.76 0.81 0.82 0.82 0.79 0.78 0.78 0.77 0.76 0.80 0.83 0.85 0.86 0.92 0.93 0.87 0.90 1.00 1.10 1.15 1.18 1.18 1.31 1.55 1.80 1.86 1.80 1.69 1.76 1.85 1.60 1.41 1.36 1.38 1.38 1.37
0.69 0.71 0.71 0.75 0.81 0.84 0.81 0.79 0.79 0.75 0.74 0.77 0.78 0.79 0.82 0.87 0.88 0.85 0.89 0.96 0.99 1.02 1.08 1.12 1.21 1.44 1.76 1.93 1.82 1.64 1.65 1.84 2.01 1.81 1.50 1.34 1.41 1.50
0.71 0.70 0.70 0.71 0.76 0.81 0.84 0.83 0.79 0.73 0.71 0.74 0.75 0.74 0.76 0.82 0.82 0.85 0.87 0.89 0.94 0.97 1.04 1.14 1.20 1.35 1.60 1.76 1.84 1.76 1.65 1.65 1.75 1.84 1.89 1.61 1.29 1.21

GEFSNE_prec_meanprecacc_234.txt.gz
Total_Precipitation_Accumulation
0.60 0.60 0.63 0.59 0.56 0.55 0.58 0.72 0.95 0.79 0.39 0.20 0.18 0.21 0.26 0.33 0.42 0.47 0.46 0.54 0.61 0.65 0.76 0.86 0.93 0.97 1.12 1.46 2.18 3.06 3.75 3.89 3.57 3.05 2.78 2.96 3.28 3.72
0.67 0.68 0.69 0.67 0.64 0.62 0.63 0.65 0.80 0.96 0.69 0.28 0.22 0.23 0.30 0.35 0.43 0.47 0.45 0.53 0.58 0.63 0.67 0.72 0.82 0.94 1.05 1.19 1.50 2.17 2.95 3.58 3.83 3.74 3.49 3.39 3.56 3.86
0.78 0.80 0.74 0.70 0.74 0.72 0.71 0.71 0.72 0.85 0.86 0.38 0.24 0.27 0.38 0.47 0.47 0.46 0.45 0.46 0.49 0.58 0.63 0.66 0.70 0.79 0.92 1.05 1.21 1.59 2.26 2.92 3.52 3.89 4.06 3.99 3.92 3.92
0.87 0.87 0.83 0.81 0.81 0.80 0.84 0.82 0.76 0.74 0.84 0.62 0.33 0.31 0.37 0.46 0.50 0.51 0.49 0.47 0.46 0.53 0.59 0.66 0.71 0.77 0.84 0.95 1.09 1.26 1.64 2.18 2.78 3.34 3.74 3.84 3.85 4.05
0.90 0.95 0.94 0.94 0.93 0.90 0.91 0.92 0.87 0.79 0.80 0.80 0.52 0.38 0.40 0.46 0.56 0.57 0.55 0.56 0.54 0.57 0.60 0.66 0.75 0.80 0.83 0.90 1.02 1.15 1.27 1.52 1.94 2.59 3.25 3.54 3.56 3.62
0.93 0.98 1.02 1.07 1.07 1.09 1.15 1.13 1.10 1.08 1.00 0.96 0.78 0.59 0.55 0.56 0.67 0.69 0.64 0.62 0.65 0.64 0.66 0.66 0.72 0.78 0.81 0.82 0.85 0.93 1.10 1.40 1.72 2.11 2.67 3.11 3.21 3.22
1.01 1.00 1.02 1.11 1.25 1.42 1.55 1.48 1.37 1.38 1.31 1.25 1.09 0.88 0.75 0.76 0.85 0.80 0.80 0.71 0.73 0.75 0.74 0.69 0.67 0.66 0.72 0.82 0.91 0.97 1.04 1.21 1.46 1.80 2.22 2.66 2.97 3.04
0.97 0.90 0.90 0.96 1.04 1.19 1.37 1.39 1.37 1.51 1.58 1.50 1.34 1.15 0.89 0.81 0.91 1.04 1.11 1.11 1.01 0.84 0.85 0.84 0.79 0.79 0.77 0.79 0.93 1.00 1.09 1.23 1.36 1.55 1.89 2.23 2.60 2.93
0.79 0.77 0.76 0.78 0.87 0.84 0.97 1.05 1.10 1.20 1.37 1.51 1.55 1.27 1.06 0.97 1.15 1.33 1.34 1.30 1.06 0.90 1.04 1.15 1.03 0.98 0.91 0.93 1.03 0.99 1.07 1.19 1.32 1.44 1.58 1.86 2.21 2.61
0.74 0.74 0.72 0.71 0.77 0.92 0.99 0.96 0.88 0.88 1.06 1.26 1.44 1.33 1.22 1.26 1.50 1.73 1.80 1.80 1.51 1.20 1.18 1.39 1.25 1.19 1.13 1.09 1.10 1.02 1.05 1.10 1.18 1.32 1.48 1.65 1.87 2.20
0.80 0.81 0.81 0.72 0.82 1.01 1.09 1.03 0.87 0.80 0.87 1.11 1.33 1.44 1.52 1.68 1.92 2.22 2.32 2.37 2.18 1.75 1.47 1.50 1.41 1.35 1.34 1.30 1.25 1.18 1.10 1.09 1.08 1.17 1.32 1.49 1.72 1.99
0.83 0.87 1.00 0.97 0.97 1.04 1.07 1.11 1.07 0.85 0.76 0.83 0.93 1.04 1.15 1.33 1.66 1.91 2.08 2.28 2.23 2.10 1.72 1.63 1.63 1.60 1.74 1.48 1.28 1.18 1.12 1.15 1.10 1.04 1.08 1.22 1.48 1.68
0.91 0.93 0.96 1.05 1.03 1.05 1.09 1.09 1.12 1.00 0.91 0.94 0.93 0.91 0.97 1.12 1.31 1.57 1.83 2.06 2.19 2.09 1.72 1.80 1.97 1.83 1.81 1.62 1.36 1.22 1.12 1.05 0.98 0.96 0.98 1.06 1.26 1.45
0.94 0.83 0.89 1.05 1.05 1.10 1.08 1.10 1.14 1.12 1.06 1.03 0.95 0.86 0.87 1.01 1.11 1.31 1.61 1.77 1.86 1.87 1.69 1.86 2.15 1.91 1.85 1.66 1.46 1.34 1.22 1.14 1.01 0.91 0.86 1.02 1.16 1.33
1.02 1.09 1.02 1.05 1.07 1.01 1.00 1.06 1.07 1.03 1.08 1.06 0.91 0.77 0.73 0.85 1.00 1.18 1.43 1.65 1.76 1.77 1.76 1.78 1.97 1.97 1.98 1.82 1.46 1.31 1.33 1.33 1.15 1.01 0.93 0.87 0.90 1.07
1.03 1.11 1.12 1.07 1.05 1.02 1.00 0.98 0.95 0.98 1.03 0.98 0.84 0.75 0.76 0.89 1.05 1.17 1.36 1.55 1.79 1.79 1.74 1.77 1.95 2.18 2.17 1.76 1.53 1.39 1.27 1.38 1.30 1.15 1.03 0.94 0.89 0.88
1.29 1.27 1.22 1.17 1.16 1.07 0.99 0.94 0.92 0.97 1.01 0.90 0.87 0.88 0.91 0.98 1.06 1.11 1.27 1.43 1.63 1.60 1.63 1.80 1.98 2.15 2.25 2.11 1.89 1.54 1.32 1.25 1.23 1.20 1.13 1.07 1.02 0.97
1.34 1.32 1.17 1.06 1.03 0.99 0.99 0.97 0.92 0.88 0.87 0.88 0.91 0.93 0.95 0.99 1.03 1.05 1.17 1.33 1.44 1.43 1.48 1.64 1.89 2.13 2.34 2.45 2.16 1.71 1.43 1.32 1.28 1.25 1.16 1.11 1.13 1.12
1.09 1.02 0.95 0.92 0.93 0.93 0.92 0.92 0.88 0.78 0.81 0.90 0.95 0.94 0.96 1.01 1.05 1.07 1.12 1.24 1.32 1.36 1.43 1.54 1.75 1.97 2.05 2.08 2.19 1.90 1.59 1.43 1.38 1.40 1.31 1.14 1.12 1.14
0.89 0.87 0.87 0.86 0.89 0.91 0.89 0.86 0.84 0.81 0.85 0.89 0.92 0.92 0.95 1.00 1.03 1.02 1.04 1.14 1.22 1.28 1.35 1.45 1.61 1.81 1.93 1.80 1.87 1.94 1.87 1.62 1.44 1.45 1.44 1.33 1.28 1.32
0.79 0.79 0.80 0.85 0.86 0.85 0.83 0.82 0.82 0.82 0.80 0.84 0.88 0.90 0.91 0.97 0.97 0.91 0.94 1.04 1.15 1.19 1.22 1.23 1.36 1.60 1.85 1.92 1.86 1.76 1.84 1.92 1.66 1.46 1.41 1.43 1.44 1.42
0.71 0.73 0.74 0.78 0.85 0.87 0.84 0.82 0.82 0.79 0.79 0.82 0.82 0.83 0.85 0.91 0.92 0.89 0.93 1.00 1.02 1.05 1.11 1.16 1.24 1.48 1.81 1.98 1.88 1.70 1.71 1.90 2.07 1.86 1.54 1.39 1.47 1.57
0.73 0.72 0.71 0.73 0.78 0.84 0.87 0.86 0.82 0.76 0.75 0.78 0.79 0.78 0.80 0.86 0.85 0.88 0.90 0.93 0.97 1.00 1.07 1.17 1.24 1.39 1.65 1.81 1.90 1.82 1.70 1.71 1.81 1.91 1.97 1.68 1.34 1.26

GEFSNE_prec_meanprecacc_240.txt.gz
Total_Precipitation_Accumulation
0.62 0.63 0.65 0.60 0.57 0.56 0.60 0.74 0.97 0.81 0.40 0.21 0.19 0.21 0.27 0.33 0.42 0.47 0.46 0.55 0.61 0.66 0.76 0.87 0.93 0.98 1.14 1.48 2.20 3.09 3.78 3.93 3.62 3.10 2.84 3.03 3.39 3.85
0.69 0.70 0.71 0.68 0.66 0.64 0.64 0.67 0.81 0.97 0.70 0.28 0.23 0.24 0.30 0.35 0.43 0.47 0.46 0.53 0.59 0.64 0.68 0.73 0.84 0.95 1.07 1.21 1.52 2.20 2.97 3.61 3.87 3.79 3.55 3.46 3.64 3.96
0.81 0.82 0.76 0.72 0.76 0.73 0.72 0.72 0.73 0.86 0.87 0.38 0.25 0.28 0.39 0.47 0.47 0.47 0.46 0.48 0.50 0.59 0.64 0.67 0.72 0.81 0.94 1.07 1.23 1.61 2.29 2.96 3.56 3.94 4.12 4.04 3.98 4.00
0.89 0.89 0.85 0.83 0.83 0.81 0.86 0.84 0.77 0.76 0.86 0.64 0.35 0.32 0.38 0.47 0.51 0.52 0.50 0.49 0.48 0.54 0.61 0.67 0.72 0.78 0.85 0.97 1.12 1.29 1.67 2.22 2.82 3.39 3.78 3.89 3.90 4.11
0.91 0.96 0.95 0.95 0.95 0.92 0.93 0.94 0.90 0.81 0.83 0.83 0.54 0.40 0.41 0.48 0.58 0.59 0.57 0.59 0.56 0.59 0.61 0.67 0.76 0.81 0.85 0.92 1.04 1.18 1.30 1.56 1.98 2.63 3.30 3.59 3.61 3.68
0.94 0.98 1.02 1.07 1.08 1.10 1.16 1.15 1.12 1.11 1.03 0.99 0.80 0.61 0.57 0.58 0.69 0.71 0.65 0.63 0.67 0.65 0.68 0.67 0.72 0.79 0.82 0.84 0.87 0.94 1.12 1.43 1.75 2.13 2.70 3.15 3.27 3.28
1.01 1.00 1.02 1.11 1.25 1.42 1.56 1.49 1.39 1.41 1.35 1.29 1.11 0.90 0.77 0.78 0.86 0.81 0.81 0.72 0.75 0.77 0.74 0.69 0.68 0.67 0.72 0.83 0.92 0.98 1.05 1.23 1.48 1.82 2.25 2.70 3.01 3.08
0.97 0.91 0.90 0.97 1.05 1.19 1.38 1.40 1.39 1.54 1.61 1.53 1.36 1.17 0.90 0.82 0.91 1.05 1.12 1.13 1.02 0.84 0.86 0.84 0.80 0.80 0.78 0.80 0.94 1.01 1.10 1.25 1.38 1.57 1.92 2.27 2.64 2.97
0.79 0.78 0.76 0.78 0.88 0.84 0.98 1.06 1.11 1.21 1.39 1.53 1.57 1.29 1.07 0.98 1.17 1.35 1.36 1.33 1.07 0.91 1.05 1.16 1.03 0.98 0.91 0.94 1.04 1.01 1.09 1.21 1.35 1.47 1.62 1.90 2.25 2.65
0.75 0.74 0.72 0.71 0.77 0.92 1.00 0.97 0.89 0.89 1.06 1.27 1.45 1.35 1.24 1.27 1.52 1.77 1.84 1.84 1.53 1.22 1.19 1.41 1.26 1.20 1.14 1.10 1.11 1.03 1.07 1.12 1.21 1.36 1.52 1.70 1.92 2.25
0.80 0.82 0.82 0.73 0.82 1.03 1.10 1.05 0.89 0.81 0.88 1.12 1.34 1.46 1.54 1.71 1.95 2.26 2.35 2.40 2.21 1.76 1.48 1.51 1.42 1.35 1.35 1.30 1.26 1.20 1.13 1.12 1.12 1.21 1.36 1.54 1.77 2.04
0.83 0.87 1.00 0.98 0.98 1.05 1.08 1.13 1.09 0.87 0.78 0.85 0.94 1.06 1.17 1.35 1.69 1.94 2.12 2.32 2.26 2.12 1.74 1.64 1.64 1.62 1.75 1.49 1.29 1.20 1.15 1.19 1.14 1.08 1.12 1.27 1.52 1.72
0.91 0.94 0.97 1.06 1.04 1.07 1.11 1.11 1.15 1.03 0.93 0.96 0.94 0.92 0.99 1.14 1.32 1.58 1.85 2.09 2.24 2.13 1.75 1.83 2.00 1.86 1.84 1.64 1.37 1.24 1.15 1.09 1.02 1.00 1.02 1.11 1.30 1.49
0.95 0.83 0.89 1.06 1.06 1.11 1.09 1.12 1.16 1.14 1.07 1.05 0.97 0.88 0.89 1.02 1.13 1.33 1.62 1.80 1.90 1.91 1.72 1.89 2.20 1.95 1.89 1.70 1.49 1.37 1.26 1.18 1.05 0.95 0.90 1.07 1.21 1.38
1.03 1.10 1.04 1.07 1.08 1.02 1.01 1.07 1.09 1.04 1.10 1.08 0.93 0.78 0.75 0.87 1.02 1.21 1.45 1.68 1.78 1.79 1.78 1.80 2.00 2.00 2.02 1.87 1.50 1.35 1.38 1.38 1.20 1.06 0.97 0.92 0.96 1.12
1.04 1.13 1.15 1.09 1.07 1.03 1.01 1.00 0.96 1.00 1.05 1.00 0.87 0.77 0.77 0.91 1.08 1.20 1.39 1.58 1.81 1.82 1.75 1.79 1.97 2.22 2.22 1.81 1.59 1.45 1.33 1.44 1.35 1.19 1.08 1.00 0.95 0.94
1.31 1.29 1.24 1.18 1.18 1.09 1.01 0.95 0.94 1.00 1.04 0.92 0.89 0.91 0.93 1.00 1.08 1.14 1.30 1.46 1.66 1.62 1.65 1.82 2.00 2.18 2.31 2.18 1.96 1.61 1.39 1.32 1.29 1.25 1.19 1.13 1.09 1.03
1.36 1.34 1.19 1.08 1.05 1.02 1.02 1.00 0.95 0.91 0.90 0.92 0.95 0.96 0.98 1.01 1.05 1.07 1.19 1.36 1.47 1.46 1.51 1.67 1.92 2.18 2.39 2.51 2.23 1.78 1.50 1.39 1.35 1.31 1.21 1.17 1.18 1.16
1.11 1.04 0.98 0.95 0.96 0.96 0.96 0.96 0.91 0.82 0.85 0.94 0.99 0.99 1.00 1.04 1.08 1.10 1.15 1.26 1.35 1.39 1.46 1.58 1.79 2.02 2.10 2.13 2.24 1.95 1.66 1.50 1.44 1.47 1.38 1.19 1.17 1.19
0.90 0.89 0.89 0.89 0.92 0.95 0.92 0.90 0.88 0.85 0.89 0.93 0.97 0.97 1.01 1.06 1.08 1.05 1.08 1.18 1.26 1.32 1.40 1.50 1.66 1.87 1.99 1.86 1.92 1.98 1.91 1.67 1.50 1.51 1.49 1.37 1.31 1.36
0.80 0.81 0.82 0.87 0.89 0.88 0.86 0.86 0.86 0.86 0.85 0.89 0.93 0.95 0.98 1.03 1.03 0.96 0.99 1.09 1.19 1.23 1.27 1.27 1.39 1.64 1.91 1.97 1.90 1.80 1.88 1.97 1.71 1.51 1.45 1.47 1.47 1.47
0.73 0.75 0.76 0.80 0.87 0.90 0.87 0.85 0.86 0.83 0.83 0.86 0.87 0.88 0.91 0.96 0.98 0.94 0.97 1.05 1.06 1.08 1.14 1.18 1.27 1.51 1.86 2.03 1.92 1.74 1.76 1.95 2.11 1.90 1.59 1.44 1.52 1.63
0.75 0.75 0.74 0.75 0.80 0.86 0.89 0.88 0.85 0.78 0.77 0.82 0.83 0.82 0.84 0.90 0.88 0.91 0.94 0.97 1.01 1.03 1.10 1.20 1.27 1.43 1.69 1.85 1.94 1.86 1.74 1.74 1.85 1.95 2.03 1.74 1.39 1.31

GEFSNE_prec_meanprecacc_246.txt.gz
Total_Precipitation_Accumulation
0.64 0.65 0.69 0.63 0.60 0.58 0.61 0.75 0.98 0.82 0.41 0.21 0.19 0.21 0.27 0.34 0.43 0.48 0.47 0.55 0.62 0.67 0.78 0.88 0.94 0.99 1.15 1.49 2.22 3.11 3.81 3.97 3.67 3.15 2.88 3.07 3.42 3.89
0.70 0.72 0.73 0.70 0.68 0.65 0.66 0.68 0.83 0.99 0.72 0.29 0.23 0.24 0.31 0.36 0.45 0.48 0.46 0.54 0.60 0.66 0.69 0.75 0.86 0.97 1.09 1.23 1.55 2.24 3.02 3.66 3.91 3.83 3.58 3.49 3.68 4.00
0.82 0.83 0.78 0.74 0.78 0.75 0.74 0.73 0.75 0.87 0.89 0.40 0.25 0.28 0.39 0.48 0.48 0.47 0.47 0.48 0.51 0.60 0.66 0.69 0.74 0.83 0.97 1.10 1.26 1.64 2.32 2.99 3.58 3.97 4.15 4.08 4.02 4.03
0.90 0.90 0.86 0.84 0.85 0.83 0.87 0.86 0.79 0.77 0.88 0.65 0.36 0.33 0.38 0.47 0.51 0.52 0.51 0.49 0.48 0.55 0.62 0.68 0.73 0.80 0.87 0.99 1.14 1.31 1.69 2.24 2.83 3.41 3.81 3.92 3.94 4.14
0.92 0.97 0.96 0.97 0.96 0.93 0.94 0.96 0.91 0.83 0.84 0.84 0.55 0.40 0.42 0.48 0.58 0.59 0.57 0.59 0.57 0.59 0.62 0.69 0.77 0.82 0.86 0.94 1.06 1.20 1.32 1.58 1.99 2.65 3.32 3.61 3.63 3.70
0.94 0.99 1.03 1.08 1.09 1.11 1.17 1.16 1.13 1.12 1.04 1.01 0.81 0.62 0.58 0.58 0.69 0.71 0.66 0.64 0.68 0.66 0.68 0.68 0.73 0.80 0.83 0.85 0.89 0.96 1.14 1.45 1.77 2.15 2.71 3.16 3.28 3.29
1.01 1.01 1.02 1.11 1.26 1.43 1.57 1.50 1.40 1.43 1.36 1.30 1.13 0.91 0.77 0.78 0.87 0.81 0.82 0.73 0.75 0.77 0.75 0.70 0.68 0.68 0.73 0.84 0.93 0.99 1.06 1.24 1.49 1.83 2.26 2.71 3.03 3.10
0.98 0.91 0.90 0.97 1.05 1.20 1.39 1.41 1.40 1.55 1.63 1.55 1.38 1.18 0.92 0.83 0.93 1.06 1.13 1.14 1.03 0.85 0.87 0.85 0.80 0.81 0.79 0.80 0.94 1.02 1.11 1.25 1.39 1.58 1.93 2.28 2.66 2.99
0.80 0.78 0.76 0.78 0.88 0.85 0.98 1.06 1.12 1.22 1.40 1.54 1.59 1.31 1.08 0.99 1.18 1.37 1.38 1.35 1.09 0.92 1.06 1.17 1.04 0.99 0.92 0.95 1.05 1.01 1.09 1.22 1.36 1.48 1.63 1.91 2.27 2.66
0.75 0.74 0.72 0.71 0.77 0.93 1.01 0.97 0.89 0.89 1.07 1.27 1.46 1.36 1.25 1.29 1.56 1.81 1.87 1.86 1.55 1.22 1.20 1.42 1.26 1.20 1.15 1.10 1.12 1.04 1.07 1.13 1.22 1.36 1.53 1.71 1.94 2.26
0.80 0.82 0.82 0.73 0.83 1.03 1.11 1.05 0.89 0.81 0.89 1.13 1.35 1.47 1.56 1.72 1.97 2.28 2.38 2.43 2.23 1.77 1.50 1.53 1.43 1.36 1.35 1.31 1.27 1.21 1.14 1.13 1.13 1.22 1.37 1.56 1.80 2.06
0.83 0.87 1.01 0.98 0.98 1.06 1.09 1.14 1.11 0.88 0.78 0.86 0.95 1.07 1.18 1.36 1.70 1.96 2.14 2.34 2.29 2.15 1.75 1.66 1.66 1.63 1.77 1.49 1.29 1.21 1.16 1.19 1.14 1.09 1.14 1.29 1.55 1.75
0.92 0.94 0.97 1.06 1.05 1.08 1.12 1.13 1.16 1.04 0.94 0.97 0.95 0.93 1.00 1.15 1.34 1.60 1.87 2.12 2.27 2.15 1.76 1.85 2.02 1.88 1.87 1.66 1.38 1.24 1.16 1.10 1.02 1.01 1.03 1.13 1.33 1.52
0.96 0.84 0.90 1.06 1.07 1.12 1.10 1.12 1.17 1.16 1.09 1.06 0.98 0.89 0.90 1.03 1.14 1.34 1.65 1.82 1.93 1.94 1.74 1.93 2.24 1.98 1.93 1.73 1.51 1.38 1.26 1.19 1.06 0.96 0.91 1.09 1.24 1.42
1.05 1.12 1.05 1.08 1.09 1.03 1.02 1.08 1.10 1.05 1.11 1.09 0.94 0.80 0.77 0.89 1.04 1.22 1.47 1.69 1.80 1.82 1.81 1.83 2.03 2.03 2.06 1.90 1.53 1.37 1.39 1.38 1.21 1.07 0.99 0.95 0.99 1.15
1.06 1.15 1.16 1.10 1.08 1.04 1.02 1.01 0.98 1.02 1.08 1.02 0.88 0.78 0.79 0.92 1.10 1.22 1.41 1.60 1.84 1.84 1.77 1.80 1.99 2.24 2.25 1.84 1.61 1.47 1.35 1.46 1.37 1.21 1.10 1.02 0.98 0.98
1.33 1.31 1.25 1.19 1.19 1.10 1.01 0.96 0.96 1.02 1.06 0.94 0.91 0.93 0.95 1.01 1.10 1.16 1.33 1.49 1.69 1.65 1.67 1.83 2.02 2.20 2.33 2.20 1.98 1.63 1.41 1.34 1.32 1.28 1.22 1.17 1.13 1.08
1.38 1.35 1.20 1.09 1.06 1.03 1.03 1.01 0.96 0.92 0.92 0.93 0.97 0.98 1.01 1.03 1.07 1.10 1.22 1.39 1.50 1.48 1.53 1.70 1.94 2.20 2.41 2.53 2.25 1.80 1.52 1.41 1.38 1.35 1.26 1.22 1.24 1.22
1.11 1.05 0.98 0.96 0.96 0.96 0.96 0.97 0.92 0.83 0.86 0.96 1.01 1.01 1.02 1.07 1.11 1.12 1.18 1.29 1.38 1.42 1.50 1.62 1.83 2.06 2.14 2.15 2.26 1.97 1.68 1.53 1.47 1.50 1.42 1.24 1.22 1.24
0.91 0.89 0.90 0.89 0.92 0.96 0.93 0.91 0.89 0.86 0.90 0.95 0.98 0.99 1.03 1.09 1.11 1.08 1.11 1.21 1.29 1.35 1.43 1.54 1.70 1.91 2.04 1.91 1.97 2.01 1.94 1.71 1.53 1.54 1.52 1.40 1.35 1.39
0.81 0.81 0.82 0.88 0.89 0.89 0.87 0.87 0.88 0.87 0.86 0.90 0.94 0.98 1.00 1.07 1.07 1.00 1.02 1.12 1.23 1.27 1.31 1.31 1.43 1.69 1.96 2.02 1.96 1.84 1.91 2.01 1.74 1.54 1.49 1.51 1.51 1.51
0.74 0.76 0.77 0.81 0.88 0.91 0.88 0.86 0.87 0.84 0.84 0.88 0.89 0.90 0.93 0.99 1.01 0.97 1.01 1.08 1.10 1.13 1.19 1.23 1.31 1.55 1.91 2.09 1.97 1.78 1.79 1.98 2.14 1.94 1.64 1.49 1.58 1.70
0.77 0.76 0.75 0.77 0.82 0.87 0.91 0.90 0.86 0.79 0.78 0.83 0.84 0.84 0.86 0.92 0.91 0.94 0.97 1.00 1.04 1.07 1.14 1.24 1.30 1.46 1.73 1.89 1.98 1.90 1.77 1.78 1.88 1.99 2.07 1.79 1.44 1.35

GEFSNE_prec_meanprecacc_252.txt.gz
Total_Precipitation_Accumulation
0.65 0.66 0.69 0.64 0.60 0.59 0.62 0.77 1.00 0.84 0.42 0.22 0.20 0.23 0.28 0.35 0.43 0.48 0.47 0.56 0.62 0.68 0.78 0.89 0.95 1.01 1.17 1.51 2.24 3.13 3.84 4.00 3.70 3.18 2.93 3.15 3.50 3.98
0.71 0.73 0.74 0.71 0.68 0.66 0.67 0.69 0.84 1.00 0.73 0.29 0.24 0.25 0.32 0.37 0.45 0.49 0.47 0.54 0.60 0.66 0.70 0.76 0.87 0.99 1.11 1.26 1.58 2.28 3.08 3.73 3.98 3.90 3.66 3.57 3.76 4.06
0.83 0.84 0.79 0.75 0.79 0.76 0.75 0.74 0.75 0.88 0.90 0.40 0.26 0.29 0.40 0.49 0.48 0.48 0.47 0.49 0.51 0.61 0.67 0.70 0.75 0.85 0.99 1.13 1.30 1.68 2.37 3.04 3.64 4.02 4.21 4.13 4.06 4.07
0.91 0.91 0.87 0.85 0.85 0.84 0.89 0.87 0.79 0.78 0.88 0.66 0.36 0.33 0.39 0.48 0.52 0.53 0.51 0.50 0.48 0.56 0.62 0.69 0.75 0.81 0.89 1.01 1.16 1.34 1.72 2.27 2.86 3.44 3.84 3.95 3.97 4.17
0.93 0.98 0.97 0.97 0.97 0.94 0.95 0.97 0.92 0.84 0.85 0.85 0.57 0.41 0.43 0.49 0.59 0.60 0.58 0.60 0.57 0.60 0.63 0.69 0.78 0.84 0.88 0.96 1.09 1.22 1.35 1.60 2.02 2.68 3.35 3.64 3.66 3.72
0.96 1.00 1.04 1.08 1.10 1.11 1.18 1.16 1.14 1.13 1.06 1.03 0.83 0.63 0.59 0.59 0.70 0.72 0.67 0.65 0.68 0.66 0.69 0.68 0.74 0.81 0.85 0.87 0.91 0.98 1.16 1.47 1.80 2.18 2.73 3.19 3.30 3.31
1.03 1.02 1.03 1.12 1.26 1.43 1.57 1.51 1.41 1.44 1.38 1.32 1.14 0.92 0.78 0.79 0.88 0.82 0.83 0.74 0.76 0.77 0.76 0.71 0.69 0.68 0.74 0.84 0.94 1.00 1.08 1.26 1.51 1.84 2.27 2.73 3.04 3.11
0.99 0.92 0.91 0.97 1.05 1.20 1.39 1.42 1.42 1.57 1.65 1.57 1.40 1.19 0.92 0.83 0.93 1.07 1.14 1.15 1.04 0.85 0.87 0.86 0.81 0.81 0.79 0.81 0.95 1.02 1.12 1.26 1.39 1.59 1.94 2.30 2.68 3.02
0.81 0.79 0.77 0.79 0.89 0.85 0.99 1.07 1.12 1.23 1.41 1.56 1.61 1.32 1.09 1.00 1.20 1.39 1.40 1.36 1.10 0.92 1.07 1.17 1.04 0.99 0.92 0.95 1.05 1.02 1.10 1.22 1.36 1.49 1.64 1.93 2.29 2.69
0.77 0.75 0.74 0.72 0.78 0.94 1.02 0.98 0.89 0.89 1.07 1.28 1.47 1.37 1.26 1.31 1.58 1.83 1.89 1.88 1.56 1.23 1.21 1.42 1.26 1.20 1.15 1.10 1.12 1.04 1.08 1.13 1.22 1.37 1.55 1.73 1.96 2.29
0.81 0.83 0.82 0.74 0.83 1.04 1.12 1.06 0.90 0.82 0.89 1.14 1.36 1.48 1.57 1.73 1.99 2.31 2.40 2.45 2.24 1.78 1.50 1.53 1.44 1.37 1.36 1.31 1.27 1.21 1.14 1.13 1.13 1.23 1.39 1.58 1.82 2.09
0.84 0.88 1.01 0.98 0.99 1.07 1.11 1.16 1.12 0.88 0.79 0.86 0.96 1.08 1.19 1.36 1.71 1.98 2.16 2.38 2.32 2.16 1.76 1.67 1.66 1.64 1.78 1.50 1.29 1.21 1.16 1.20 1.15 1.10 1.15 1.31 1.57 1.77
0.93 0.95 0.97 1.07 1.06 1.09 1.14 1.14 1.18 1.05 0.95 0.97 0.96 0.93 1.00 1.15 1.35 1.61 1.88 2.14 2.30 2.17 1.77 1.87 2.04 1.90 1.89 1.67 1.38 1.24 1.16 1.10 1.03 1.01 1.04 1.14 1.34 1.54
0.96 0.85 0.91 1.08 1.09 1.14 1.11 1.13 1.18 1.17 1.10 1.07 0.99 0.89 0.90 1.04 1.15 1.35 1.65 1.83 1.95 1.96 1.76 1.95 2.27 2.01 1.96 1.76 1.52 1.38 1.27 1.19 1.07 0.97 0.92 1.10 1.25 1.43
1.06 1.13 1.07 1.10 1.11 1.04 1.02 1.09 1.10 1.06 1.11 1.10 0.95 0.81 0.77 0.90 1.04 1.23 1.47 1.70 1.81 1.83 1.82 1.85 2.06 2.06 2.10 1.95 1.56 1.39 1.41 1.40 1.22 1.08 1.00 0.96 1.00 1.17
1.08 1.17 1.17 1.11 1.09 1.05 1.03 1.01 0.98 1.03 1.09 1.03 0.89 0.79 0.80 0.93 1.10 1.23 1.43 1.62 1.86 1.86 1.80 1.83 2.02 2.28 2.30 1.88 1.65 1.51 1.38 1.49 1.39 1.23 1.12 1.04 0.99 1.00
1.35 1.33 1.26 1.20 1.20 1.11 1.02 0.97 0.96 1.02 1.07 0.95 0.92 0.93 0.96 1.02 1.10 1.17 1.34 1.51 1.71 1.67 1.69 1.85 2.04 2.23 2.36 2.23 2.01 1.65 1.43 1.36 1.34 1.30 1.25 1.19 1.15 1.10
1.40 1.37 1.21 1.10 1.07 1.03 1.04 1.02 0.97 0.93 0.93 0.94 0.97 0.99 1.01 1.04 1.08 1.10 1.23 1.41 1.52 1.50 1.55 1.71 1.96 2.23 2.44 2.55 2.27 1.82 1.54 1.43 1.40 1.38 1.29 1.26 1.27 1.25
1.13 1.06 0.99 0.96 0.97 0.97 0.97 0.98 0.93 0.84 0.87 0.97 1.01 1.02 1.03 1.08 1.12 1.13 1.19 1.31 1.40 1.43 1.51 1.63 1.85 2.09 2.17 2.18 2.28 1.99 1.71 1.55 1.50 1.54 1.45 1.28 1.26 1.28
0.92 0.90 0.91 0.90 0.93 0.96 0.94 0.92 0.89 0.87 0.91 0.95 0.99 1.00 1.04 1.10 1.12 1.09 1.11 1.22 1.30 1.36 1.44 1.54 1.72 1.95 2.08 1.95 2.00 2.04 1.97 1.74 1.57 1.58 1.55 1.44 1.39 1.44
0.82 0.82 0.83 0.88 0.90 0.90 0.88 0.88 0.88 0.88 0.87 0.91 0.95 0.99 1.01 1.08 1.08 1.01 1.03 1.13 1.24 1.28 1.32 1.32 1.44 1.71 2.00 2.06 1.99 1.87 1.94 2.04 1.78 1.59 1.54 1.57 1.57 1.56
0.75 0.77 0.78 0.82 0.88 0.92 0.89 0.87 0.88 0.85 0.85 0.89 0.90 0.91 0.94 1.00 1.02 0.99 1.02 1.09 1.11 1.14 1.20 1.24 1.32 1.57 1.93 2.12 2.01 1.81 1.82 2.01 2.18 1.98 1.69 1.55 1.66 1.78
0.78 0.77 0.76 0.78 0.83 0.88 0.92 0.91 0.87 0.81 0.79 0.84 0.85 0.84 0.87 0.93 0.92 0.95 0.98 1.01 1.05 1.08 1.15 1.25 1.31 1.48 1.75 1.92 2.02 1.93 1.81 1.81 1.92 2.03 2.11 1.83 1.48 1.40

GEFSNE_prec_meanprecacc_258.txt.gz
Total_Precipitation_Accumulation
0.65 0.67 0.70 0.65 0.61 0.59 0.62 0.77 1.00 0.84 0.42 0.22 0.20 0.23 0.29 0.36 0.44 0.49 0.48 0.57 0.63 0.68 0.79 0.89 0.96 1.02 1.18 1.53 2.25 3.15 3.86 4.02 3.73 3.21 2.96 3.19 3.53 4.02
0.72 0.73 0.74 0.72 0.69 0.66 0.67 0.69 0.84 1.00 0.73 0.29 0.24 0.25 0.32 0.37 0.46 0.49 0.48 0.55 0.61 0.67 0.71 0.77 0.88 1.00 1.12 1.28 1.60 2.30 3.10 3.75 4.02 3.96 3.72 3.63 3.82 4.12
0.84 0.85 0.79 0.75 0.79 0.77 0.75 0.75 0.75 0.88 0.90 0.40 0.26 0.29 0.40 0.49 0.49 0.48 0.48 0.49 0.51 0.61 0.67 0.71 0.76 0.86 1.00 1.14 1.31 1.70 2.39 3.06 3.66 4.06 4.27 4.20 4.13 4.14
0.93 0.92 0.88 0.86 0.86 0.85 0.89 0.87 0.80 0.78 0.89 0.67 0.37 0.34 0.39 0.48 0.52 0.53 0.52 0.50 0.49 0.57 0.63 0.70 0.76 0.83 0.90 1.02 1.18 1.35 1.74 2.28 2.88 3.46 3.87 3.99 4.01 4.21
0.96 1.01 0.99 0.99 0.98 0.94 0.95 0.97 0.92 0.84 0.86 0.86 0.57 0.42 0.43 0.50 0.60 0.61 0.59 0.60 0.57 0.60 0.63 0.70 0.78 0.85 0.89 0.97 1.10 1.24 1.36 1.61 2.03 2.70 3.38 3.67 3.69 3.76
0.99 1.02 1.06 1.10 1.11 1.12 1.18 1.17 1.15 1.14 1.07 1.04 0.84 0.64 0.60 0.60 0.71 0.73 0.68 0.65 0.69 0.67 0.70 0.69 0.75 0.82 0.85 0.88 0.91 0.99 1.17 1.49 1.81 2.20 2.76 3.21 3.32 3.34
1.05 1.04 1.05 1.14 1.29 1.45 1.59 1.52 1.42 1.45 1.39 1.33 1.15 0.93 0.79 0.80 0.89 0.83 0.84 0.75 0.77 0.78 0.76 0.72 0.70 0.69 0.74 0.85 0.94 1.01 1.08 1.27 1.52 1.86 2.29 2.75 3.06 3.13
1.01 0.93 0.93 0.99 1.08 1.22 1.41 1.44 1.44 1.59 1.66 1.59 1.41 1.21 0.93 0.84 0.94 1.08 1.16 1.17 1.05 0.86 0.88 0.86 0.81 0.81 0.79 0.81 0.95 1.02 1.12 1.27 1.40 1.60 1.96 2.32 2.70 3.04
0.84 0.81 0.79 0.81 0.91 0.87 1.01 1.09 1.15 1.26 1.44 1.59 1.64 1.34 1.11 1.01 1.22 1.41 1.41 1.37 1.11 0.93 1.08 1.18 1.04 0.99 0.92 0.95 1.05 1.02 1.10 1.23 1.37 1.50 1.65 1.94 2.30 2.71
0.79 0.78 0.76 0.74 0.80 0.96 1.04 1.00 0.92 0.93 1.10 1.31 1.50 1.39 1.28 1.32 1.59 1.84 1.90 1.89 1.56 1.23 1.21 1.43 1.27 1.21 1.15 1.10 1.12 1.04 1.08 1.14 1.23 1.38 1.55 1.74 1.97 2.30
0.84 0.86 0.86 0.78 0.88 1.08 1.15 1.09 0.92 0.84 0.91 1.15 1.37 1.49 1.58 1.74 2.00 2.32 2.41 2.46 2.25 1.78 1.50 1.54 1.44 1.37 1.36 1.31 1.27 1.21 1.14 1.13 1.14 1.23 1.39 1.59 1.83 2.09
0.87 0.91 1.05 1.02 1.03 1.11 1.15 1.21 1.16 0.91 0.80 0.87 0.96 1.08 1.19 1.37 1.72 1.99 2.18 2.39 2.33 2.17 1.76 1.67 1.67 1.65 1.79 1.50 1.29 1.21 1.16 1.20 1.15 1.11 1.16 1.32 1.58 1.78
0.95 0.97 1.00 1.10 1.09 1.13 1.17 1.18 1.20 1.07 0.96 0.98 0.96 0.94 1.00 1.15 1.35 1.61 1.89 2.16 2.32 2.19 1.78 1.88 2.06 1.91 1.90 1.68 1.38 1.24 1.16 1.10 1.03 1.02 1.05 1.15 1.36 1.56
0.99 0.87 0.93 1.11 1.12 1.17 1.14 1.16 1.19 1.17 1.10 1.07 0.99 0.90 0.91 1.04 1.15 1.35 1.65 1.84 1.95 1.97 1.76 1.96 2.29 2.03 1.98 1.77 1.53 1.39 1.27 1.20 1.07 0.97 0.93 1.11 1.27 1.45
1.08 1.15 1.09 1.13 1.13 1.06 1.04 1.10 1.11 1.06 1.12 1.10 0.96 0.81 0.78 0.90 1.04 1.23 1.47 1.70 1.81 1.83 1.82 1.85 2.07 2.07 2.11 1.97 1.57 1.40 1.42 1.41 1.23 1.09 1.01 0.97 1.01 1.18
1.11 1.20 1.21 1.13 1.11 1.07 1.04 1.02 0.99 1.03 1.09 1.04 0.90 0.79 0.80 0.93 1.10 1.24 1.43 1.62 1.86 1.86 1.80 1.84 2.02 2.29 2.32 1.90 1.67 1.52 1.39 1.51 1.41 1.24 1.13 1.05 1.01 1.02
1.38 1.35 1.28 1.22 1.22 1.12 1.04 0.98 0.97 1.03 1.07 0.96 0.93 0.94 0.96 1.02 1.10 1.17 1.35 1.51 1.72 1.67 1.70 1.86 2.05 2.23 2.37 2.24 2.03 1.66 1.44 1.38 1.36 1.32 1.26 1.21 1.17 1.11
1.43 1.39 1.23 1.12 1.08 1.05 1.05 1.03 0.97 0.94 0.93 0.94 0.98 0.99 1.02 1.05 1.09 1.11 1.23 1.41 1.53 1.50 1.55 1.72 1.97 2.23 2.44 2.56 2.28 1.83 1.55 1.44 1.41 1.39 1.31 1.28 1.29 1.26
1.16 1.09 1.02 0.99 0.99 0.98 0.98 0.99 0.94 0.85 0.87 0.97 1.02 1.02 1.04 1.08 1.12 1.14 1.19 1.31 1.40 1.44 1.51 1.64 1.86 2.11 2.19 2.19 2.28 2.00 1.72 1.57 1.51 1.54 1.46 1.30 1.28 1.29
0.94 0.92 0.92 0.91 0.94 0.98 0.95 0.93 0.90 0.87 0.91 0.96 1.00 1.01 1.05 1.11 1.12 1.10 1.12 1.22 1.31 1.37 1.44 1.55 1.73 1.97 2.12 1.98 2.02 2.05 1.98 1.75 1.59 1.59 1.57 1.45 1.40 1.44
0.84 0.83 0.84 0.89 0.91 0.91 0.89 0.88 0.89 0.89 0.88 0.92 0.96 0.99 1.02 1.09 1.09 1.02 1.04 1.14 1.25 1.29 1.33 1.32 1.45 1.73 2.02 2.08 2.01 1.87 1.94 2.05 1.80 1.63 1.58 1.60 1.59 1.58
0.76 0.78 0.78 0.82 0.89 0.92 0.90 0.88 0.89 0.86 0.86 0.89 0.90 0.92 0.94 1.01 1.03 1.00 1.03 1.10 1.12 1.15 1.21 1.24 1.32 1.58 1.95 2.14 2.03 1.82 1.82 2.02 2.19 2.00 1.72 1.60 1.71 1.84
0.79 0.78 0.77 0.78 0.84 0.89 0.93 0.92 0.89 0.82 0.80 0.85 0.86 0.85 0.88 0.94 0.93 0.96 0.99 1.03 1.07 1.09 1.16 1.26 1.32 1.49 1.76 1.94 2.03 1.94 1.82 1.82 1.93 2.04 2.13 1.86 1.51 1.44

GEFSNE_prec_meanprecacc_264.txt.gz
Total_Precipitation_Accumulation
0.68 0.68 0.71 0.65 0.62 0.60 0.63 0.78 1.02 0.85 0.42 0.22 0.20 0.23 0.29 0.36 0.44 0.50 0.48 0.57 0.63 0.69 0.79 0.90 0.96 1.02 1.19 1.53 2.26 3.16 3.87 4.04 3.75 3.23 2.99 3.22 3.57 4.06
0.75 0.76 0.76 0.72 0.69 0.67 0.67 0.70 0.84 1.01 0.74 0.30 0.24 0.25 0.32 0.37 0.46 0.50 0.48 0.56 0.61 0.68 0.72 0.77 0.88 1.00 1.13 1.28 1.61 2.31 3.11 3.77 4.04 3.97 3.74 3.66 3.85 4.15
0.86 0.87 0.81 0.77 0.80 0.78 0.76 0.75 0.76 0.89 0.91 0.41 0.26 0.29 0.40 0.49 0.49 0.48 0.48 0.49 0.52 0.61 0.68 0.71 0.77 0.87 1.01 1.15 1.32 1.71 2.40 3.07 3.68 4.08 4.28 4.22 4.15 4.17
0.96 0.95 0.90 0.87 0.87 0.86 0.90 0.88 0.81 0.79 0.90 0.67 0.37 0.34 0.40 0.48 0.53 0.54 0.52 0.50 0.49 0.57 0.63 0.70 0.76 0.84 0.91 1.03 1.19 1.36 1.75 2.29 2.89 3.47 3.88 4.00 4.03 4.24
1.01 1.05 1.02 1.01 0.99 0.95 0.96 0.98 0.93 0.85 0.87 0.87 0.58 0.42 0.44 0.50 0.60 0.61 0.59 0.60 0.58 0.60 0.64 0.70 0.79 0.85 0.90 0.98 1.11 1.25 1.37 1.62 2.05 2.71 3.39 3.69 3.71 3.78
1.04 1.08 1.12 1.15 1.13 1.14 1.20 1.18 1.16 1.16 1.08 1.05 0.85 0.65 0.60 0.61 0.71 0.73 0.68 0.66 0.69 0.67 0.70 0.70 0.75 0.82 0.86 0.88 0.92 1.00 1.18 1.49 1.82 2.21 2.77 3.22 3.34 3.35
1.12 1.10 1.12 1.22 1.36 1.50 1.62 1.55 1.45 1.48 1.41 1.34 1.16 0.94 0.80 0.81 0.90 0.84 0.85 0.75 0.77 0.79 0.77 0.72 0.70 0.69 0.75 0.85 0.94 1.01 1.09 1.27 1.53 1.87 2.30 2.76 3.08 3.15
1.09 1.01 1.00 1.06 1.15 1.30 1.48 1.50 1.48 1.62 1.69 1.61 1.43 1.23 0.95 0.86 0.96 1.10 1.18 1.18 1.06 0.87 0.88 0.87 0.82 0.82 0.80 0.81 0.96 1.03 1.13 1.28 1.41 1.61 1.97 2.33 2.71 3.05
0.90 0.87 0.85 0.88 0.97 0.93 1.07 1.17 1.22 1.32 1.49 1.63 1.68 1.39 1.15 1.05 1.25 1.44 1.43 1.39 1.12 0.94 1.08 1.18 1.05 0.99 0.92 0.95 1.05 1.02 1.11 1.23 1.37 1.50 1.66 1.95 2.31 2.72
0.85 0.83 0.80 0.78 0.85 1.01 1.08 1.05 0.98 0.99 1.17 1.37 1.55 1.44 1.33 1.37 1.63 1.87 1.92 1.90 1.57 1.24 1.21 1.43 1.27 1.21 1.15 1.11 1.12 1.05 1.08 1.14 1.23 1.39 1.56 1.75 1.98 2.31
0.90 0.91 0.90 0.81 0.92 1.13 1.20 1.14 0.96 0.88 0.96 1.20 1.42 1.53 1.61 1.77 2.02 2.33 2.42 2.47 2.26 1.78 1.50 1.54 1.45 1.38 1.36 1.31 1.27 1.22 1.14 1.14 1.14 1.24 1.40 1.60 1.83 2.10
0.91 0.96 1.10 1.06 1.07 1.15 1.18 1.25 1.20 0.95 0.84 0.90 0.99 1.10 1.21 1.38 1.73 1.99 2.19 2.41 2.35 2.18 1.77 1.68 1.68 1.66 1.80 1.50 1.29 1.21 1.16 1.20 1.16 1.11 1.16 1.32 1.59 1.78
0.99 1.01 1.04 1.15 1.13 1.16 1.20 1.20 1.24 1.10 1.00 1.01 0.99 0.96 1.03 1.17 1.37 1.62 1.90 2.18 2.34 2.21 1.78 1.90 2.07 1.92 1.92 1.68 1.38 1.25 1.16 1.10 1.03 1.02 1.05 1.16 1.36 1.56
1.03 0.91 0.97 1.14 1.15 1.20 1.17 1.18 1.22 1.20 1.12 1.08 1.00 0.91 0.92 1.05 1.16 1.36 1.66 1.84 1.96 1.98 1.77 1.97 2.31 2.05 2.00 1.79 1.53 1.39 1.27 1.20 1.07 0.98 0.93 1.12 1.27 1.45
1.11 1.18 1.12 1.15 1.16 1.08 1.06 1.12 1.13 1.07 1.13 1.11 0.97 0.82 0.78 0.90 1.05 1.23 1.48 1.71 1.81 1.83 1.83 1.86 2.08 2.09 2.13 1.99 1.58 1.40 1.42 1.41 1.23 1.09 1.01 0.97 1.02 1.18
1.14 1.23 1.23 1.16 1.13 1.09 1.06 1.04 1.00 1.04 1.10 1.05 0.91 0.80 0.81 0.94 1.11 1.24 1.43 1.62 1.86 1.86 1.80 1.84 2.03 2.30 2.33 1.90 1.67 1.53 1.40 1.51 1.41 1.25 1.14 1.06 1.01 1.02
1.40 1.37 1.31 1.25 1.24 1.15 1.06 1.00 0.99 1.04 1.09 0.97 0.94 0.95 0.97 1.04 1.11 1.18 1.35 1.51 1.72 1.68 1.70 1.86 2.05 2.23 2.37 2.24 2.03 1.66 1.44 1.38 1.36 1.32 1.27 1.21 1.17 1.12
1.45 1.41 1.25 1.14 1.11 1.07 1.07 1.05 0.99 0.95 0.94 0.96 0.99 1.00 1.03 1.06 1.10 1.11 1.24 1.41 1.53 1.51 1.55 1.72 1.97 2.23 2.44 2.56 2.28 1.84 1.55 1.45 1.41 1.39 1.31 1.29 1.29 1.26
1.18 1.10 1.03 1.01 1.01 1.00 1.00 1.00 0.96 0.86 0.89 0.98 1.03 1.03 1.05 1.09 1.12 1.14 1.20 1.31 1.40 1.44 1.51 1.64 1.87 2.12 2.20 2.19 2.28 2.00 1.72 1.57 1.51 1.55 1.47 1.30 1.28 1.29
0.96 0.93 0.93 0.93 0.96 0.99 0.97 0.95 0.92 0.89 0.93 0.98 1.01 1.02 1.06 1.12 1.13 1.11 1.13 1.23 1.32 1.37 1.45 1.55 1.74 1.99 2.15 2.00 2.03 2.05 1.98 1.76 1.60 1.61 1.57 1.46 1.40 1.45
0.85 0.84 0.85 0.90 0.92 0.92 0.90 0.90 0.91 0.90 0.89 0.93 0.97 1.00 1.03 1.10 1.10 1.03 1.05 1.15 1.25 1.30 1.33 1.33 1.45 1.74 2.03 2.10 2.02 1.88 1.95 2.06 1.82 1.65 1.61 1.62 1.61 1.58
0.76 0.78 0.79 0.83 0.90 0.93 0.91 0.89 0.90 0.87 0.87 0.91 0.92 0.93 0.96 1.02 1.05 1.01 1.04 1.12 1.13 1.16 1.22 1.25 1.32 1.58 1.95 2.16 2.04 1.83 1.83 2.02 2.19 2.01 1.74 1.64 1.76 1.87
0.80 0.79 0.78 0.79 0.84 0.89 0.93 0.93 0.90 0.83 0.81 0.86 0.88 0.87 0.89 0.95 0.94 0.98 1.01 1.04 1.08 1.10 1.17 1.27 1.32 1.49 1.77 1.94 2.04 1.95 1.83 1.83 1.94 2.05 2.14 1.87 1.54 1.47

GEFSNE_prec_meanprecacc_270.txt.gz
Total_Precipitation_Accumulation
0.70 0.70 0.73 0.67 0.63 0.62 0.65 0.81 1.05 0.89 0.46 0.26 0.23 0.25 0.30 0.36 0.45 0.50 0.48 0.57 0.64 0.69 0.79 0.90 0.97 1.03 1.19 1.54 2.27 3.17 3.89 4.06 3.78 3.27 3.03 3.26 3.62 4.10
0.77 0.77 0.77 0.74 0.71 0.68 0.69 0.72 0.86 1.03 0.76 0.31 0.25 0.26 0.33 0.38 0.47 0.50 0.48 0.56 0.61 0.68 0.72 0.77 0.88 1.01 1.14 1.29 1.62 2.32 3.12 3.78 4.05 4.00 3.78 3.70 3.90 4.20
0.89 0.89 0.82 0.78 0.81 0.79 0.77 0.77 0.77 0.90 0.92 0.42 0.27 0.29 0.41 0.49 0.49 0.49 0.48 0.50 0.52 0.62 0.68 0.72 0.77 0.87 1.01 1.16 1.33 1.72 2.40 3.08 3.68 4.09 4.30 4.25 4.19 4.21
0.99 0.97 0.91 0.89 0.88 0.86 0.91 0.89 0.82 0.80 0.91 0.69 0.38 0.34 0.40 0.49 0.53 0.54 0.52 0.50 0.49 0.57 0.63 0.71 0.77 0.84 0.92 1.04 1.19 1.37 1.75 2.30 2.90 3.48 3.90 4.02 4.06 4.27
1.03 1.07 1.04 1.03 1.01 0.96 0.97 0.99 0.94 0.86 0.88 0.89 0.59 0.43 0.44 0.51 0.61 0.62 0.60 0.61 0.58 0.61 0.64 0.70 0.80 0.86 0.91 0.99 1.12 1.26 1.38 1.63 2.06 2.72 3.40 3.70 3.73 3.81
1.06 1.10 1.14 1.17 1.16 1.16 1.21 1.19 1.17 1.17 1.10 1.07 0.87 0.66 0.61 0.61 0.72 0.74 0.69 0.67 0.70 0.67 0.70 0.70 0.76 0.83 0.87 0.89 0.93 1.01 1.19 1.50 1.83 2.22 2.78 3.23 3.35 3.37
1.16 1.14 1.15 1.26 1.40 1.55 1.67 1.59 1.48 1.51 1.44 1.37 1.19 0.96 0.81 0.82 0.90 0.85 0.85 0.76 0.78 0.79 0.77 0.72 0.71 0.70 0.75 0.86 0.95 1.02 1.10 1.28 1.55 1.88 2.31 2.77 3.09 3.16
1.13 1.06 1.05 1.12 1.21 1.36 1.55 1.56 1.54 1.67 1.74 1.65 1.47 1.25 0.97 0.87 0.97 1.12 1.19 1.20 1.08 0.88 0.89 0.88 0.83 0.83 0.81 0.83 0.97 1.04 1.14 1.29 1.42 1.62 1.98 2.34 2.72 3.07
0.93 0.91 0.90 0.94 1.04 0.99 1.14 1.23 1.28 1.37 1.54 1.67 1.72 1.42 1.17 1.07 1.28 1.47 1.46 1.42 1.15 0.96 1.11 1.21 1.07 1.02 0.94 0.97 1.06 1.03 1.12 1.24 1.38 1.51 1.67 1.96 2.32 2.73
0.87 0.87 0.85 0.83 0.90 1.06 1.14 1.11 1.03 1.04 1.22 1.41 1.59 1.47 1.36 1.40 1.67 1.92 1.97 1.95 1.61 1.27 1.24 1.46 1.29 1.23 1.16 1.11 1.13 1.05 1.09 1.15 1.24 1.39 1.57 1.75 1.99 2.32
0.92 0.94 0.94 0.85 0.97 1.18 1.24 1.19 1.02 0.93 1.01 1.25 1.46 1.57 1.65 1.81 2.06 2.38 2.48 2.53 2.31 1.82 1.53 1.57 1.47 1.39 1.37 1.32 1.28 1.22 1.15 1.14 1.15 1.24 1.41 1.60 1.84 2.11
0.94 0.99 1.14 1.10 1.12 1.20 1.23 1.29 1.25 0.99 0.88 0.94 1.03 1.14 1.24 1.42 1.77 2.03 2.22 2.45 2.38 2.21 1.79 1.71 1.69 1.67 1.81 1.51 1.30 1.21 1.16 1.20 1.16 1.11 1.17 1.33 1.60 1.79
1.02 1.04 1.08 1.20 1.19 1.22 1.26 1.25 1.29 1.15 1.04 1.06 1.03 0.99 1.06 1.20 1.39 1.65 1.92 2.20 2.37 2.23 1.80 1.92 2.09 1.94 1.93 1.69 1.39 1.25 1.17 1.11 1.03 1.03 1.06 1.16 1.37 1.57
1.06 0.94 1.01 1.19 1.20 1.25 1.22 1.25 1.30 1.26 1.17 1.14 1.06 0.96 0.96 1.09 1.19 1.38 1.68 1.86 1.98 2.00 1.78 1.99 2.33 2.07 2.02 1.81 1.54 1.40 1.28 1.20 1.08 0.98 0.93 1.12 1.27 1.46
1.14 1.22 1.16 1.19 1.20 1.13 1.11 1.17 1.18 1.12 1.18 1.16 1.02 0.87 0.83 0.94 1.08 1.26 1.49 1.72 1.83 1.85 1.84 1.86 2.09 2.10 2.15 2.01 1.60 1.41 1.43 1.41 1.23 1.10 1.01 0.97 1.02 1.19
1.19 1.28 1.27 1.19 1.17 1.13 1.10 1.08 1.03 1.08 1.14 1.09 0.95 0.84 0.84 0.96 1.13 1.26 1.45 1.64 1.88 1.88 1.82 1.86 2.04 2.31 2.34 1.92 1.69 1.54 1.40 1.52 1.41 1.25 1.14 1.06 1.01 1.02
1.44 1.42 1.35 1.28 1.28 1.18 1.09 1.04 1.02 1.08 1.13 1.00 0.97 0.97 0.99 1.05 1.13 1.19 1.36 1.52 1.73 1.69 1.71 1.87 2.06 2.25 2.38 2.25 2.04 1.66 1.45 1.39 1.36 1.33 1.27 1.22 1.17 1.12
1.47 1.44 1.28 1.17 1.14 1.11 1.11 1.09 1.03 0.99 0.98 0.99 1.02 1.02 1.04 1.07 1.11 1.13 1.25 1.42 1.54 1.52 1.56 1.72 1.98 2.24 2.45 2.56 2.28 1.84 1.56 1.45 1.42 1.39 1.32 1.29 1.30 1.27
1.20 1.12 1.05 1.02 1.03 1.03 1.03 1.03 0.98 0.89 0.91 1.01 1.05 1.05 1.06 1.10 1.13 1.15 1.20 1.32 1.41 1.45 1.52 1.64 1.88 2.14 2.22 2.20 2.29 2.00 1.73 1.58 1.52 1.55 1.47 1.31 1.29 1.30
0.98 0.96 0.95 0.94 0.97 1.01 0.99 0.97 0.94 0.91 0.95 1.00 1.03 1.04 1.08 1.14 1.15 1.12 1.13 1.24 1.33 1.38 1.45 1.56 1.75 2.01 2.17 2.03 2.05 2.05 1.99 1.77 1.61 1.62 1.58 1.46 1.40 1.45
0.87 0.86 0.87 0.92 0.94 0.93 0.91 0.91 0.92 0.92 0.91 0.95 0.99 1.02 1.05 1.12 1.12 1.04 1.06 1.16 1.26 1.31 1.35 1.34 1.46 1.75 2.05 2.11 2.03 1.88 1.95 2.06 1.83 1.67 1.62 1.64 1.62 1.59
0.79 0.80 0.81 0.85 0.91 0.94 0.92 0.90 0.91 0.88 0.88 0.92 0.93 0.94 0.97 1.04 1.06 1.03 1.06 1.13 1.15 1.17 1.23 1.26 1.33 1.59 1.96 2.17 2.05 1.83 1.83 2.02 2.20 2.02 1.76 1.66 1.79 1.90
0.82 0.81 0.79 0.81 0.86 0.91 0.94 0.94 0.90 0.83 0.82 0.87 0.88 0.88 0.91 0.97 0.96 0.99 1.03 1.06 1.10 1.12 1.18 1.28 1.33 1.50 1.78 1.96 2.05 1.96 1.83 1.84 1.94 2.06 2.15 1.89 1.56 1.49

GEFSNE_prec_meanprecacc_276.txt.gz
Total_Precipitation_Accumulation
0.72 0.72 0.75 0.70 0.66 0.64 0.68 0.84 1.08 0.93 0.50 0.29 0.27 0.28 0.34 0.39 0.48 0.52 0.50 0.59 0.65 0.70 0.80 0.90 0.97 1.03 1.20 1.55 2.28 3.18 3.90 4.07 3.79 3.28 3.05 3.29 3.65 4.13
0.79 0.79 0.79 0.76 0.73 0.71 0.71 0.74 0.89 1.05 0.78 0.33 0.27 0.28 0.35 0.40 0.49 0.52 0.50 0.58 0.63 0.69 0.73 0.78 0.89 1.01 1.14 1.29 1.62 2.33 3.13 3.78 4.06 4.01 3.79 3.72 3.93 4.23
0.92 0.92 0.86 0.81 0.84 0.81 0.79 0.79 0.80 0.93 0.95 0.44 0.28 0.31 0.42 0.50 0.50 0.50 0.50 0.52 0.54 0.65 0.70 0.73 0.79 0.88 1.02 1.16 1.34 1.72 2.41 3.08 3.69 4.10 4.32 4.26 4.21 4.24
1.03 1.01 0.96 0.93 0.92 0.89 0.93 0.91 0.84 0.82 0.93 0.71 0.39 0.36 0.42 0.50 0.54 0.55 0.54 0.52 0.51 0.59 0.66 0.73 0.79 0.86 0.93 1.04 1.20 1.37 1.76 2.31 2.91 3.49 3.91 4.04 4.08 4.29
1.08 1.11 1.07 1.07 1.04 0.99 0.99 1.01 0.96 0.88 0.90 0.90 0.61 0.44 0.46 0.52 0.62 0.64 0.62 0.63 0.60 0.64 0.67 0.73 0.82 0.88 0.92 1.00 1.12 1.27 1.39 1.64 2.07 2.74 3.42 3.72 3.75 3.83
1.10 1.14 1.17 1.19 1.18 1.18 1.24 1.21 1.20 1.19 1.12 1.08 0.88 0.67 0.62 0.63 0.74 0.76 0.71 0.69 0.72 0.70 0.73 0.73 0.78 0.85 0.88 0.90 0.93 1.02 1.20 1.52 1.85 2.24 2.80 3.25 3.37 3.39
1.18 1.16 1.18 1.28 1.42 1.57 1.69 1.61 1.51 1.54 1.47 1.40 1.22 0.99 0.84 0.84 0.93 0.87 0.87 0.78 0.81 0.82 0.80 0.75 0.72 0.71 0.76 0.86 0.96 1.03 1.11 1.30 1.56 1.90 2.33 2.79 3.11 3.18
1.14 1.08 1.08 1.15 1.23 1.38 1.57 1.59 1.57 1.71 1.78 1.70 1.51 1.29 1.00 0.90 1.00 1.14 1.22 1.23 1.11 0.90 0.91 0.90 0.85 0.85 0.82 0.84 0.98 1.05 1.15 1.30 1.44 1.63 1.99 2.36 2.74 3.09
0.94 0.93 0.92 0.96 1.07 1.01 1.16 1.25 1.30 1.40 1.57 1.71 1.76 1.45 1.20 1.10 1.31 1.50 1.49 1.45 1.18 0.99 1.13 1.24 1.10 1.04 0.96 0.98 1.08 1.05 1.13 1.25 1.40 1.52 1.68 1.98 2.34 2.75
0.89 0.88 0.86 0.85 0.93 1.09 1.17 1.14 1.05 1.05 1.24 1.44 1.61 1.50 1.38 1.43 1.70 1.95 2.00 1.99 1.65 1.32 1.28 1.50 1.33 1.26 1.19 1.13 1.14 1.07 1.10 1.16 1.25 1.41 1.59 1.77 2.00 2.34
0.93 0.95 0.96 0.86 0.99 1.21 1.27 1.22 1.04 0.95 1.04 1.28 1.49 1.60 1.68 1.84 2.09 2.41 2.51 2.57 2.36 1.87 1.58 1.61 1.51 1.43 1.41 1.35 1.30 1.24 1.16 1.15 1.16 1.25 1.42 1.62 1.86 2.12
0.95 1.00 1.16 1.13 1.15 1.23 1.26 1.32 1.28 1.02 0.90 0.97 1.06 1.17 1.27 1.45 1.81 2.06 2.25 2.48 2.43 2.26 1.82 1.74 1.74 1.72 1.86 1.54 1.32 1.23 1.17 1.21 1.17 1.12 1.18 1.34 1.61 1.80
1.04 1.06 1.10 1.23 1.21 1.24 1.28 1.28 1.33 1.19 1.08 1.10 1.07 1.04 1.10 1.25 1.44 1.69 1.96 2.25 2.42 2.28 1.84 1.96 2.13 1.98 1.97 1.73 1.41 1.26 1.18 1.12 1.04 1.03 1.07 1.17 1.38 1.58
1.07 0.96 1.02 1.21 1.22 1.27 1.24 1.27 1.33 1.30 1.21 1.18 1.10 1.00 1.01 1.14 1.24 1.44 1.73 1.92 2.04 2.05 1.83 2.03 2.38 2.11 2.07 1.84 1.57 1.41 1.29 1.21 1.09 0.99 0.94 1.13 1.28 1.46
1.16 1.24 1.17 1.21 1.22 1.14 1.13 1.19 1.20 1.15 1.22 1.20 1.06 0.91 0.88 0.99 1.13 1.31 1.55 1.77 1.88 1.90 1.89 1.91 2.13 2.14 2.19 2.05 1.63 1.43 1.44 1.43 1.24 1.11 1.02 0.98 1.02 1.19
1.21 1.29 1.29 1.21 1.18 1.15 1.12 1.10 1.05 1.10 1.17 1.12 0.98 0.87 0.87 1.00 1.17 1.30 1.49 1.68 1.92 1.92 1.86 1.90 2.08 2.35 2.37 1.95 1.71 1.55 1.41 1.53 1.42 1.25 1.14 1.06 1.02 1.03
1.45 1.43 1.36 1.29 1.29 1.20 1.11 1.06 1.04 1.10 1.15 1.03 1.00 1.00 1.02 1.08 1.16 1.22 1.40 1.56 1.77 1.72 1.73 1.89 2.08 2.27 2.40 2.27 2.05 1.68 1.46 1.39 1.37 1.33 1.28 1.22 1.17 1.13
1.48 1.44 1.29 1.18 1.16 1.12 1.12 1.10 1.04 1.00 1.00 1.01 1.04 1.05 1.07 1.10 1.14 1.16 1.28 1.46 1.57 1.54 1.59 1.74 2.00 2.26 2.47 2.57 2.29 1.85 1.57 1.46 1.42 1.40 1.32 1.30 1.31 1.27
1.21 1.13 1.06 1.03 1.04 1.04 1.04 1.04 1.00 0.91 0.93 1.03 1.07 1.08 1.09 1.13 1.16 1.18 1.23 1.35 1.44 1.47 1.54 1.66 1.90 2.17 2.24 2.22 2.30 2.01 1.74 1.60 1.53 1.56 1.48 1.32 1.30 1.31
0.99 0.97 0.96 0.95 0.98 1.02 1.00 0.98 0.95 0.93 0.97 1.02 1.06 1.07 1.11 1.16 1.17 1.14 1.16 1.27 1.35 1.40 1.47 1.57 1.77 2.04 2.21 2.06 2.07 2.06 1.99 1.79 1.63 1.63 1.59 1.47 1.41 1.45
0.88 0.87 0.88 0.93 0.95 0.94 0.93 0.92 0.93 0.93 0.92 0.96 1.01 1.04 1.08 1.15 1.15 1.06 1.08 1.18 1.29 1.33 1.36 1.35 1.47 1.76 2.07 2.13 2.05 1.89 1.96 2.07 1.85 1.69 1.64 1.65 1.63 1.60
0.80 0.82 0.82 0.86 0.92 0.96 0.93 0.92 0.92 0.89 0.89 0.93 0.94 0.96 0.99 1.06 1.09 1.05 1.08 1.16 1.17 1.19 1.25 1.27 1.34 1.60 1.98 2.19 2.07 1.85 1.84 2.03 2.20 2.02 1.77 1.68 1.82 1.93
0.83 0.82 0.80 0.82 0.87 0.92 0.96 0.95 0.92 0.85 0.83 0.88 0.90 0.89 0.92 0.98 0.98 1.01 1.05 1.08 1.12 1.14 1.20 1.29 1.34 1.51 1.79 1.97 2.07 1.97 1.84 1.85 1.95 2.06 2.15 1.89 1.57 1.50

GEFSNE_prec_meanprecacc_282.txt.gz
Total_Precipitation_Accumulation
0.75 0.75 0.79 0.74 0.71 0.69 0.72 0.87 1.12 0.95 0.52 0.31 0.29 0.31 0.37 0.44 0.54 0.57 0.54 0.63 0.70 0.74 0.85 0.95 1.01 1.06 1.23 1.58 2.32 3.22 3.95 4.12 3.83 3.31 3.07 3.31 3.67 4.16
0.82 0.81 0.82 0.79 0.77 0.75 0.76 0.79 0.93 1.09 0.81 0.35 0.29 0.31 0.38 0.44 0.54 0.56 0.53 0.61 0.67 0.73 0.77 0.83 0.94 1.05 1.17 1.32 1.65 2.36 3.17 3.82 4.10 4.05 3.83 3.76 3.96 4.26
0.96 0.95 0.89 0.84 0.88 0.85 0.83 0.83 0.84 0.97 0.99 0.47 0.31 0.34 0.45 0.54 0.55 0.54 0.53 0.54 0.56 0.66 0.72 0.77 0.83 0.93 1.06 1.19 1.36 1.75 2.44 3.11 3.72 4.13 4.35 4.30 4.25 4.27
1.07 1.05 0.99 0.97 0.95 0.92 0.96 0.93 0.86 0.85 0.97 0.74 0.42 0.39 0.45 0.53 0.58 0.59 0.58 0.56 0.54 0.61 0.68 0.75 0.82 0.89 0.97 1.09 1.23 1.40 1.78 2.32 2.92 3.51 3.93 4.07 4.11 4.32
1.13 1.16 1.12 1.10 1.07 1.02 1.02 1.03 0.98 0.90 0.92 0.93 0.63 0.47 0.48 0.55 0.66 0.68 0.67 0.68 0.65 0.67 0.70 0.76 0.85 0.91 0.96 1.04 1.17 1.30 1.42 1.66 2.08 2.75 3.44 3.74 3.78 3.86
1.14 1.18 1.21 1.24 1.22 1.22 1.27 1.24 1.22 1.21 1.14 1.11 0.90 0.69 0.65 0.65 0.76 0.79 0.74 0.72 0.76 0.74 0.76 0.75 0.80 0.88 0.92 0.94 0.98 1.06 1.23 1.54 1.87 2.26 2.82 3.27 3.38 3.41
1.22 1.20 1.21 1.32 1.46 1.61 1.73 1.64 1.54 1.56 1.49 1.42 1.24 1.01 0.86 0.87 0.95 0.89 0.90 0.81 0.84 0.85 0.83 0.77 0.75 0.73 0.79 0.90 1.00 1.07 1.14 1.33 1.58 1.92 2.35 2.81 3.13 3.20
1.17 1.11 1.11 1.19 1.27 1.42 1.61 1.62 1.60 1.73 1.80 1.72 1.54 1.31 1.02 0.92 1.03 1.18 1.25 1.26 1.14 0.93 0.94 0.93 0.87 0.87 0.84 0.86 1.02 1.09 1.19 1.34 1.47 1.66 2.02 2.38 2.77 3.11
0.96 0.95 0.95 1.00 1.11 1.05 1.19 1.27 1.32 1.42 1.59 1.73 1.78 1.47 1.23 1.13 1.35 1.55 1.54 1.50 1.21 1.01 1.16 1.27 1.13 1.07 0.99 1.01 1.12 1.08 1.16 1.29 1.42 1.55 1.71 2.00 2.37 2.77
0.91 0.91 0.89 0.89 0.97 1.14 1.21 1.17 1.07 1.08 1.27 1.46 1.64 1.52 1.41 1.46 1.74 2.00 2.05 2.03 1.69 1.34 1.31 1.54 1.37 1.29 1.23 1.17 1.19 1.11 1.14 1.19 1.28 1.44 1.61 1.80 2.03 2.36
0.95 0.97 0.98 0.90 1.05 1.28 1.33 1.27 1.09 0.99 1.07 1.31 1.52 1.62 1.71 1.87 2.12 2.45 2.56 2.61 2.40 1.90 1.60 1.64 1.54 1.47 1.45 1.40 1.35 1.28 1.20 1.19 1.19 1.28 1.44 1.64 1.88 2.14
0.97 1.02 1.19 1.16 1.19 1.29 1.32 1.38 1.34 1.07 0.95 1.01 1.09 1.20 1.30 1.48 1.84 2.09 2.29 2.53 2.47 2.29 1.86 1.78 1.78 1.76 1.92 1.59 1.36 1.26 1.21 1.24 1.20 1.15 1.20 1.36 1.63 1.82
1.06 1.08 1.13 1.26 1.25 1.29 1.34 1.33 1.38 1.26 1.13 1.14 1.10 1.06 1.12 1.27 1.47 1.72 1.99 2.29 2.47 2.32 1.87 2.01 2.19 2.03 2.02 1.77 1.45 1.30 1.21 1.15 1.07 1.06 1.09 1.19 1.39 1.59
1.10 0.98 1.05 1.25 1.26 1.31 1.29 1.32 1.38 1.36 1.26 1.22 1.13 1.03 1.04 1.16 1.27 1.47 1.76 1.94 2.07 2.09 1.86 2.08 2.44 2.17 2.13 1.89 1.61 1.46 1.33 1.24 1.12 1.01 0.95 1.13 1.29 1.47
1.19 1.27 1.20 1.24 1.25 1.18 1.17 1.24 1.25 1.19 1.26 1.25 1.10 0.95 0.90 1.01 1.15 1.33 1.58 1.80 1.91 1.93 1.92 1.94 2.17 2.19 2.25 2.11 1.68 1.47 1.48 1.46 1.27 1.12 1.03 0.98 1.03 1.20
1.24 1.33 1.32 1.23 1.21 1.18 1.16 1.13 1.09 1.14 1.21 1.16 1.01 0.89 0.89 1.02 1.18 1.31 1.51 1.71 1.95 1.95 1.89 1.93 2.11 2.38 2.41 1.98 1.75 1.59 1.45 1.56 1.44 1.27 1.15 1.07 1.02 1.03
1.48 1.46 1.39 1.32 1.31 1.22 1.13 1.08 1.07 1.13 1.17 1.05 1.02 1.02 1.03 1.09 1.17 1.23 1.41 1.57 1.79 1.75 1.76 1.92 2.11 2.30 2.43 2.29 2.08 1.71 1.48 1.41 1.38 1.34 1.29 1.23 1.18 1.13
1.50 1.47 1.31 1.20 1.17 1.14 1.14 1.12 1.06 1.02 1.01 1.03 1.06 1.07 1.09 1.11 1.15 1.17 1.29 1.47 1.59 1.56 1.61 1.76 2.02 2.29 2.50 2.61 2.32 1.87 1.59 1.48 1.44 1.41 1.33 1.31 1.31 1.28
1.23 1.15 1.08 1.05 1.05 1.06 1.06 1.06 1.01 0.92 0.95 1.04 1.09 1.09 1.10 1.14 1.18 1.19 1.24 1.36 1.45 1.49 1.55 1.68 1.92 2.20 2.27 2.24 2.32 2.03 1.76 1.62 1.54 1.57 1.49 1.33 1.31 1.31
1.01 0.98 0.98 0.96 0.99 1.04 1.01 1.00 0.97 0.94 0.98 1.03 1.07 1.08 1.12 1.18 1.19 1.16 1.18 1.28 1.37 1.42 1.49 1.59 1.79 2.08 2.26 2.09 2.10 2.08 2.01 1.80 1.65 1.65 1.60 1.47 1.41 1.46
0.90 0.89 0.89 0.94 0.96 0.95 0.94 0.94 0.94 0.94 0.93 0.97 1.02 1.06 1.09 1.17 1.17 1.09 1.11 1.20 1.31 1.35 1.39 1.38 1.50 1.79 2.10 2.16 2.07 1.91 1.97 2.08 1.86 1.71 1.66 1.67 1.64 1.61
0.81 0.83 0.83 0.87 0.93 0.97 0.94 0.93 0.93 0.90 0.90 0.94 0.95 0.97 1.00 1.08 1.11 1.07 1.11 1.18 1.19 1.22 1.28 1.29 1.36 1.62 2.00 2.22 2.09 1.87 1.86 2.04 2.21 2.03 1.78 1.70 1.85 1.96
0.84 0.82 0.81 0.82 0.87 0.93 0.97 0.96 0.93 0.86 0.84 0.89 0.91 0.90 0.93 1.00 1.00 1.04 1.07 1.11 1.15 1.17 1.23 1.32 1.36 1.53 1.82 1.99 2.09 2.00 1.86 1.86 1.96 2.07 2.16 1.90 1.58 1.51

GEFSNE_prec_meanprecacc_288.txt.gz
Total_Precipitation_Accumulation
0.78 0.80 0.83 0.78 0.75 0.72 0.74 0.90 1.15 0.98 0.54 0.32 0.30 0.33 0.43 0.54 0.65 0.69 0.65 0.72 0.75 0.78 0.87 0.96 1.02 1.08 1.24 1.60 2.33 3.24 3.97 4.17 3.90 3.38 3.14 3.38 3.73 4.22
0.86 0.85 0.86 0.83 0.81 0.79 0.80 0.82 0.96 1.12 0.83 0.37 0.31 0.32 0.42 0.54 0.64 0.65 0.62 0.69 0.72 0.76 0.79 0.85 0.95 1.07 1.18 1.33 1.67 2.38 3.19 3.86 4.15 4.12 3.91 3.83 4.02 4.32
1.00 1.00 0.93 0.89 0.93 0.89 0.87 0.87 0.88 1.01 1.03 0.49 0.32 0.36 0.49 0.60 0.64 0.62 0.60 0.60 0.60 0.70 0.75 0.79 0.84 0.94 1.08 1.21 1.38 1.77 2.46 3.14 3.75 4.18 4.43 4.39 4.34 4.35
1.11 1.09 1.05 1.03 1.01 0.97 1.01 0.98 0.91 0.89 1.01 0.77 0.45 0.42 0.49 0.57 0.64 0.68 0.66 0.64 0.60 0.67 0.71 0.78 0.84 0.91 0.99 1.10 1.24 1.42 1.80 2.35 2.96 3.55 3.99 4.14 4.21 4.43
1.16 1.19 1.16 1.16 1.14 1.09 1.09 1.10 1.04 0.95 0.97 0.97 0.67 0.50 0.54 0.61 0.72 0.76 0.76 0.78 0.73 0.75 0.76 0.80 0.88 0.94 0.99 1.07 1.19 1.32 1.43 1.68 2.12 2.79 3.48 3.79 3.84 3.95
1.18 1.22 1.25 1.28 1.28 1.29 1.35 1.33 1.31 1.31 1.22 1.17 0.95 0.73 0.70 0.72 0.82 0.86 0.84 0.82 0.84 0.80 0.84 0.82 0.86 0.91 0.94 0.97 1.01 1.09 1.25 1.57 1.90 2.29 2.86 3.31 3.43 3.47
1.27 1.25 1.26 1.37 1.52 1.68 1.81 1.73 1.62 1.66 1.59 1.51 1.31 1.08 0.93 0.93 1.02 0.95 0.96 0.88 0.91 0.91 0.88 0.82 0.80 0.77 0.81 0.92 1.03 1.10 1.18 1.37 1.63 1.96 2.39 2.86 3.18 3.26
1.23 1.17 1.18 1.26 1.34 1.48 1.67 1.70 1.69 1.81 1.88 1.80 1.61 1.38 1.09 0.98 1.09 1.23 1.30 1.32 1.20 0.99 1.00 0.98 0.91 0.90 0.87 0.88 1.04 1.12 1.22 1.38 1.52 1.71 2.07 2.43 2.82 3.17
1.04 1.01 1.01 1.07 1.19 1.11 1.25 1.34 1.40 1.50 1.67 1.79 1.84 1.53 1.29 1.19 1.41 1.60 1.58 1.53 1.25 1.05 1.20 1.31 1.17 1.11 1.02 1.05 1.16 1.12 1.20 1.33 1.47 1.60 1.76 2.06 2.43 2.84
0.97 0.96 0.94 0.94 1.03 1.20 1.26 1.23 1.13 1.14 1.33 1.51 1.68 1.57 1.46 1.51 1.79 2.05 2.09 2.07 1.72 1.38 1.34 1.56 1.39 1.32 1.26 1.21 1.23 1.15 1.18 1.24 1.33 1.49 1.67 1.86 2.09 2.42
1.00 1.02 1.03 0.95 1.11 1.34 1.37 1.31 1.14 1.03 1.12 1.36 1.57 1.67 1.76 1.92 2.16 2.49 2.60 2.66 2.44 1.94 1.64 1.67 1.57 1.50 1.49 1.44 1.39 1.32 1.24 1.23 1.23 1.33 1.50 1.69 1.93 2.20
1.02 1.07 1.24 1.21 1.25 1.34 1.36 1.42 1.39 1.12 0.99 1.07 1.16 1.27 1.36 1.53 1.88 2.12 2.32 2.57 2.51 2.34 1.89 1.81 1.81 1.80 1.97 1.64 1.40 1.30 1.24 1.28 1.24 1.20 1.25 1.41 1.69 1.87
1.12 1.13 1.18 1.32 1.30 1.34 1.39 1.38 1.43 1.31 1.19 1.19 1.16 1.14 1.22 1.36 1.54 1.77 2.03 2.33 2.51 2.36 1.90 2.04 2.23 2.08 2.09 1.83 1.49 1.34 1.24 1.18 1.11 1.10 1.14 1.24 1.44 1.64
1.17 1.03 1.09 1.29 1.29 1.35 1.33 1.39 1.45 1.43 1.34 1.30 1.21 1.10 1.11 1.24 1.33 1.53 1.82 2.00 2.12 2.13 1.89 2.10 2.49 2.23 2.19 1.94 1.66 1.49 1.36 1.28 1.15 1.05 0.99 1.17 1.32 1.50
1.23 1.31 1.24 1.29 1.29 1.21 1.21 1.30 1.31 1.27 1.34 1.33 1.18 1.02 0.96 1.08 1.21 1.39 1.62 1.85 1.95 1.97 1.95 1.97 2.20 2.24 2.29 2.15 1.72 1.51 1.51 1.49 1.30 1.15 1.06 1.01 1.05 1.22
1.29 1.37 1.36 1.28 1.25 1.22 1.20 1.19 1.15 1.21 1.30 1.25 1.09 0.98 0.97 1.08 1.25 1.37 1.56 1.75 1.99 1.99 1.93 1.96 2.14 2.42 2.45 2.01 1.78 1.62 1.47 1.59 1.46 1.29 1.18 1.09 1.04 1.05
1.52 1.50 1.43 1.36 1.36 1.27 1.18 1.14 1.13 1.20 1.26 1.14 1.10 1.11 1.12 1.17 1.24 1.29 1.46 1.62 1.83 1.79 1.80 1.96 2.15 2.34 2.46 2.31 2.10 1.73 1.50 1.44 1.41 1.37 1.32 1.26 1.20 1.15
1.55 1.51 1.35 1.24 1.21 1.18 1.18 1.17 1.11 1.08 1.08 1.10 1.14 1.14 1.16 1.19 1.22 1.23 1.35 1.52 1.63 1.61 1.65 1.80 2.04 2.31 2.52 2.62 2.33 1.89 1.61 1.51 1.47 1.43 1.36 1.34 1.33 1.29
1.27 1.19 1.12 1.09 1.09 1.09 1.09 1.10 1.06 0.97 1.00 1.09 1.14 1.15 1.16 1.20 1.23 1.24 1.29 1.40 1.48 1.52 1.58 1.71 1.95 2.22 2.29 2.26 2.34 2.04 1.78 1.64 1.57 1.59 1.51 1.35 1.33 1.33
1.04 1.02 1.02 1.01 1.03 1.07 1.05 1.04 1.01 0.99 1.02 1.07 1.11 1.12 1.17 1.23 1.23 1.20 1.21 1.31 1.39 1.44 1.50 1.60 1.81 2.11 2.29 2.12 2.12 2.10 2.03 1.83 1.68 1.67 1.62 1.49 1.43 1.47
0.93 0.92 0.93 0.98 1.00 0.99 0.97 0.97 0.98 0.98 0.96 1.01 1.05 1.08 1.12 1.20 1.20 1.11 1.13 1.22 1.33 1.37 1.40 1.39 1.51 1.81 2.12 2.18 2.09 1.93 1.99 2.10 1.88 1.74 1.69 1.70 1.66 1.63
0.84 0.86 0.86 0.90 0.96 1.00 0.97 0.96 0.96 0.93 0.93 0.97 0.98 0.99 1.02 1.10 1.13 1.09 1.12 1.20 1.21 1.23 1.29 1.31 1.37 1.63 2.01 2.24 2.11 1.88 1.87 2.05 2.22 2.05 1.80 1.73 1.89 2.00
0.86 0.85 0.84 0.85 0.90 0.95 0.99 0.99 0.95 0.88 0.86 0.91 0.93 0.92 0.95 1.02 1.01 1.05 1.08 1.12 1.17 1.18 1.24 1.33 1.37 1.54 1.83 2.01 2.11 2.01 1.87 1.87 1.97 2.08 2.17 1.91 1.59 1.53

GEFSNE_prec_meanprecacc_294.txt.gz
Total_Precipitation_Accumulation
0.80 0.81 0.85 0.80 0.77 0.75 0.77 0.93 1.19 1.02 0.57 0.35 0.33 0.36 0.46 0.59 0.72 0.75 0.72 0.80 0.81 0.82 0.90 1.00 1.05 1.10 1.26 1.61 2.34 3.26 4.01 4.23 3.95 3.41 3.16 3.40 3.76 4.25
0.87 0.87 0.87 0.85 0.82 0.81 0.81 0.84 0.98 1.15 0.86 0.39 0.33 0.35 0.45 0.57 0.70 0.71 0.69 0.80 0.82 0.83 0.83 0.88 0.98 1.09 1.20 1.35 1.68 2.39 3.20 3.88 4.19 4.16 3.94 3.86 4.06 4.36
1.01 1.01 0.95 0.90 0.94 0.91 0.89 0.89 0.90 1.03 1.05 0.50 0.35 0.39 0.52 0.63 0.68 0.68 0.67 0.70 0.71 0.80 0.81 0.83 0.87 0.96 1.09 1.22 1.39 1.78 2.47 3.15 3.77 4.21 4.46 4.43 4.37 4.39
1.13 1.11 1.06 1.04 1.03 0.99 1.03 1.00 0.92 0.91 1.03 0.79 0.47 0.45 0.52 0.61 0.67 0.73 0.73 0.72 0.71 0.77 0.80 0.84 0.88 0.94 1.00 1.11 1.25 1.43 1.81 2.37 2.97 3.57 4.01 4.16 4.23 4.47
1.20 1.22 1.18 1.18 1.16 1.11 1.11 1.12 1.06 0.97 0.99 0.99 0.70 0.54 0.58 0.65 0.76 0.82 0.83 0.85 0.83 0.86 0.86 0.87 0.93 0.98 1.01 1.09 1.21 1.33 1.45 1.70 2.13 2.81 3.51 3.81 3.86 3.99
1.25 1.27 1.28 1.31 1.30 1.31 1.37 1.36 1.34 1.34 1.25 1.20 0.98 0.77 0.74 0.77 0.88 0.93 0.91 0.89 0.91 0.88 0.92 0.89 0.92 0.97 0.99 1.00 1.04 1.11 1.28 1.59 1.92 2.31 2.88 3.33 3.45 3.50
1.31 1.29 1.29 1.40 1.54 1.70 1.83 1.76 1.66 1.69 1.62 1.55 1.35 1.12 0.97 0.98 1.07 1.02 1.03 0.96 0.98 0.97 0.94 0.88 0.85 0.82 0.86 0.97 1.07 1.14 1.22 1.40 1.65 1.99 2.42 2.88 3.20 3.28
1.29 1.22 1.22 1.30 1.38 1.52 1.70 1.73 1.72 1.85 1.92 1.83 1.65 1.43 1.13 1.03 1.14 1.30 1.38 1.39 1.28 1.06 1.05 1.04 0.97 0.96 0.92 0.93 1.09 1.17 1.27 1.42 1.55 1.74 2.10 2.47 2.85 3.20
1.08 1.07 1.07 1.13 1.25 1.17 1.31 1.40 1.45 1.55 1.71 1.82 1.87 1.56 1.32 1.23 1.47 1.67 1.66 1.61 1.32 1.11 1.26 1.39 1.25 1.18 1.09 1.11 1.22 1.17 1.24 1.36 1.50 1.63 1.79 2.09 2.46 2.88
1.01 1.00 0.99 0.99 1.09 1.26 1.31 1.28 1.18 1.17 1.35 1.53 1.70 1.59 1.49 1.56 1.86 2.13 2.18 2.16 1.82 1.46 1.42 1.64 1.47 1.40 1.33 1.27 1.30 1.20 1.22 1.27 1.36 1.52 1.70 1.90 2.13 2.47
1.05 1.07 1.08 1.00 1.17 1.41 1.44 1.37 1.18 1.07 1.16 1.40 1.61 1.71 1.81 1.99 2.25 2.59 2.69 2.75 2.54 2.04 1.73 1.76 1.64 1.56 1.55 1.50 1.45 1.37 1.28 1.26 1.27 1.36 1.53 1.73 1.98 2.25
1.09 1.13 1.31 1.27 1.32 1.41 1.42 1.48 1.45 1.16 1.02 1.10 1.20 1.32 1.41 1.59 1.96 2.20 2.40 2.64 2.58 2.41 1.95 1.88 1.88 1.86 2.03 1.70 1.45 1.34 1.28 1.32 1.28 1.24 1.29 1.46 1.73 1.92
1.22 1.22 1.27 1.41 1.37 1.40 1.44 1.44 1.50 1.36 1.23 1.23 1.20 1.18 1.25 1.40 1.59 1.83 2.10 2.40 2.57 2.41 1.94 2.10 2.30 2.14 2.15 1.90 1.54 1.37 1.28 1.23 1.16 1.16 1.20 1.29 1.49 1.70
1.26 1.12 1.19 1.39 1.38 1.41 1.39 1.45 1.53 1.50 1.39 1.35 1.25 1.14 1.15 1.28 1.38 1.59 1.90 2.08 2.18 2.18 1.94 2.17 2.56 2.30 2.27 2.01 1.71 1.54 1.41 1.34 1.22 1.12 1.06 1.24 1.38 1.56
1.32 1.40 1.34 1.37 1.38 1.28 1.27 1.35 1.38 1.33 1.40 1.39 1.24 1.07 1.01 1.12 1.26 1.45 1.70 1.94 2.04 2.04 2.02 2.04 2.28 2.31 2.37 2.21 1.77 1.55 1.57 1.56 1.37 1.23 1.13 1.07 1.11 1.27
1.36 1.45 1.44 1.34 1.31 1.28 1.26 1.23 1.19 1.26 1.35 1.30 1.14 1.03 1.02 1.13 1.30 1.42 1.62 1.83 2.08 2.07 2.01 2.05 2.23 2.50 2.51 2.06 1.83 1.67 1.53 1.65 1.52 1.34 1.22 1.14 1.09 1.10
1.57 1.55 1.48 1.41 1.41 1.31 1.22 1.18 1.17 1.24 1.31 1.20 1.16 1.16 1.18 1.23 1.29 1.34 1.51 1.68 1.90 1.86 1.87 2.04 2.23 2.42 2.52 2.37 2.16 1.79 1.56 1.50 1.47 1.41 1.36 1.31 1.25 1.19
1.58 1.53 1.38 1.27 1.24 1.21 1.20 1.19 1.14 1.11 1.12 1.16 1.20 1.20 1.22 1.24 1.27 1.28 1.40 1.57 1.68 1.66 1.71 1.86 2.12 2.38 2.57 2.68 2.39 1.94 1.66 1.56 1.52 1.48 1.40 1.39 1.38 1.33
1.29 1.21 1.13 1.11 1.11 1.11 1.11 1.12 1.08 0.99 1.03 1.14 1.19 1.20 1.21 1.25 1.27 1.29 1.33 1.45 1.53 1.56 1.63 1.75 1.99 2.27 2.33 2.30 2.39 2.09 1.83 1.69 1.62 1.64 1.55 1.39 1.37 1.36
1.06 1.04 1.04 1.04 1.06 1.10 1.07 1.06 1.04 1.01 1.06 1.11 1.15 1.17 1.21 1.27 1.27 1.23 1.25 1.35 1.44 1.48 1.54 1.64 1.85 2.14 2.33 2.16 2.16 2.14 2.07 1.87 1.72 1.71 1.66 1.53 1.46 1.51
0.94 0.94 0.95 1.01 1.03 1.02 1.00 1.00 1.01 1.00 0.99 1.04 1.09 1.12 1.16 1.24 1.24 1.15 1.17 1.26 1.36 1.40 1.44 1.42 1.54 1.84 2.15 2.21 2.12 1.95 2.02 2.13 1.92 1.79 1.73 1.74 1.70 1.67
0.85 0.87 0.88 0.92 0.99 1.03 1.01 0.99 0.99 0.96 0.96 1.00 1.01 1.03 1.06 1.14 1.17 1.13 1.16 1.23 1.24 1.26 1.32 1.33 1.38 1.65 2.04 2.27 2.14 1.90 1.89 2.07 2.24 2.07 1.84 1.78 1.95 2.06
0.87 0.87 0.86 0.87 0.93 0.98 1.02 1.02 0.98 0.91 0.89 0.94 0.97 0.96 0.98 1.05 1.04 1.08 1.11 1.14 1.19 1.21 1.26 1.35 1.39 1.55 1.84 2.03 2.13 2.03 1.89 1.88 1.98 2.09 2.19 1.93 1.62 1.57

GEFSNE_prec_meanprecacc_300.txt.gz
Total_Precipitation_Accumulation
0.84 0.84 0.87 0.82 0.79 0.77 0.79 0.95 1.21 1.04 0.58 0.36 0.34 0.38 0.51 0.64 0.77 0.80 0.78 0.86 0.87 0.87 0.95 1.03 1.08 1.13 1.29 1.65 2.39 3.31 4.05 4.26 3.99 3.45 3.18 3.42 3.78 4.27
0.91 0.90 0.90 0.87 0.85 0.83 0.83 0.85 1.00 1.17 0.88 0.40 0.35 0.37 0.48 0.61 0.74 0.75 0.74 0.86 0.88 0.90 0.89 0.92 1.01 1.13 1.23 1.39 1.72 2.44 3.25 3.92 4.21 4.20 3.99 3.90 4.08 4.38
1.06 1.05 0.98 0.93 0.97 0.93 0.91 0.91 0.92 1.06 1.07 0.52 0.36 0.40 0.54 0.67 0.72 0.72 0.71 0.74 0.76 0.86 0.90 0.90 0.92 1.01 1.14 1.28 1.44 1.82 2.50 3.19 3.81 4.24 4.50 4.47 4.41 4.42
1.18 1.15 1.10 1.08 1.06 1.02 1.05 1.02 0.95 0.94 1.07 0.83 0.50 0.47 0.54 0.63 0.70 0.77 0.78 0.77 0.75 0.83 0.87 0.94 0.98 1.00 1.06 1.17 1.31 1.46 1.83 2.38 3.01 3.61 4.04 4.19 4.27 4.50
1.26 1.28 1.23 1.23 1.21 1.15 1.15 1.15 1.09 1.01 1.03 1.03 0.72 0.56 0.59 0.67 0.79 0.85 0.88 0.92 0.90 0.93 0.93 0.95 1.03 1.08 1.09 1.14 1.26 1.37 1.46 1.71 2.15 2.84 3.53 3.84 3.89 4.02
1.31 1.33 1.35 1.37 1.36 1.37 1.43 1.41 1.39 1.38 1.30 1.24 1.02 0.80 0.76 0.78 0.91 0.96 0.96 0.96 1.00 0.97 1.02 0.98 1.00 1.06 1.08 1.07 1.09 1.15 1.30 1.61 1.95 2.34 2.91 3.37 3.49 3.53
1.38 1.36 1.36 1.46 1.60 1.76 1.89 1.81 1.71 1.75 1.68 1.60 1.39 1.15 1.00 1.01 1.10 1.05 1.09 1.03 1.06 1.06 1.04 0.98 0.93 0.88 0.93 1.05 1.13 1.18 1.25 1.43 1.69 2.03 2.46 2.93 3.25 3.33
1.36 1.31 1.31 1.38 1.44 1.57 1.75 1.77 1.76 1.90 1.98 1.88 1.69 1.46 1.15 1.06 1.17 1.33 1.43 1.47 1.38 1.15 1.14 1.14 1.06 1.02 0.97 0.98 1.15 1.21 1.30 1.46 1.60 1.79 2.15 2.51 2.89 3.25
1.16 1.14 1.14 1.20 1.32 1.23 1.36 1.44 1.48 1.59 1.75 1.87 1.91 1.59 1.35 1.25 1.50 1.71 1.71 1.69 1.41 1.20 1.35 1.49 1.35 1.27 1.15 1.16 1.27 1.22 1.29 1.42 1.57 1.70 1.86 2.15 2.51 2.93
1.08 1.06 1.04 1.04 1.13 1.31 1.35 1.31 1.20 1.20 1.39 1.57 1.74 1.62 1.51 1.58 1.89 2.16 2.22 2.23 1.91 1.55 1.49 1.73 1.55 1.48 1.40 1.34 1.36 1.26 1.27 1.32 1.42 1.58 1.76 1.95 2.18 2.52
1.12 1.13 1.14 1.05 1.22 1.46 1.47 1.40 1.21 1.10 1.19 1.43 1.64 1.75 1.85 2.02 2.28 2.62 2.74 2.82 2.62 2.13 1.81 1.83 1.70 1.62 1.62 1.57 1.52 1.45 1.34 1.32 1.33 1.42 1.59 1.79 2.03 2.31
1.17 1.20 1.37 1.33 1.37 1.46 1.46 1.52 1.49 1.20 1.06 1.13 1.23 1.35 1.44 1.63 2.00 2.23 2.44 2.70 2.65 2.48 2.02 1.94 1.93 1.91 2.09 1.76 1.52 1.41 1.35 1.38 1.35 1.30 1.36 1.52 1.79 1.98
1.31 1.31 1.34 1.48 1.43 1.45 1.49 1.49 1.54 1.41 1.26 1.26 1.23 1.21 1.29 1.44 1.63 1.87 2.15 2.45 2.64 2.47 1.99 2.16 2.35 2.20 2.22 1.96 1.61 1.43 1.33 1.28 1.22 1.22 1.27 1.36 1.56 1.76
1.35 1.20 1.27 1.47 1.44 1.46 1.43 1.49 1.58 1.55 1.43 1.39 1.29 1.18 1.19 1.32 1.42 1.63 1.95 2.13 2.24 2.25 2.00 2.23 2.63 2.37 2.34 2.08 1.78 1.61 1.47 1.39 1.26 1.16 1.11 1.30 1.44 1.62
1.39 1.47 1.40 1.44 1.43 1.33 1.32 1.40 1.43 1.38 1.46 1.45 1.29 1.12 1.05 1.16 1.30 1.49 1.75 1.99 2.10 2.11 2.08 2.10 2.34 2.37 2.43 2.29 1.84 1.62 1.64 1.62 1.41 1.27 1.17 1.12 1.16 1.33
1.42 1.50 1.48 1.38 1.35 1.32 1.31 1.29 1.24 1.32 1.41 1.36 1.21 1.10 1.08 1.18 1.34 1.47 1.67 1.88 2.14 2.14 2.07 2.12 2.30 2.57 2.59 2.14 1.90 1.74 1.60 1.72 1.59 1.40 1.27 1.19 1.14 1.15
1.62 1.58 1.51 1.44 1.44 1.35 1.26 1.22 1.22 1.30 1.37 1.26 1.22 1.23 1.25 1.29 1.35 1.40 1.57 1.74 1.96 1.93 1.94 2.10 2.30 2.49 2.59 2.44 2.22 1.85 1.63 1.57 1.53 1.47 1.41 1.36 1.30 1.24
1.61 1.57 1.41 1.29 1.27 1.24 1.24 1.23 1.18 1.16 1.17 1.21 1.25 1.26 1.28 1.30 1.34 1.35 1.46 1.63 1.75 1.73 1.77 1.92 2.18 2.44 2.64 2.75 2.45 2.00 1.72 1.62 1.58 1.54 1.45 1.44 1.44 1.39
1.32 1.24 1.17 1.14 1.14 1.14 1.14 1.14 1.11 1.03 1.07 1.18 1.24 1.24 1.26 1.30 1.33 1.35 1.39 1.50 1.59 1.62 1.70 1.82 2.05 2.33 2.39 2.36 2.45 2.14 1.89 1.76 1.67 1.68 1.59 1.44 1.44 1.44
1.09 1.07 1.08 1.07 1.09 1.13 1.10 1.08 1.06 1.04 1.09 1.14 1.19 1.20 1.25 1.31 1.31 1.28 1.29 1.40 1.48 1.53 1.59 1.69 1.90 2.19 2.39 2.22 2.22 2.19 2.12 1.93 1.76 1.75 1.69 1.57 1.52 1.57
0.98 0.97 0.98 1.04 1.06 1.05 1.03 1.02 1.03 1.03 1.02 1.07 1.11 1.15 1.19 1.27 1.27 1.18 1.20 1.29 1.40 1.44 1.48 1.46 1.57 1.87 2.18 2.25 2.16 2.01 2.08 2.18 1.97 1.83 1.77 1.78 1.76 1.72
0.88 0.91 0.91 0.95 1.02 1.06 1.03 1.01 1.01 0.98 0.98 1.02 1.04 1.05 1.09 1.17 1.20 1.15 1.19 1.26 1.27 1.29 1.35 1.36 1.41 1.67 2.06 2.30 2.18 1.95 1.95 2.12 2.28 2.10 1.87 1.83 2.01 2.12
0.91 0.90 0.89 0.90 0.95 1.00 1.04 1.03 1.00 0.92 0.91 0.96 0.99 0.98 1.01 1.08 1.07 1.11 1.14 1.17 1.22 1.23 1.29 1.38 1.42 1.58 1.87 2.05 2.16 2.07 1.93 1.93 2.02 2.13 2.23 1.97 1.65 1.59